[[{"header":{"parameterUnit":"m.s-1","parameterCategory":1,"la1":31.0,"la2":29.5877,"lo1":-88.7671,"lo2":-86.6584,"dy":0.0162,"dx":0.0185,"nx":115,"ny":88,"refTime":"2024-02-15T18:00:00:Z","depth":0,"parameterNumber":2,"parameterNumberName":"U-component_of_WINDS"},"data":[0.0,0.0,0.0,0.0,0.0,0.0,0.0,0.0,0.0,0.0,0.0,0.0,0.0,0.0,0.0,0.0,0.0,0.0,0.0,0.0,0.0,0.0,0.0,0.0,0.0,0.0,0.0,0.0,0.0,0.0,0.0,0.0,0.0,0.0,0.0,0.0,0.0,0.0,0.0,0.0,0.0,0.0,0.0,0.0,0.0,0.0,0.0,0.0,0.0,0.0,0.0,0.0,0.0,0.0,0.0,0.0,0.0,0.0,0.0,0.0,0.0,0.0,0.0,0.0,0.0,0.0,0.0,0.0,0.0,0.0,0.0,0.0,0.0,0.0,0.0,0.0,0.0,0.0,0.0,0.0,0.0,0.0,0.0,0.0,0.0,0.0,0.0,0.0,0.0,0.0,0.0,0.0,0.0,0.0,0.0,0.0,0.0,0.0,0.0,0.0,0.0,0.0,0.0,0.0,0.0,0.0,0.0,0.0,0.0,0.0,0.0,0.0,0.0,0.0,0.0,0.0,0.0,0.0,0.0,0.0,0.0,0.0,0.0,0.0,0.0,0.0,0.0,0.0,0.0,0.0,0.0,0.0,0.0,0.0,0.0,0.0,0.0,0.0,0.0,0.0,0.0,0.0,0.0,0.0,0.0,0.0,0.0,0.0,0.0,0.0,0.0,0.0,0.0,0.0,0.0,0.0,0.0,0.0,0.0,0.0,0.0,0.0,0.0,0.0,0.0,0.0,0.0,0.0,0.0,0.0,0.0,0.0,0.0,0.0,0.0,0.0,0.0,0.0,0.0,0.0,0.0,0.0,0.0,0.0,0.0,0.0,0.0,0.0,0.0,0.0,0.0,0.0,0.0,0.0,0.0,0.0,0.0,0.0,0.0,0.0,0.0,0.0,0.0,0.0,0.0,0.0,0.0,0.0,0.0,0.0,0.0,0.0,0.0,0.0,0.0,0.0,0.0,0.0,0.0,0.0,0.0,0.0,0.0,0.0,0.0,0.0,0.0,0.0,0.0,0.0,0.0,0.0,0.0,0.0,0.0,0.0,0.0,0.0,0.0,0.0,0.0,0.0,0.0,0.0,0.0,0.0,0.0,0.0,0.0,0.0,0.0,0.0,0.0,0.0,0.0,0.0,0.0,0.0,0.0,0.0,0.0,0.0,0.0,0.0,0.0,0.0,0.0,0.0,0.0,0.0,0.0,0.0,0.0,0.0,0.0,0.0,0.0,0.0,0.0,0.0,0.0,0.0,0.0,0.0,0.0,0.0,0.0,0.0,0.0,0.0,0.0,0.0,0.0,0.0,0.0,0.0,0.0,0.0,0.0,0.0,0.0,0.0,0.0,0.0,0.0,0.0,0.0,0.0,0.0,0.0,0.0,0.0,0.0,0.0,0.0,0.0,0.0,0.0,0.0,0.0,0.0,0.0,0.0,0.0,0.0,0.0,0.0,0.0,0.0,0.0,0.0,0.0,0.0,0.0,0.0,0.0,0.0,0.0,0.0,0.0,0.0,0.0,0.0,0.0,0.0,0.0,0.0,0.0,0.0,0.0,0.0,0.0,0.0,0.0,0.0,0.0,0.0,0.0,0.0,0.0,0.0,0.0,0.0,0.0,0.0,0.0,0.0,0.0,0.0,0.0,0.0,0.0,0.0,0.0,0.0,0.0,0.0,0.0,0.0,0.0,0.0,0.0,0.0,0.0,0.0,0.0,0.0,0.0,0.0,0.0,0.0,0.0,0.0,0.0,0.0,0.0,0.0,0.0,0.0,0.0,0.0,0.0,0.0,0.0,0.0,0.0,0.0,0.0,0.0,0.0,0.0,0.0,0.0,0.0,0.0,0.0,0.0,0.0,0.0,0.0,0.0,0.0,0.0,0.0,0.0,0.0,0.0,0.0,0.0,0.0,0.0,0.0,0.0,0.0,0.0,0.0,0.0,0.0,0.0,0.0,0.0,0.0,0.0,0.0,0.0,0.0,0.0,0.0,0.0,0.0,0.0,0.0,0.0,0.0,0.0,0.0,0.0,0.0,0.0,0.0,0.0,0.0,0.0,0.0,0.0,0.0,0.0,0.0,0.0,0.0,0.0,0.0,0.0,0.0,0.0,0.0,0.0,0.0,0.0,0.0,0.0,0.0,0.0,0.0,0.0,0.0,0.0,0.0,0.0,0.0,0.0,0.0,0.0,0.0,0.0,0.0,0.0,0.0,0.0,0.0,0.0,0.0,0.0,0.0,0.0,0.0,0.0,0.0,0.0,0.0,0.0,0.0,0.0,0.0,0.0,0.0,0.0,0.0,0.0,0.0,0.0,0.0,0.0,0.0,0.0,0.0,0.0,0.0,0.0,0.0,0.0,0.0,0.0,0.0,0.0,0.0,0.0,0.0,0.0,0.0,0.0,0.0,0.0,0.0,0.0,0.0,0.0,0.0,0.0,0.0,0.0,0.0,0.0,0.0,0.0,0.0,0.0,0.0,0.0,0.0,0.0,0.0,0.0,0.0,0.0,0.0,0.0,0.0,0.0,0.0,0.0,0.0,0.0,0.0,0.0,0.0,0.0,0.0,0.0,0.0,0.0,0.0,0.0,0.0,0.0,0.0,0.0,0.0,0.0,0.0,0.0,0.0,0.0,0.0,0.0,0.0,0.0,0.0,0.0,0.0,0.0,0.0,0.0,0.0,0.0,0.0,0.0,0.0,0.0,0.0,0.0,0.0,0.0,0.0,0.0,0.0,0.0,0.0,0.0,0.0,0.0,0.0,0.0,0.0,0.0,0.0,0.0,0.0,0.0,0.0,0.0,0.0,0.0,0.0,0.0,0.0,0.0,0.0,0.0,0.0,0.0,0.0,0.0,0.0,0.0,0.0,0.0,0.0,0.0,0.0,0.0,0.0,0.0,0.0,0.0,0.0,0.0,0.0,0.0,0.0,0.0,0.0,0.0,0.0,0.0,0.0,0.0,0.0,0.0,0.0,0.0,0.0,0.0,0.0,0.0,0.0,0.0,0.0,0.0,0.0,0.0,0.0,0.0,0.0,0.0,0.0,0.0,0.0,0.0,0.0,0.0,0.0,0.0,0.0,0.0,0.0,0.0,0.0,0.0,0.0,0.0,0.0,0.0,0.0,0.0,0.0,0.0,0.0,0.0,0.0,0.0,0.0,0.0,0.0,0.0,0.0,0.0,0.0,0.0,0.0,0.0,0.0,0.0,0.0,0.0,0.0,0.0,0.0,0.0,0.0,0.0,0.0,0.0,0.0,0.0,0.0,0.0,0.0,0.0,0.0,0.0,0.0,0.0,0.0,0.0,0.0,0.0,0.0,0.0,0.0,0.0,0.0,0.0,0.0,0.0,0.0,0.0,0.0,0.0,0.0,0.0,0.0,0.0,0.0,0.0,0.0,0.0,0.0,0.0,0.0,0.0,0.0,0.0,0.0,0.0,0.0,0.0,0.0,0.0,0.0,0.0,0.0,0.0,0.0,0.0,0.0,0.0,0.0,0.0,0.0,0.0,0.0,0.0,0.0,0.0,0.0,0.0,0.0,0.0,0.0,0.0,0.0,0.0,0.0,0.0,0.0,0.0,0.0,0.0,0.0,0.0,0.0,0.0,0.0,0.0,0.0,0.0,0.0,0.0,0.0,0.0,0.0,0.0,0.0,0.0,0.0,0.0,0.0,0.0,0.0,0.0,0.0,0.0,0.0,0.0,0.0,0.0,0.0,0.0,0.0,0.0,0.0,0.0,0.0,0.0,0.0,0.0,0.0,0.0,0.0,0.0,0.0,0.0,0.0,0.0,0.0,0.0,0.0,0.0,0.0,0.0,0.0,0.0,0.0,0.0,0.0,0.0,0.0,0.0,0.0,0.0,0.0,0.0,0.0,0.0,0.0,0.0,0.0,0.0,0.0,0.0,0.0,0.0,0.0,0.0,0.0,0.0,0.0,0.0,0.0,0.0,0.0,0.0,0.0,0.0,0.0,0.0,0.0,0.0,0.0,0.0,0.0,0.0,0.0,0.0,0.0,0.0,0.0,0.0,0.0,0.0,0.0,0.0,0.0,0.0,0.0,0.0,0.0,0.0,0.0,0.0,0.0,0.0,0.0,0.0,0.0,0.0,0.0,0.0,0.0,0.0,0.0,0.0,0.0,0.0,0.0,0.0,0.0,0.0,0.0,0.0,0.0,0.0,0.0,0.0,0.0,0.0,0.0,0.0,0.0,0.0,0.0,0.0,0.0,0.0,0.0,0.0,0.0,0.0,0.0,0.0,0.0,0.0,0.0,0.0,0.0,-1.6319,0.0,0.0,0.0,0.0,0.0,0.0,0.0,0.0,0.0,0.0,0.0,0.0,0.0,0.0,0.0,0.0,0.0,0.0,0.0,0.0,0.0,0.0,0.0,0.0,0.0,0.0,0.0,0.0,0.0,0.0,0.0,0.0,0.0,0.0,0.0,0.0,0.0,0.0,0.0,0.0,0.0,0.0,0.0,0.0,0.0,0.0,0.0,0.0,0.0,0.0,0.0,0.0,0.0,0.0,0.0,0.0,0.0,0.0,0.0,0.0,0.0,0.0,0.0,0.0,0.0,0.0,0.0,0.0,0.0,0.0,0.0,0.0,0.0,0.0,0.0,0.0,0.0,0.0,0.0,0.0,0.0,0.0,0.0,0.0,0.0,0.0,0.0,0.0,0.0,0.0,0.0,0.0,0.0,0.0,0.0,0.0,0.0,0.0,0.0,0.0,0.0,0.0,0.0,0.0,0.0,0.0,0.0,0.0,0.0,0.0,-1.6705,-1.6725,-1.6478,-1.6181,-1.5802,0.0,0.0,0.0,0.0,0.0,0.0,0.0,0.0,0.0,0.0,0.0,0.0,0.0,0.0,0.0,0.0,0.0,0.0,0.0,0.0,0.0,0.0,0.0,0.0,0.0,0.0,0.0,0.0,0.0,0.0,0.0,0.0,0.0,0.0,0.0,0.0,0.0,0.0,0.0,0.0,0.0,0.0,0.0,0.0,0.0,0.0,0.0,0.0,0.0,0.0,0.0,0.0,0.0,0.0,0.0,0.0,0.0,0.0,0.0,0.0,0.0,0.0,0.0,0.0,0.0,0.0,0.0,0.0,0.0,0.0,0.0,0.0,0.0,0.0,0.0,0.0,0.0,0.0,0.0,0.0,0.0,0.0,0.0,0.0,0.0,0.0,0.0,0.0,0.0,0.0,0.0,0.0,0.0,0.0,0.0,0.0,0.0,0.0,0.0,0.0,0.0,0.0,0.0,0.0,0.0,0.0,0.0,0.0,0.0,0.0,0.0,0.0,-1.6594,-1.6116,-1.5259,0.0,0.0,0.0,0.0,0.0,0.0,0.0,0.0,0.0,0.0,0.0,0.0,0.0,0.0,0.0,0.0,0.0,0.0,0.0,0.0,0.0,0.0,0.0,0.0,0.0,0.0,0.0,0.0,0.0,0.0,0.0,0.0,0.0,0.0,0.0,0.0,0.0,0.0,0.0,0.0,0.0,0.0,0.0,0.0,0.0,0.0,0.0,0.0,0.0,0.0,0.0,0.0,0.0,0.0,0.0,0.0,0.0,0.0,0.0,0.0,0.0,0.0,0.0,0.0,0.0,0.0,0.0,0.0,0.0,0.0,0.0,0.0,0.0,0.0,0.0,0.0,0.0,0.0,0.0,0.0,0.0,0.0,0.0,0.0,0.0,0.0,0.0,0.0,0.0,0.0,0.0,0.0,0.0,0.0,0.0,0.0,0.0,0.0,0.0,0.0,0.0,0.0,0.0,0.0,0.0,0.0,0.0,0.0,0.0,0.0,-1.8305,-1.837,-1.7728,0.0,-1.5331,0.0,0.0,0.0,0.0,0.0,0.0,0.0,0.0,0.0,0.0,0.0,0.0,0.0,0.0,0.0,0.0,0.0,0.0,0.0,0.0,0.0,0.0,0.0,0.0,0.0,0.0,0.0,0.0,0.0,0.0,0.0,0.0,0.0,0.0,0.0,0.0,0.0,0.0,0.0,0.0,0.0,0.0,0.0,0.0,0.0,0.0,0.0,0.0,0.0,0.0,0.0,0.0,0.0,0.0,0.0,0.0,0.0,0.0,0.0,0.0,0.0,0.0,0.0,0.0,0.0,0.0,0.0,0.0,0.0,0.0,0.0,0.0,0.0,0.0,0.0,0.0,0.0,0.0,0.0,0.0,0.0,0.0,0.0,0.0,0.0,0.0,0.0,0.0,0.0,0.0,0.0,0.0,0.0,0.0,0.0,0.0,0.0,0.0,0.0,0.0,0.0,0.0,0.0,0.0,0.0,0.0,0.0,0.0,0.0,0.0,-1.7589,-1.7129,-1.6434,-1.5777,0.0,0.0,0.0,0.0,0.0,0.0,0.0,0.0,0.0,0.0,0.0,0.0,0.0,0.0,0.0,0.0,0.0,0.0,0.0,0.0,0.0,0.0,0.0,0.0,0.0,0.0,0.0,0.0,0.0,0.0,0.0,0.0,0.0,0.0,0.0,0.0,0.0,0.0,0.0,0.0,0.0,0.0,0.0,0.0,0.0,0.0,0.0,0.0,0.0,0.0,0.0,0.0,0.0,0.0,0.0,0.0,0.0,0.0,0.0,0.0,0.0,0.0,0.0,0.0,0.0,0.0,0.0,0.0,0.0,0.0,0.0,0.0,0.0,0.0,0.0,0.0,0.0,0.0,0.0,0.0,0.0,0.0,0.0,0.0,0.0,0.0,0.0,0.0,0.0,0.0,0.0,0.0,0.0,0.0,0.0,0.0,0.0,0.0,0.0,0.0,0.0,0.0,0.0,0.0,0.0,0.0,0.0,0.0,0.0,0.0,-1.7031,-1.7057,-1.6498,-1.5794,-1.5318,-1.5082,0.0,0.0,0.0,0.0,0.0,0.0,0.0,0.0,0.0,0.0,0.0,0.0,0.0,0.0,0.0,0.0,0.0,0.0,0.0,0.0,0.0,0.0,0.0,0.0,0.0,0.0,0.0,0.0,0.0,0.0,0.0,0.0,0.0,0.0,0.0,0.0,0.0,0.0,0.0,0.0,0.0,0.0,0.0,0.0,0.0,0.0,0.0,0.0,0.0,0.0,0.0,0.0,0.0,0.0,0.0,0.0,0.0,0.0,0.0,0.0,0.0,0.0,0.0,0.0,0.0,0.0,0.0,0.0,0.0,0.0,0.0,0.0,0.0,0.0,0.0,0.0,0.0,0.0,0.0,0.0,0.0,0.0,0.0,0.0,0.0,0.0,0.0,0.0,0.0,0.0,0.0,0.0,0.0,0.0,0.0,0.0,0.0,0.0,0.0,0.0,0.0,0.0,0.0,0.0,0.0,0.0,0.0,0.0,-1.7221,-1.7336,-1.7385,-1.7364,-1.6656,-1.5849,0.0,0.0,0.0,0.0,0.0,0.0,0.0,0.0,0.0,0.0,0.0,0.0,0.0,0.0,0.0,0.0,0.0,0.0,0.0,0.0,0.0,0.0,0.0,0.0,0.0,0.0,0.0,0.0,0.0,0.0,0.0,0.0,0.0,0.0,0.0,0.0,0.0,0.0,0.0,0.0,0.0,0.0,0.0,0.0,0.0,0.0,0.0,0.0,0.0,0.0,0.0,0.0,0.0,0.0,0.0,0.0,0.0,0.0,0.0,0.0,0.0,0.0,0.0,0.0,0.0,0.0,0.0,0.0,0.0,0.0,0.0,0.0,0.0,0.0,0.0,0.0,0.0,0.0,0.0,0.0,0.0,0.0,0.0,0.0,0.0,0.0,0.0,0.0,0.0,0.0,0.0,0.0,0.0,0.0,0.0,0.0,0.0,0.0,0.0,0.0,0.0,0.0,0.0,0.0,0.0,0.0,0.0,0.0,0.0,-1.5763,-1.5796,-1.6078,-1.662,-1.5843,-1.5251,0.0,0.0,0.0,0.0,0.0,0.0,0.0,0.0,0.0,0.0,0.0,0.0,0.0,0.0,0.0,0.0,0.0,0.0,0.0,0.0,0.0,0.0,0.0,0.0,0.0,0.0,0.0,0.0,0.0,0.0,0.0,0.0,0.0,0.0,0.0,0.0,0.0,0.0,0.0,0.0,0.0,0.0,0.0,0.0,0.0,0.0,0.0,0.0,0.0,0.0,0.0,0.0,0.0,0.0,0.0,0.0,0.0,0.0,0.0,0.0,0.0,0.0,0.0,0.0,0.0,0.0,0.0,0.0,0.0,0.0,0.0,0.0,0.0,0.0,0.0,0.0,0.0,0.0,0.0,0.0,0.0,0.0,0.0,0.0,0.0,0.0,0.0,0.0,0.0,0.0,0.0,0.0,0.0,0.0,0.0,0.0,0.0,0.0,0.0,0.0,0.0,0.0,0.0,0.0,0.0,0.0,0.0,0.0,0.0,-1.5278,0.0,-1.5875,-1.6125,-1.5564,-1.5108,0.0,0.0,0.0,0.0,0.0,0.0,0.0,0.0,0.0,0.0,0.0,0.0,0.0,0.0,0.0,0.0,0.0,0.0,0.0,0.0,0.0,0.0,0.0,0.0,0.0,0.0,0.0,0.0,0.0,0.0,0.0,0.0,0.0,0.0,0.0,0.0,0.0,0.0,0.0,0.0,0.0,0.0,0.0,0.0,0.0,0.0,0.0,0.0,0.0,0.0,0.0,0.0,0.0,0.0,0.0,0.0,0.0,0.0,0.0,0.0,0.0,0.0,0.0,0.0,0.0,0.0,0.0,0.0,0.0,0.0,0.0,0.0,0.0,0.0,0.0,0.0,0.0,0.0,0.0,0.0,0.0,0.0,0.0,0.0,0.0,0.0,0.0,0.0,0.0,0.0,0.0,0.0,0.0,0.0,0.0,0.0,0.0,0.0,0.0,0.0,0.0,0.0,0.0,0.0,0.0,0.0,0.0,0.0,-1.5197,-1.6057,-1.685,-1.6793,-1.6132,-1.5957,-1.5566,0.0,0.0,0.0,0.0,0.0,0.0,0.0,0.0,0.0,0.0,0.0,0.0,0.0,0.0,0.0,0.0,0.0,0.0,0.0,0.0,0.0,0.0,0.0,0.0,0.0,0.0,0.0,0.0,0.0,0.0,0.0,0.0,0.0,0.0,0.0,0.0,0.0,0.0,0.0,0.0,0.0,0.0,0.0,0.0,0.0,0.0,0.0,0.0,0.0,0.0,0.0,0.0,0.0,0.0,0.0,0.0,0.0,0.0,0.0,0.0,0.0,0.0,0.0,0.0,0.0,0.0,0.0,0.0,0.0,0.0,0.0,0.0,0.0,0.0,0.0,0.0,0.0,0.0,0.0,0.0,0.0,0.0,0.0,0.0,0.0,0.0,0.0,0.0,0.0,0.0,0.0,0.0,0.0,0.0,0.0,0.0,0.0,0.0,0.0,0.0,0.0,0.0,0.0,0.0,0.0,0.0,0.0,0.0,0.0,-1.5131,-1.5394,-1.5404,-1.5153,-1.5069,-1.4911,0.0,0.0,0.0,0.0,0.0,0.0,0.0,0.0,0.0,0.0,0.0,0.0,0.0,0.0,0.0,0.0,0.0,0.0,0.0,0.0,0.0,0.0,0.0,0.0,0.0,0.0,0.0,0.0,0.0,0.0,0.0,0.0,0.0,0.0,0.0,0.0,0.0,0.0,0.0,0.0,0.0,0.0,0.0,0.0,0.0,0.0,0.0,0.0,0.0,0.0,0.0,0.0,0.0,0.0,0.0,0.0,0.0,0.0,0.0,0.0,0.0,0.0,0.0,0.0,0.0,0.0,0.0,0.0,0.0,0.0,0.0,0.0,0.0,0.0,0.0,0.0,0.0,0.0,0.0,0.0,0.0,0.0,0.0,0.0,0.0,0.0,0.0,0.0,0.0,0.0,0.0,0.0,0.0,0.0,0.0,0.0,0.0,0.0,0.0,0.0,0.0,0.0,0.0,0.0,0.0,0.0,0.0,0.0,0.0,-1.4511,-1.4591,-1.464,-1.4624,-1.4525,-1.448,-1.4481,0.0,0.0,0.0,0.0,0.0,0.0,0.0,0.0,0.0,0.0,0.0,0.0,0.0,0.0,0.0,0.0,0.0,0.0,0.0,0.0,0.0,0.0,0.0,0.0,0.0,0.0,0.0,0.0,0.0,0.0,0.0,0.0,0.0,0.0,0.0,0.0,0.0,0.0,0.0,0.0,0.0,0.0,0.0,0.0,0.0,0.0,0.0,0.0,0.0,0.0,0.0,0.0,0.0,0.0,0.0,0.0,0.0,0.0,0.0,0.0,0.0,0.0,0.0,0.0,0.0,0.0,0.0,0.0,0.0,0.0,0.0,0.0,0.0,0.0,0.0,0.0,0.0,0.0,0.0,0.0,0.0,0.0,0.0,0.0,0.0,0.0,0.0,0.0,0.0,0.0,0.0,0.0,0.0,0.0,0.0,0.0,0.0,0.0,0.0,0.0,0.0,0.0,0.0,0.0,0.0,0.0,0.0,0.0,-1.4172,-1.435,-1.4458,-1.447,-1.4362,-1.4282,0.0,0.0,0.0,0.0,0.0,0.0,0.0,0.0,0.0,0.0,0.0,0.0,0.0,0.0,0.0,0.0,0.0,0.0,0.0,0.0,0.0,0.0,0.0,0.0,0.0,0.0,0.0,0.0,0.0,0.0,0.0,0.0,0.0,0.0,0.0,0.0,0.0,0.0,0.0,0.0,0.0,0.0,0.0,0.0,0.0,0.0,0.0,0.0,0.0,0.0,0.0,0.0,0.0,0.0,0.0,0.0,0.0,0.0,0.0,0.0,0.0,0.0,0.0,0.0,0.0,0.0,0.0,0.0,0.0,0.0,0.0,0.0,0.0,0.0,0.0,0.0,0.0,0.0,0.0,0.0,0.0,0.0,0.0,0.0,0.0,0.0,0.0,0.0,0.0,0.0,0.0,0.0,0.0,0.0,0.0,0.0,0.0,0.0,0.0,0.0,0.0,0.0,0.0,0.0,0.0,0.0,0.0,0.0,0.0,-1.3902,-1.3906,-1.4033,-1.4263,-1.4196,-1.415,0.0,0.0,0.0,0.0,0.0,0.0,0.0,0.0,0.0,0.0,0.0,0.0,0.0,0.0,0.0,0.0,0.0,0.0,0.0,0.0,0.0,0.0,0.0,0.0,0.0,0.0,0.0,0.0,0.0,0.0,0.0,0.0,0.0,0.0,0.0,0.0,0.0,0.0,0.0,0.0,0.0,0.0,0.0,0.0,0.0,0.0,0.0,0.0,0.0,0.0,0.0,0.0,0.0,0.0,0.0,0.0,0.0,0.0,0.0,0.0,0.0,0.0,0.0,0.0,0.0,0.0,0.0,0.0,0.0,0.0,0.0,0.0,0.0,0.0,0.0,0.0,0.0,0.0,0.0,0.0,0.0,0.0,0.0,0.0,0.0,0.0,0.0,0.0,0.0,0.0,0.0,0.0,0.0,0.0,0.0,0.0,0.0,0.0,0.0,0.0,0.0,0.0,0.0,0.0,0.0,0.0,0.0,0.0,-1.3652,-1.3591,-1.3509,-1.3702,-1.4243,-1.4038,-1.41,0.0,0.0,0.0,0.0,0.0,0.0,0.0,0.0,0.0,0.0,0.0,0.0,0.0,0.0,0.0,0.0,0.0,0.0,0.0,0.0,0.0,0.0,0.0,0.0,0.0,0.0,0.0,0.0,0.0,0.0,0.0,0.0,0.0,0.0,0.0,0.0,0.0,0.0,0.0,0.0,0.0,0.0,0.0,0.0,0.0,0.0,0.0,0.0,0.0,0.0,0.0,0.0,0.0,0.0,0.0,0.0,0.0,0.0,0.0,0.0,0.0,0.0,0.0,0.0,0.0,0.0,0.0,0.0,0.0,0.0,0.0,0.0,0.0,0.0,0.0,0.0,0.0,0.0,0.0,0.0,0.0,0.0,0.0,0.0,0.0,0.0,0.0,0.0,0.0,0.0,0.0,0.0,0.0,0.0,0.0,0.0,0.0,0.0,0.0,0.0,0.0,0.0,0.0,0.0,0.0,0.0,0.0,0.0,-1.3295,-1.3209,-1.3081,-1.3412,-1.4169,-1.3871,-1.4033,0.0,0.0,0.0,0.0,0.0,0.0,0.0,0.0,0.0,0.0,0.0,0.0,0.0,0.0,0.0,0.0,0.0,0.0,0.0,0.0,0.0,0.0,0.0,0.0,0.0,0.0,0.0,0.0,0.0,0.0,0.0,0.0,0.0,0.0,0.0,0.0,0.0,0.0,0.0,0.0,0.0,0.0,0.0,0.0,0.0,0.0,0.0,0.0,0.0,0.0,0.0,0.0,0.0,0.0,0.0,0.0,0.0,0.0,0.0,0.0,0.0,0.0,0.0,0.0,0.0,0.0,0.0,0.0,0.0,0.0,0.0,0.0,0.0,0.0,0.0,0.0,0.0,0.0,0.0,0.0,0.0,0.0,0.0,0.0,0.0,0.0,0.0,0.0,0.0,0.0,0.0,0.0,0.0,0.0,0.0,0.0,0.0,0.0,0.0,0.0,0.0,0.0,0.0,0.0,0.0,0.0,0.0,0.0,-1.2753,-1.253,-1.2505,-1.2879,-1.3739,-1.3524,-1.3761,0.0,0.0,0.0,0.0,0.0,0.0,0.0,0.0,0.0,0.0,0.0,0.0,0.0,0.0,0.0,0.0,0.0,0.0,0.0,0.0,0.0,0.0,0.0,0.0,0.0,0.0,0.0,0.0,0.0,0.0,0.0,0.0,0.0,0.0,0.0,0.0,0.0,0.0,0.0,0.0,0.0,0.0,0.0,0.0,0.0,0.0,0.0,0.0,-0.8194,0.0,0.0,0.0,0.0,0.0,0.0,0.0,0.0,0.0,0.0,0.0,0.0,0.0,0.0,0.0,0.0,0.0,0.0,0.0,0.0,0.0,0.0,0.0,0.0,0.0,0.0,0.0,0.0,0.0,0.0,0.0,0.0,0.0,0.0,0.0,0.0,0.0,0.0,0.0,0.0,0.0,0.0,0.0,0.0,0.0,0.0,0.0,0.0,0.0,0.0,0.0,0.0,0.0,0.0,0.0,0.0,0.0,0.0,0.0,-1.2102,-1.1895,-1.1864,-1.2283,-1.306,-1.2838,-1.3172,0.0,0.0,0.0,0.0,0.0,0.0,0.0,0.0,0.0,0.0,0.0,0.0,0.0,0.0,0.0,0.0,0.0,0.0,0.0,0.0,0.0,0.0,0.0,0.0,0.0,0.0,0.0,0.0,0.0,0.0,0.0,0.0,0.0,0.0,0.0,0.0,0.0,0.0,0.0,0.0,0.0,0.0,0.0,0.0,0.0,0.0,0.0,0.0,0.0,0.0,0.0,0.0,0.0,0.0,0.0,0.0,0.0,0.0,0.0,0.0,0.0,0.0,0.0,0.0,0.0,0.0,0.0,0.0,0.0,0.0,0.0,0.0,0.0,0.0,0.0,0.0,0.0,0.0,0.0,0.0,0.0,0.0,0.0,0.0,0.0,0.0,0.0,0.0,0.0,0.0,0.0,0.0,0.0,0.0,0.0,0.0,0.0,0.0,0.0,0.0,0.0,0.0,0.0,0.0,0.0,0.0,0.0,-1.1564,-1.1365,-1.123,-1.1236,-1.1586,-1.2305,-1.1996,-1.2401,-1.3557,0.0,0.0,0.0,0.0,0.0,0.0,0.0,0.0,0.0,0.0,0.0,0.0,0.0,0.0,0.0,0.0,0.0,0.0,0.0,0.0,0.0,0.0,0.0,0.0,0.0,0.0,0.0,0.0,0.0,0.0,0.0,0.0,0.0,0.0,0.0,0.0,0.0,0.0,-0.8222,-0.8215,0.0,0.0,0.0,0.0,0.0,0.0,0.0,0.0,-0.9268,0.0,0.0,0.0,0.0,0.0,0.0,0.0,0.0,0.0,0.0,0.0,0.0,0.0,0.0,0.0,0.0,0.0,0.0,0.0,0.0,0.0,0.0,0.0,0.0,0.0,0.0,0.0,0.0,0.0,0.0,0.0,0.0,0.0,0.0,0.0,0.0,0.0,0.0,0.0,0.0,0.0,0.0,0.0,0.0,0.0,0.0,0.0,0.0,0.0,0.0,0.0,0.0,0.0,0.0,0.0,0.0,-1.0996,-1.0839,-1.0675,-1.0481,-1.0543,-1.0729,-1.1089,-1.1143,-1.1407,-1.1899,0.0,0.0,0.0,0.0,0.0,0.0,0.0,0.0,0.0,0.0,0.0,0.0,0.0,0.0,0.0,0.0,0.0,0.0,0.0,0.0,0.0,0.0,0.0,0.0,0.0,0.0,0.0,0.0,0.0,0.0,0.0,0.0,0.0,0.0,0.0,0.0,0.0,0.0,0.0,-0.8572,-0.8587,0.0,0.0,0.0,0.0,0.0,0.0,0.0,0.0,-0.9506,0.0,0.0,0.0,0.0,0.0,0.0,0.0,0.0,0.0,0.0,0.0,0.0,0.0,0.0,0.0,0.0,0.0,0.0,0.0,0.0,0.0,0.0,0.0,0.0,0.0,0.0,0.0,0.0,0.0,0.0,0.0,0.0,0.0,0.0,0.0,0.0,0.0,0.0,0.0,0.0,0.0,0.0,0.0,0.0,0.0,0.0,0.0,0.0,0.0,0.0,0.0,0.0,0.0,0.0,0.0,-1.0346,-1.0097,-0.9919,-0.9803,-0.9893,-1.0046,-1.0322,-1.0604,-1.0879,0.0,0.0,0.0,0.0,0.0,0.0,0.0,0.0,0.0,0.0,0.0,0.0,0.0,0.0,0.0,0.0,0.0,0.0,0.0,0.0,0.0,0.0,0.0,0.0,0.0,0.0,0.0,0.0,0.0,0.0,0.0,0.0,0.0,0.0,0.0,0.0,0.0,0.0,0.0,0.0,-0.8555,-0.8632,-0.8643,0.0,0.0,0.0,0.0,0.0,0.0,-0.9226,-0.9437,0.0,0.0,0.0,0.0,0.0,0.0,0.0,0.0,0.0,0.0,0.0,0.0,0.0,0.0,0.0,0.0,0.0,0.0,0.0,0.0,0.0,0.0,0.0,0.0,0.0,0.0,0.0,0.0,0.0,0.0,0.0,0.0,0.0,0.0,0.0,0.0,0.0,0.0,0.0,0.0,0.0,0.0,0.0,0.0,0.0,0.0,0.0,0.0,0.0,0.0,0.0,0.0,0.0,0.0,0.0,-0.9712,-0.9383,-0.9195,-0.9151,-0.9274,-0.9489,-0.9764,-1.0147,-1.0471,0.0,0.0,0.0,0.0,0.0,0.0,0.0,0.0,0.0,0.0,0.0,0.0,0.0,0.0,0.0,0.0,0.0,0.0,0.0,0.0,0.0,0.0,0.0,0.0,0.0,0.0,0.0,0.0,0.0,0.0,0.0,0.0,0.0,0.0,0.0,0.0,0.0,0.0,0.0,0.0,0.0,-0.8459,-0.8262,-0.8242,0.0,0.0,0.0,0.0,-0.861,-0.8945,0.0,0.0,0.0,0.0,0.0,0.0,0.0,0.0,0.0,0.0,0.0,0.0,0.0,0.0,0.0,0.0,0.0,0.0,0.0,0.0,0.0,0.0,0.0,0.0,0.0,0.0,0.0,0.0,0.0,0.0,0.0,0.0,0.0,0.0,0.0,0.0,0.0,0.0,0.0,0.0,0.0,0.0,0.0,0.0,0.0,0.0,0.0,0.0,0.0,0.0,0.0,0.0,0.0,0.0,0.0,0.0,-0.9037,-0.8814,-0.867,-0.8611,-0.8715,-0.8978,-0.9354,-0.9646,-0.997,0.0,0.0,0.0,0.0,0.0,0.0,0.0,0.0,0.0,0.0,0.0,0.0,0.0,0.0,0.0,0.0,0.0,0.0,0.0,0.0,0.0,0.0,0.0,0.0,0.0,0.0,0.0,0.0,0.0,0.0,0.0,0.0,0.0,0.0,0.0,0.0,0.0,0.0,0.0,0.0,0.0,-0.7884,-0.7655,-0.7703,-0.7745,0.0,0.0,-0.7995,-0.8002,-0.8479,0.0,0.0,0.0,0.0,0.0,0.0,0.0,0.0,0.0,0.0,0.0,0.0,0.0,0.0,0.0,0.0,0.0,0.0,0.0,0.0,0.0,0.0,0.0,0.0,0.0,0.0,0.0,0.0,0.0,0.0,0.0,0.0,0.0,0.0,0.0,0.0,0.0,0.0,0.0,0.0,0.0,0.0,0.0,0.0,0.0,0.0,0.0,0.0,0.0,0.0,0.0,0.0,0.0,0.0,0.0,-0.9168,-0.8756,-0.8789,-0.8699,-0.8457,-0.8847,-0.9091,-0.9244,-0.9472,-0.9762,0.0,0.0,0.0,0.0,0.0,0.0,0.0,0.0,0.0,0.0,0.0,0.0,0.0,0.0,0.0,0.0,0.0,0.0,0.0,0.0,0.0,0.0,0.0,0.0,0.0,0.0,0.0,0.0,0.0,0.0,0.0,0.0,0.0,0.0,0.0,0.0,0.0,0.0,0.0,0.0,0.0,0.0,-0.6912,-0.7017,0.0,0.0,0.0,-0.7567,-0.7567,0.0,0.0,0.0,0.0,0.0,0.0,0.0,0.0,0.0,0.0,0.0,0.0,0.0,0.0,0.0,0.0,0.0,0.0,0.0,0.0,0.0,0.0,0.0,0.0,0.0,0.0,0.0,0.0,0.0,0.0,0.0,0.0,0.0,0.0,0.0,0.0,0.0,0.0,0.0,0.0,0.0,0.0,0.0,0.0,0.0,0.0,0.0,0.0,0.0,0.0,0.0,0.0,0.0,0.0,0.0,0.0,0.0,-0.8916,-0.9075,-0.8998,-0.8725,-0.9068,-0.9278,-0.9306,-0.9397,0.0,0.0,0.0,0.0,0.0,0.0,0.0,0.0,0.0,0.0,0.0,0.0,0.0,0.0,0.0,0.0,0.0,0.0,0.0,0.0,0.0,0.0,0.0,0.0,0.0,0.0,0.0,-0.7212,0.0,0.0,0.0,0.0,0.0,0.0,0.0,0.0,0.0,0.0,0.0,0.0,0.0,0.0,-0.639,-0.6199,-0.6292,-0.6388,0.0,0.0,-0.6966,-0.7014,-0.7501,-0.7859,0.0,0.0,0.0,0.0,0.0,0.0,0.0,0.0,0.0,0.0,0.0,0.0,0.0,0.0,0.0,0.0,0.0,0.0,0.0,0.0,0.0,0.0,0.0,0.0,0.0,0.0,0.0,0.0,0.0,0.0,0.0,0.0,0.0,0.0,0.0,0.0,0.0,0.0,0.0,0.0,0.0,0.0,0.0,0.0,0.0,0.0,0.0,0.0,0.0,0.0,0.0,0.0,0.0,0.0,0.0,-0.9745,-0.9619,-0.9553,-0.9501,-0.9261,-0.9286,-0.9641,-0.9436,-0.946,0.0,0.0,0.0,0.0,0.0,0.0,0.0,0.0,0.0,0.0,0.0,0.0,0.0,0.0,0.0,0.0,0.0,0.0,0.0,0.0,0.0,0.0,0.0,0.0,0.0,0.0,0.0,0.0,0.0,0.0,0.0,0.0,0.0,0.0,0.0,0.0,0.0,0.0,0.0,0.0,0.0,-0.5559,-0.5474,-0.5463,-0.5521,0.0,0.0,-0.5994,-0.6234,-0.6776,-0.7199,-0.7337,0.0,0.0,0.0,0.0,0.0,0.0,0.0,0.0,0.0,0.0,0.0,0.0,0.0,0.0,0.0,0.0,0.0,0.0,0.0,0.0,0.0,0.0,0.0,0.0,0.0,0.0,0.0,0.0,0.0,0.0,0.0,0.0,0.0,0.0,0.0,0.0,0.0,0.0,0.0,0.0,0.0,0.0,0.0,0.0,0.0,0.0,0.0,0.0,0.0,0.0,0.0,0.0,0.0,-1.0371,-0.9988,-1.0084,-1.0078,-0.9917,-1.0141,-1.012,-0.983,-0.9859,-0.9779,0.0,0.0,0.0,0.0,0.0,0.0,0.0,0.0,0.0,0.0,0.0,0.0,0.0,0.0,0.0,0.0,0.0,0.0,0.0,0.0,0.0,0.0,0.0,0.0,0.0,0.0,0.0,0.0,-0.7594,-0.7505,-0.7575,0.0,0.0,0.0,0.0,0.0,0.0,0.0,0.0,0.0,0.0,-0.4985,-0.4809,-0.496,0.0,0.0,-0.5523,-0.5837,-0.5946,-0.6355,-0.668,-0.6733,-0.6935,0.0,0.0,0.0,0.0,0.0,0.0,0.0,0.0,0.0,0.0,0.0,0.0,0.0,0.0,0.0,0.0,0.0,0.0,0.0,0.0,0.0,0.0,0.0,0.0,0.0,0.0,0.0,0.0,0.0,0.0,0.0,0.0,0.0,0.0,0.0,0.0,0.0,0.0,0.0,0.0,0.0,0.0,0.0,0.0,0.0,0.0,0.0,0.0,0.0,0.0,0.0,0.0,-1.0976,-1.0665,-1.0782,-1.0768,-1.0575,-1.0905,-1.077,-1.0174,-1.0185,-1.0052,0.0,0.0,0.0,0.0,0.0,0.0,0.0,0.0,0.0,0.0,0.0,0.0,0.0,0.0,0.0,0.0,0.0,0.0,0.0,0.0,0.0,0.0,0.0,0.0,0.0,0.0,0.0,0.0,-0.7931,-0.7711,-0.7516,0.0,0.0,0.0,0.0,0.0,0.0,0.0,0.0,0.0,0.0,-0.449,-0.43,-0.4531,-0.4736,-0.4763,-0.5199,-0.5555,-0.5645,-0.5968,-0.6257,-0.6313,0.0,0.0,0.0,0.0,0.0,0.0,0.0,0.0,0.0,0.0,0.0,0.0,0.0,0.0,0.0,0.0,0.0,0.0,0.0,0.0,0.0,0.0,0.0,0.0,0.0,0.0,0.0,0.0,0.0,0.0,-1.7216,0.0,0.0,0.0,0.0,0.0,0.0,0.0,0.0,0.0,0.0,0.0,0.0,0.0,0.0,0.0,0.0,0.0,0.0,0.0,0.0,0.0,0.0,-1.2164,-1.1857,-1.1689,-1.1649,-1.1616,-1.135,-1.1035,-1.0696,-1.037,-1.0187,-1.0096,0.0,0.0,0.0,0.0,0.0,0.0,0.0,0.0,0.0,0.0,0.0,0.0,0.0,0.0,0.0,0.0,0.0,0.0,0.0,0.0,0.0,0.0,0.0,0.0,0.0,0.0,-0.8567,-0.8342,-0.8095,0.0,0.0,0.0,0.0,0.0,0.0,0.0,0.0,0.0,0.0,-0.4187,-0.4031,-0.4027,-0.4135,-0.4311,-0.4494,-0.477,-0.5018,-0.5282,-0.5619,-0.5871,0.0,0.0,0.0,0.0,0.0,0.0,0.0,0.0,0.0,0.0,0.0,0.0,0.0,0.0,0.0,0.0,0.0,0.0,0.0,0.0,0.0,0.0,0.0,0.0,0.0,0.0,0.0,-1.6517,-1.6546,0.0,0.0,0.0,0.0,0.0,0.0,0.0,0.0,0.0,0.0,0.0,-1.6053,-1.5782,0.0,0.0,0.0,0.0,0.0,0.0,0.0,0.0,0.0,0.0,0.0,0.0,-1.2233,-1.1906,-1.1782,-1.1738,-1.1826,-1.1719,-1.1502,-1.1178,-1.1146,-1.0947,-1.0579,0.0,0.0,0.0,0.0,0.0,0.0,0.0,0.0,0.0,0.0,0.0,0.0,0.0,0.0,0.0,0.0,0.0,0.0,0.0,0.0,0.0,0.0,0.0,0.0,0.0,-0.8698,0.0,0.0,0.0,0.0,0.0,0.0,0.0,0.0,0.0,0.0,0.0,-0.4652,-0.4421,-0.4247,-0.4109,-0.4018,-0.4298,-0.4555,0.0,0.0,0.0,0.0,0.0,0.0,0.0,0.0,0.0,0.0,0.0,0.0,0.0,0.0,-0.7238,-0.6928,-0.6629,-0.637,-0.6157,0.0,0.0,0.0,0.0,0.0,0.0,0.0,0.0,0.0,0.0,0.0,0.0,0.0,0.0,-1.5962,0.0,-1.5822,0.0,0.0,0.0,0.0,0.0,0.0,0.0,0.0,-1.6064,-1.5979,-1.6046,-1.5826,-1.5573,0.0,-1.4916,-1.4608,0.0,0.0,0.0,0.0,0.0,0.0,0.0,0.0,-1.2186,-1.1925,-1.18,-1.1793,-1.1874,-1.1895,-1.1724,-1.1359,-1.1404,-1.1287,-1.0946,-1.1097,-1.1357,0.0,0.0,0.0,0.0,0.0,0.0,0.0,0.0,0.0,0.0,0.0,0.0,0.0,0.0,0.0,0.0,0.0,0.0,0.0,0.0,0.0,0.0,0.0,-0.8937,0.0,0.0,0.0,0.0,0.0,0.0,0.0,0.0,0.0,-0.5639,-0.522,-0.4886,-0.4669,-0.4542,-0.4411,-0.4273,0.0,0.0,0.0,0.0,0.0,0.0,0.0,-0.6306,-0.6306,-0.6458,-0.6604,-0.6661,-0.6917,-0.72,-0.7535,0.0,0.0,-0.7078,-0.6747,-0.6419,-0.6134,-0.5789,-0.5487,-0.5339,-0.5036,-0.4793,0.0,0.0,0.0,0.0,0.0,0.0,0.0,0.0,-1.5909,-1.5625,0.0,-1.5206,0.0,0.0,0.0,0.0,0.0,-1.6651,0.0,0.0,-1.6091,-1.5793,-1.5452,-1.5325,-1.5146,-1.4927,-1.4856,-1.4734,-1.4582,-1.3869,0.0,0.0,0.0,0.0,0.0,0.0,-1.2125,-1.1925,-1.1848,-1.1815,-1.1812,-1.184,-1.1676,-1.1245,-1.1211,-1.1211,-1.124,-1.163,-1.1891,-1.1898,-1.209,0.0,0.0,0.0,0.0,0.0,0.0,0.0,0.0,0.0,0.0,0.0,0.0,0.0,0.0,0.0,0.0,0.0,0.0,0.0,0.0,-0.9386,0.0,0.0,0.0,0.0,0.0,0.0,0.0,0.0,0.0,0.0,-0.6037,-0.5699,-0.5404,-0.5183,0.0,0.0,0.0,0.0,-0.5381,-0.5248,-0.5778,-0.6237,-0.6237,-0.6511,-0.6719,-0.6692,0.0,0.0,-0.7199,-0.7391,-0.7549,-0.7699,-0.7731,-0.7626,-0.7448,-0.7038,-0.6577,-0.6193,-0.5742,-0.5358,-0.5141,-0.4928,-0.4673,-1.646,0.0,0.0,0.0,0.0,-1.6319,-1.5973,-1.5442,-1.5496,-1.5434,-1.5296,-1.5437,0.0,0.0,0.0,0.0,0.0,0.0,-1.6207,-1.6269,-1.612,-1.6086,-1.6169,-1.5994,-1.5847,-1.5675,-1.5182,-1.4876,-1.4713,-1.4053,-1.3814,-1.4041,0.0,0.0,0.0,0.0,-1.2819,-1.2342,-1.2177,-1.1976,-1.1719,-1.1615,-1.1501,-1.1421,-1.1428,-1.1446,-1.1545,-1.1697,-1.1771,-1.1815,-1.2023,0.0,0.0,0.0,0.0,0.0,0.0,0.0,0.0,0.0,0.0,0.0,0.0,0.0,0.0,0.0,0.0,0.0,0.0,0.0,-0.9174,-0.9053,-0.9001,0.0,0.0,0.0,0.0,0.0,0.0,0.0,0.0,0.0,-0.6929,-0.6237,-0.5777,0.0,0.0,-0.5504,-0.5371,-0.5772,-0.6032,-0.5858,-0.6311,0.0,-0.6683,-0.6888,-0.7053,-0.7053,-0.7298,-0.7531,-0.7722,-0.7917,-0.8004,-0.8047,-0.7982,-0.7832,-0.7621,-0.7182,-0.6739,-0.637,-0.6008,-0.5654,-0.5363,-0.5039,-0.4806,-1.6416,-1.6779,-1.6584,-1.6338,-1.6048,-1.6036,-1.5762,-1.5316,-1.5336,-1.5286,-1.519,-1.5278,-1.5484,-1.5762,-1.6152,0.0,0.0,0.0,-1.6297,-1.6384,-1.6276,-1.6204,-1.6228,-1.61,-1.5925,-1.5702,-1.5316,-1.4988,-1.478,-1.4349,-1.4221,-1.4327,0.0,0.0,-1.3438,-1.3223,-1.2934,-1.2546,-1.2238,-1.2001,-1.1787,-1.1481,-1.1335,-1.1378,-1.1415,-1.1493,-1.1571,-1.1608,-1.1645,-1.1682,-1.208,-1.2301,0.0,0.0,0.0,0.0,0.0,0.0,0.0,0.0,0.0,0.0,0.0,-1.1737,0.0,0.0,0.0,0.0,-0.9674,-0.9304,-0.8956,-0.9004,0.0,0.0,0.0,0.0,0.0,0.0,0.0,-0.8108,-0.7779,-0.7506,-0.7444,-0.6913,-0.6501,-0.6448,-0.6349,-0.6269,-0.6165,0.0,-0.6775,-0.6555,-0.6899,-0.7209,-0.7138,-0.7232,-0.733,-0.74,-0.7629,-0.7927,-0.8149,-0.8247,-0.8339,-0.8371,-0.8209,-0.7954,-0.7727,-0.7274,-0.6778,-0.6383,-0.6086,-0.5789,-0.5462,-0.5196,-0.506,-1.6397,-1.6244,-1.598,-1.5842,-1.5792,-1.5891,-1.5709,-1.5342,-1.5459,-1.527,-1.4878,-1.4944,-1.5299,-1.5863,-1.6561,0.0,-1.6846,-1.6723,-1.6582,-1.6457,-1.6383,-1.6166,-1.578,-1.5782,-1.557,-1.5289,-1.5244,-1.5063,-1.4674,-1.4651,-1.4535,-1.4351,-1.3597,-1.3167,-1.3072,-1.2871,-1.2722,-1.2637,-1.2202,-1.1927,-1.1853,-1.1418,-1.1166,-1.1176,-1.1309,-1.1384,-1.1384,-1.1459,-1.1504,-1.1533,-1.2193,-1.2566,-1.2505,0.0,0.0,0.0,0.0,0.0,0.0,0.0,0.0,0.0,0.0,0.0,0.0,0.0,0.0,0.0,-0.9329,0.0,-0.8987,-0.9133,0.0,0.0,0.0,-0.9005,-0.9061,-0.8691,-0.8446,-0.8369,0.0,0.0,-0.7696,-0.7595,-0.744,-0.7192,-0.7139,-0.7084,-0.702,-0.725,-0.7431,-0.7145,-0.7415,-0.7596,-0.7396,-0.7396,-0.7493,-0.7694,-0.7889,-0.8117,-0.8447,-0.8511,-0.8608,-0.8738,-0.8344,-0.7922,-0.7731,-0.7269,-0.6749,-0.6313,-0.605,-0.5789,-0.5491,-0.5359,-0.5292,-1.6954,-1.6844,-1.6643,-1.6185,-1.557,-1.5503,-1.5454,-1.5457,-1.56,-1.5584,-1.5507,-1.5666,-1.5877,-1.6111,-1.6407,-1.647,-1.6374,-1.6436,-1.6284,-1.5957,-1.5947,-1.5814,-1.5558,-1.5356,-1.5233,-1.5131,-1.4891,-1.4662,-1.4466,-1.4267,-1.408,-1.3941,-1.3556,-1.3508,-1.3749,-1.3508,-1.3205,-1.2816,-1.2668,-1.2242,-1.1552,-1.1157,-1.0987,-1.0957,-1.1101,-1.1195,-1.1241,-1.1365,-1.1496,-1.1656,-1.2174,-1.2446,-1.2516,-1.2883,0.0,0.0,0.0,0.0,0.0,0.0,0.0,0.0,0.0,-1.1777,-1.1027,0.0,-1.0166,0.0,-0.9065,-0.8799,-0.8691,-0.8626,0.0,0.0,-0.8753,-0.8688,-0.8851,-0.8502,-0.8199,-0.8023,-0.7863,-0.7729,-0.7696,-0.7756,-0.7794,-0.7708,-0.7547,-0.7322,-0.7122,-0.7313,-0.7345,-0.7042,-0.7148,-0.7265,-0.7106,-0.7171,-0.7428,-0.7852,-0.8047,-0.8274,-0.8673,-0.8711,-0.8738,-0.877,-0.8344,-0.7959,-0.7727,-0.7269,-0.6815,-0.6416,-0.6123,-0.5793,-0.5462,-0.5292,-0.519,-1.7561,-1.7386,-1.7064,-1.6607,-1.608,-1.5986,-1.6092,-1.622,-1.6042,-1.5993,-1.6015,-1.6072,-1.6128,-1.6232,-1.6517,-1.6626,-1.6569,-1.6649,-1.6557,-1.6325,-1.6267,-1.6174,-1.5963,-1.5509,-1.5208,-1.5091,-1.4587,-1.4244,-1.4046,-1.3834,-1.3668,-1.3539,-1.3368,-1.3392,-1.3604,-1.3501,-1.3287,-1.3042,-1.2871,-1.2372,-1.1532,-1.1344,-1.1174,-1.0997,-1.1139,-1.1252,-1.129,-1.144,-1.1699,-1.2011,-1.2516,-1.2871,-1.3021,-1.3276,-1.3356,0.0,0.0,0.0,0.0,0.0,0.0,0.0,0.0,0.0,0.0,0.0,-0.9626,-0.8928,-0.8716,-0.8594,-0.848,-0.8483,-0.8564,-0.8746,-0.8525,-0.8384,-0.8396,-0.815,-0.7922,-0.7735,-0.7655,-0.7643,-0.7696,-0.7756,-0.7842,-0.7901,-0.7735,-0.7555,-0.75,-0.7627,-0.7559,-0.7157,-0.7221,-0.7265,-0.7073,-0.7138,-0.7368,-0.7889,-0.8182,-0.8474,-0.8829,-0.8894,-0.8894,-0.8829,-0.8436,-0.7982,-0.7764,-0.7433,-0.704,-0.6646,-0.6383,-0.6119,-0.5727,-0.5524,-0.5488,-1.8199,-1.7932,-1.7532,-1.7232,-1.7047,-1.7022,-1.7076,-1.7096,-1.6586,-1.6374,-1.6373,-1.6174,-1.6115,-1.6209,-1.6642,-1.6863,-1.6934,-1.6946,-1.6946,-1.6921,-1.6796,-1.6625,-1.6409,-1.5757,-1.5266,-1.4947,-1.4259,-1.3821,-1.3573,-1.3443,-1.33,-1.318,-1.3123,-1.3085,-1.3085,-1.3142,-1.318,-1.3194,-1.2922,-1.2445,-1.1788,-1.1724,-1.1563,-1.1255,-1.1341,-1.1421,-1.1451,-1.1608,-1.1941,-1.2396,-1.2957,-1.3395,-1.3663,-1.3728,-1.3549,0.0,-1.2569,0.0,0.0,0.0,0.0,0.0,0.0,0.0,0.0,-0.9385,-0.8827,-0.8256,-0.8331,-0.836,-0.8265,-0.8378,-0.8468,-0.8468,-0.8215,-0.7996,-0.7818,-0.7696,-0.7568,-0.7461,-0.7467,-0.7494,-0.7622,-0.767,-0.7756,-0.7815,-0.7756,-0.7713,-0.78,-0.7828,-0.7682,-0.7387,-0.7374,-0.726,-0.7171,-0.7138,-0.7335,-0.7889,-0.8279,-0.8608,-0.8952,-0.9017,-0.9017,-0.8952,-0.8592,-0.8144,-0.7824,-0.7629,-0.7363,-0.6937,-0.6839,-0.6642,-0.6119,-0.5958,-0.5958,-1.9078,-1.8933,-1.8732,-1.8567,-1.841,-1.8292,-1.7681,-1.6711,-1.6716,-1.6535,-1.6197,-1.5695,-1.5672,-1.6044,-1.6029,-1.6233,-1.6589,-1.66,-1.6562,-1.6521,-1.6471,-1.6131,-1.5552,-1.5295,-1.4836,-1.4206,-1.3852,-1.3597,-1.3443,-1.3248,-1.3138,-1.3113,-1.3002,-1.2929,-1.2929,0.0,0.0,0.0,-1.2812,-1.265,-1.2636,-1.2017,-1.177,-1.1894,-1.1624,0.0,-1.1656,-1.1719,-1.2005,-1.2455,-1.2896,0.0,0.0,0.0,0.0,0.0,0.0,0.0,0.0,0.0,0.0,0.0,-1.0019,-0.9761,-0.9507,-0.8824,-0.8345,-0.8215,-0.809,-0.801,-0.799,-0.7827,-0.7702,-0.7702,-0.7461,-0.73,-0.7246,-0.7139,-0.7063,-0.7166,-0.7166,-0.7225,-0.7386,-0.7568,-0.7696,-0.7729,-0.7696,-0.7666,-0.7583,-0.7477,-0.7302,-0.709,-0.6999,-0.6892,-0.6946,-0.6975,-0.7241,-0.7824,-0.8284,-0.8608,-0.892,-0.9145,-0.9177,-0.9049,-0.87,-0.8376,-0.8144,-0.7884,-0.7596,-0.7396,-0.7358,-0.7134,-0.6449,-0.6321,-0.6321,-1.942,0.0,-1.917,-1.8984,0.0,-1.8679,-1.808,-1.7254,-1.7131,-1.6627,-1.583,-1.5531,-1.5531,-1.5758,-1.6221,-1.6522,-1.6749,-1.6931,-1.6965,-1.6923,-1.6536,-1.6242,-1.5996,-1.5142,-1.4602,-1.4358,-1.3679,-1.3306,-1.3248,-1.3075,-1.3002,-1.3002,-1.2929,-1.2915,-1.2915,-1.2915,-1.2968,-1.3152,-1.2969,-1.2935,-1.2995,-1.2667,-1.2478,-1.2439,-1.2053,0.0,0.0,0.0,0.0,0.0,0.0,0.0,0.0,-1.3557,0.0,-1.2696,-1.2236,-1.1733,-1.1124,-1.0668,-1.0097,-0.9444,-0.8817,-0.8567,-0.8784,-0.8209,-0.7848,-0.7768,-0.7595,-0.7509,-0.7503,-0.7327,-0.7198,-0.7203,-0.7031,-0.6918,-0.6896,-0.6842,-0.6847,-0.6982,-0.6982,-0.709,-0.7257,-0.7419,-0.7542,-0.767,-0.7568,-0.7515,-0.749,-0.74,-0.7242,-0.7058,-0.68,-0.6759,-0.6985,-0.7138,-0.7363,-0.7922,-0.8349,-0.87,-0.8958,-0.9177,-0.9274,-0.9145,-0.8861,-0.8576,-0.8376,-0.8144,-0.7884,-0.7792,-0.7754,-0.7657,-0.7232,-0.6975,-0.6778,-1.9565,-1.942,-1.9302,-1.9064,-1.8825,-1.8679,-1.8306,-1.7809,0.0,0.0,0.0,-1.5354,-1.5332,-1.5441,-1.6232,-1.6643,-1.6728,-1.6971,-1.7104,-1.7082,-1.6407,-1.6181,-1.6261,-1.4956,-1.4343,-1.4414,-1.3496,-1.31,-1.3086,-1.2998,-1.2978,-1.3031,-1.3031,-1.3056,-1.3071,-1.3071,-1.3145,-1.329,-1.3234,-1.3212,-1.3242,-1.3283,-1.3193,-1.2936,-1.2552,-1.2547,-1.2909,-1.2661,-1.2871,-1.3553,-1.3431,-1.3385,-1.3426,-1.3064,-1.2589,-1.1943,-1.1476,-1.0889,-1.0115,-0.9806,-0.9302,-0.8527,-0.7744,-0.7482,-0.7981,-0.7601,-0.7333,-0.7203,-0.7063,-0.7004,-0.7004,-0.6842,-0.6744,-0.6771,-0.6652,-0.6566,-0.6598,-0.6598,-0.6657,-0.6771,-0.6847,-0.6933,-0.7176,-0.729,-0.7365,-0.7542,-0.744,-0.7311,-0.7393,-0.7372,-0.7247,-0.6983,-0.6758,-0.6751,-0.704,-0.7232,-0.7527,-0.7901,-0.8399,-0.8779,-0.8979,-0.9177,-0.9306,-0.93,-0.9055,-0.8835,-0.8641,-0.8474,-0.8306,-0.8177,-0.8149,-0.8117,-0.8052,-0.7694,-0.7363,-1.9708,-1.9565,-1.942,-1.921,-1.8946,-1.8694,-1.8209,-1.7473,-1.6584,-1.603,-1.569,-1.4773,-1.4605,-1.4996,-1.5003,-1.5232,-1.5618,-1.5626,-1.5595,-1.5605,-1.5374,-1.5018,-1.4563,-1.4332,-1.3826,-1.319,-1.2978,-1.2992,-1.309,-1.3068,-1.3242,-1.3529,-1.3586,-1.3647,-1.3744,-1.377,-1.3727,-1.362,-1.3336,-1.3355,-1.3692,-1.3441,-1.3365,-1.3455,-1.3137,-1.3001,-1.3068,-1.3012,-1.3095,-1.3254,-1.3141,-1.3022,-1.2904,-1.2511,-1.1981,-1.1225,-1.0762,-1.0244,-0.9562,-0.9256,-0.8791,-0.8062,-0.7461,-0.7166,-0.7246,-0.6999,-0.6815,-0.6788,-0.6625,-0.6566,-0.6701,-0.6381,-0.6196,-0.6287,-0.6196,-0.6082,-0.6136,-0.6223,-0.6337,-0.649,-0.6625,-0.6793,-0.696,-0.7149,-0.7311,-0.7338,-0.7338,-0.7284,-0.7204,-0.7201,-0.7048,-0.6716,-0.6691,-0.6773,-0.6913,-0.6885,-0.7256,-0.7835,-0.8241,-0.8631,-0.8956,-0.9247,-0.9408,-0.9306,-0.9247,-0.9145,-0.8952,-0.892,-0.8797,-0.8668,-0.8635,-0.8603,-0.8447,-0.8177,-0.7977,-1.9773,-1.9682,-1.9486,-1.9277,-1.9054,-1.8467,-1.775,-1.6944,-1.6016,-1.5547,-1.5352,-1.4427,-1.4068,-1.4208,-1.4387,-1.4583,-1.4828,-1.4951,-1.5039,-1.4992,-1.464,-1.4379,-1.4182,-1.3716,-1.3318,-1.2993,-1.2782,-1.2698,-1.277,-1.2789,-1.2972,-1.3344,-1.3589,-1.3757,-1.389,-1.388,-1.382,-1.3704,-1.3611,-1.3602,-1.3692,-1.3634,-1.3644,-1.3805,-1.3443,-1.3292,-1.3473,-1.3182,-1.3047,-1.3176,-1.2869,-1.2579,-1.231,-1.1767,-1.1158,-1.0507,-0.9994,-0.9536,-0.8988,-0.8474,-0.8049,-0.7708,-0.7252,-0.6955,-0.6891,-0.6598,-0.644,-0.6413,-0.6223,-0.6114,-0.6196,-0.6032,-0.5927,-0.5987,-0.5927,-0.5927,-0.5978,-0.6032,-0.6168,-0.6354,-0.6571,-0.6766,-0.6879,-0.7063,-0.7225,-0.7284,-0.7284,-0.7252,-0.7112,-0.7144,-0.71,-0.6909,-0.688,-0.6964,-0.7052,-0.7151,-0.7391,-0.7835,-0.8275,-0.8655,-0.8965,-0.928,-0.9446,-0.9408,-0.937,-0.9274,-0.9177,-0.9081,-0.899,-0.8958,-0.8926,-0.8829,-0.8705,-0.8511,-0.8247,-1.9798,-1.9773,-1.9512,-1.9277,-1.8977,-1.8151,-1.7324,-1.6518,-1.5603,-1.5064,-1.4799,-1.4011,-1.3586,-1.3546,-1.3895,-1.4039,-1.4101,-1.4292,-1.4393,-1.4363,-1.3887,-1.3704,-1.3779,-1.3124,-1.2849,-1.2897,-1.2597,-1.2478,-1.2529,-1.2538,-1.2745,-1.315,-1.3462,-1.3741,-1.3952,-1.3952,-1.3907,-1.3844,-1.3882,-1.3766,-1.3512,-1.3644,-1.3739,-1.3813,-1.3544,-1.3476,-1.3616,-1.3199,-1.2936,-1.2972,-1.2525,-1.2067,-1.1678,-1.1006,-1.0413,-0.9891,-0.9387,-0.8929,-0.8527,-0.7916,-0.7542,-0.7542,-0.7171,-0.6901,-0.6734,-0.6413,-0.6173,-0.6146,-0.5927,-0.5791,-0.5791,-0.574,-0.5686,-0.5763,-0.5763,-0.5818,-0.5923,-0.5973,-0.6087,-0.6332,-0.6544,-0.6734,-0.6847,-0.7009,-0.7139,-0.7225,-0.7257,-0.7198,-0.7139,-0.7106,-0.7144,-0.7151,-0.7056,-0.7028,-0.7196,-0.7274,-0.745,-0.774,-0.8215,-0.8553,-0.8814,-0.9163,-0.9408,-0.9408,-0.9408,-0.9344,-0.9344,-0.9247,-0.9151,-0.9151,-0.9055,-0.892,-0.8738,-0.8544,-0.8312,-1.9798,-1.9773,-1.9512,-1.9093,-1.8593,-1.7804,-1.7138,-1.6468,-1.5285,-1.447,-1.4043,-1.3478,-1.3242,-1.3242,-1.3302,-1.3308,-1.3308,-1.3286,-1.3273,-1.3258,-1.2949,-1.2812,-1.2864,-1.2641,-1.2474,-1.2398,-1.2351,-1.2442,-1.2628,-1.2683,-1.2888,-1.3249,-1.3304,-1.3571,-1.4017,-1.4054,-1.4129,-1.4222,-1.4034,-1.3688,-1.3278,-1.3372,-1.3443,-1.3443,-1.3545,-1.3474,-1.3266,-1.3072,-1.2817,-1.2412,-1.1968,-1.1553,-1.1015,-1.0413,-0.9891,-0.9484,-0.9087,-0.8672,-0.8275,-0.7889,-0.767,-0.767,-0.73,-0.7036,-0.6874,-0.6472,-0.6146,-0.6032,-0.5791,-0.5704,-0.5763,-0.5548,-0.5434,-0.5599,-0.5622,-0.5677,-0.5791,-0.5923,-0.6059,-0.62,-0.6522,-0.6707,-0.6761,-0.695,-0.7112,-0.7139,-0.7139,-0.7139,-0.7106,-0.7112,-0.7112,-0.7095,-0.6992,-0.6959,-0.6978,-0.6947,-0.7175,-0.744,-0.7861,-0.8259,-0.8573,-0.8977,-0.9306,-0.9306,-0.9408,-0.944,-0.944,-0.9446,-0.9446,-0.935,-0.9189,-0.8926,-0.8608,-0.8376,-0.8204,-1.9798,-1.9773,-1.9486,-1.9131,-1.8635,-1.7862,-1.7105,-1.6328,-1.5203,-1.4345,-1.372,-1.3319,-1.3104,-1.3021,-1.3031,-1.3031,-1.3007,-1.2992,-1.2978,-1.2954,-1.2774,-1.2661,-1.2578,-1.2455,-1.2298,-1.2209,-1.2175,-1.2233,-1.2383,-1.2579,-1.2781,-1.2955,-1.3194,-1.346,-1.3728,-1.3756,-1.3801,-1.392,-1.3841,-1.3566,-1.3196,-1.3125,-1.3104,-1.3113,-1.3162,-1.3104,-1.29,-1.2696,-1.2437,-1.2051,-1.1544,-1.0998,-1.0506,-0.9958,-0.9484,-0.9159,-0.8798,-0.8407,-0.8055,-0.7809,-0.7696,-0.7696,-0.7488,-0.7246,-0.7036,-0.6707,-0.6386,-0.6114,-0.5814,-0.5567,-0.5517,-0.538,-0.5321,-0.5407,-0.5513,-0.565,-0.5791,-0.5927,-0.6059,-0.62,-0.6495,-0.6707,-0.6734,-0.6923,-0.7085,-0.7106,-0.7106,-0.7106,-0.7106,-0.7106,-0.7106,-0.7079,-0.7031,-0.7031,-0.7031,-0.7031,-0.7202,-0.7548,-0.7872,-0.8173,-0.8583,-0.8862,-0.9113,-0.9113,-0.928,-0.9376,-0.937,-0.9446,-0.9478,-0.942,-0.9253,-0.8926,-0.8576,-0.8339,-0.8172,-1.9734,-1.9668,-1.9447,-1.9143,-1.87,-1.78,-1.6993,-1.623,-1.5135,-1.4235,-1.3641,-1.3354,-1.3138,-1.2992,-1.292,-1.2915,-1.2915,-1.2915,-1.2915,-1.2881,-1.2725,-1.2612,-1.248,-1.2323,-1.22,-1.2101,-1.2101,-1.2101,-1.2138,-1.2376,-1.2533,-1.2579,-1.2819,-1.3065,-1.3273,-1.3283,-1.3392,-1.3557,-1.349,-1.3274,-1.3016,-1.2798,-1.271,-1.2774,-1.2798,-1.2735,-1.2593,-1.2348,-1.2051,-1.1719,-1.1116,-1.059,-1.018,-0.9629,-0.9211,-0.8896,-0.8633,-0.8342,-0.8055,-0.7916,-0.7836,-0.783,-0.7676,-0.7461,-0.7219,-0.6972,-0.668,-0.6386,-0.6005,-0.5732,-0.5434,-0.538,-0.538,-0.5329,-0.5458,-0.565,-0.5791,-0.5923,-0.6059,-0.62,-0.649,-0.6734,-0.6815,-0.6977,-0.7112,-0.7106,-0.7106,-0.7106,-0.7106,-0.7106,-0.7106,-0.7106,-0.7106,-0.7112,-0.7106,-0.7112,-0.7295,-0.7553,-0.7843,-0.8146,-0.8598,-0.8777,-0.8926,-0.899,-0.9151,-0.9242,-0.9242,-0.9312,-0.9382,-0.9253,-0.9092,-0.8797,-0.8474,-0.8242,-0.7982,-1.9539,-1.9394,-1.9275,-1.9052,-1.8688,-1.7463,-1.6794,-1.6371,-1.5023,-1.4195,-1.3821,-1.3644,-1.3443,-1.3204,-1.3007,-1.2905,-1.2915,-1.2905,-1.2915,-1.2881,-1.2652,-1.2529,-1.248,-1.2258,-1.2135,-1.211,-1.2076,-1.2076,-1.211,-1.2128,-1.2128,-1.2156,-1.2236,-1.2393,-1.2722,-1.2778,-1.2945,-1.3257,-1.299,-1.2742,-1.2687,-1.2362,-1.2326,-1.248,-1.2529,-1.2455,-1.2323,-1.206,-1.1753,-1.1377,-1.0862,-1.0375,-1.004,-0.952,-0.9122,-0.8712,-0.8613,-0.854,-0.8387,-0.8248,-0.8168,-0.8141,-0.7889,-0.7643,-0.7521,-0.7246,-0.6999,-0.6701,-0.649,-0.6164,-0.5727,-0.5622,-0.5513,-0.5352,-0.5485,-0.5677,-0.5791,-0.5923,-0.6059,-0.6228,-0.6522,-0.6815,-0.7031,-0.7112,-0.7139,-0.7139,-0.7139,-0.7139,-0.7139,-0.7112,-0.7112,-0.7106,-0.7106,-0.7106,-0.7106,-0.7166,-0.7241,-0.7499,-0.7809,-0.7979,-0.8253,-0.8518,-0.8692,-0.8867,-0.9055,-0.9151,-0.9081,-0.9087,-0.9087,-0.9028,-0.8835,-0.8544,-0.8312,-0.7954,-0.7764,-1.9394,-1.9275,-1.9208,-1.8897,-1.8319,-1.7401,-1.6733,-1.6143,-1.5069,-1.4454,-1.4174,-1.3962,-1.3716,-1.3443,-1.3286,-1.3162,-1.3036,-1.2929,-1.2915,-1.2881,-1.2725,-1.2578,-1.2471,-1.2298,-1.2175,-1.2101,-1.2076,-1.2076,-1.2076,-1.2076,-1.215,-1.2234,-1.2234,-1.2358,-1.252,-1.2497,-1.2642,-1.2959,-1.2805,-1.2689,-1.268,-1.2551,-1.2409,-1.2268,-1.2249,-1.2224,-1.2184,-1.1927,-1.1644,-1.1427,-1.112,-1.0796,-1.0512,-1.0161,-0.9778,-0.9339,-0.9158,-0.8942,-0.8671,-0.8443,-0.8321,-0.8321,-0.8235,-0.8076,-0.7922,-0.7676,-0.7402,-0.7214,-0.6977,-0.6674,-0.6349,-0.6055,-0.5814,-0.5681,-0.5763,-0.5868,-0.595,-0.6037,-0.6168,-0.6359,-0.668,-0.7031,-0.7171,-0.7306,-0.7354,-0.7354,-0.7354,-0.7306,-0.7225,-0.7225,-0.7198,-0.7139,-0.7106,-0.7106,-0.7106,-0.7235,-0.7374,-0.7639,-0.7881,-0.8149,-0.8397,-0.8468,-0.8635,-0.8679,-0.8867,-0.899,-0.8926,-0.8958,-0.8958,-0.8867,-0.8646,-0.8409,-0.8149,-0.7922,-0.7759,-1.921,-1.9143,-1.9143,-1.8776,-1.8132,-1.7418,-1.6762,-1.608,-1.5199,-1.4708,-1.45,-1.4267,-1.4057,-1.381,-1.3668,-1.3454,-1.3244,-1.3051,-1.2964,-1.2964,-1.2783,-1.2652,-1.2554,-1.2431,-1.2323,-1.2249,-1.2224,-1.2234,-1.2224,-1.2224,-1.2274,-1.2382,-1.2382,-1.2406,-1.248,-1.2406,-1.2507,-1.2723,-1.2633,-1.2582,-1.2565,-1.265,-1.2569,-1.2367,-1.2422,-1.2422,-1.2303,-1.2058,-1.1977,-1.1904,-1.1671,-1.1309,-1.0942,-1.0639,-1.0279,-0.9884,-0.9546,-0.9239,-0.895,-0.8689,-0.8501,-0.8474,-0.8448,-0.8395,-0.8268,-0.8029,-0.7842,-0.7708,-0.7467,-0.7192,-0.695,-0.6625,-0.6277,-0.6032,-0.6059,-0.6141,-0.6136,-0.6277,-0.6436,-0.6657,-0.6928,-0.7203,-0.7338,-0.7467,-0.7542,-0.7542,-0.7568,-0.7515,-0.744,-0.7392,-0.7311,-0.7198,-0.7192,-0.7139,-0.715,-0.7262,-0.7483,-0.772,-0.7919,-0.8199,-0.8393,-0.8463,-0.8506,-0.8544,-0.8614,-0.8738,-0.8802,-0.8835,-0.8802,-0.8743,-0.8576,-0.8339,-0.8144,-0.7954,-0.7824,-1.9013,-1.9025,-1.9013,-1.8712,-1.8132,-1.748,-1.6847,-1.6209,-1.5452,-1.4949,-1.4731,-1.4627,-1.4454,-1.421,-1.4033,-1.3844,-1.3597,-1.3282,-1.3099,-1.3051,-1.2832,-1.271,-1.2676,-1.2554,-1.2505,-1.2505,-1.2505,-1.2505,-1.2495,-1.2505,-1.2505,-1.2495,-1.252,-1.2554,-1.2529,-1.2529,-1.2505,-1.2527,-1.2447,-1.2354,-1.2339,-1.2617,-1.275,-1.2778,-1.3065,-1.3128,-1.2787,-1.2603,-1.2599,-1.276,-1.2427,-1.186,-1.1288,-1.0926,-1.0552,-1.0264,-0.9806,-0.9466,-0.9232,-0.8951,-0.8745,-0.8685,-0.8626,-0.858,-0.8474,-0.8321,-0.8228,-0.8211,-0.7958,-0.7678,-0.7578,-0.7438,-0.7052,-0.6344,-0.6381,-0.6436,-0.6463,-0.6598,-0.6815,-0.7058,-0.7252,-0.7365,-0.7494,-0.7676,-0.7777,-0.7777,-0.7777,-0.775,-0.7729,-0.7655,-0.7494,-0.7365,-0.7344,-0.7344,-0.7291,-0.73,-0.7532,-0.7787,-0.7971,-0.8187,-0.8312,-0.8409,-0.8458,-0.8474,-0.8673,-0.877,-0.8861,-0.8861,-0.877,-0.8673,-0.8474,-0.8371,-0.8242,-0.8117,-0.7922,-1.9013,-1.9013,-1.9013,-1.8674,-1.8132,-1.7493,-1.6883,-1.6314,-1.5646,-1.5221,-1.4994,-1.496,-1.4777,-1.45,-1.4337,-1.4174,-1.3988,-1.3621,-1.333,-1.3133,-1.3002,-1.2881,-1.2725,-1.2652,-1.2627,-1.2652,-1.2725,-1.2783,-1.2774,-1.2774,-1.2798,-1.2847,-1.2798,-1.2832,-1.2881,-1.2735,-1.2652,-1.2627,-1.2505,-1.2553,-1.2808,-1.2943,-1.3114,-1.344,-1.3573,-1.3696,-1.3828,-1.325,-1.3005,-1.3177,-1.2993,-1.2709,-1.2319,-1.2076,-1.1715,-1.1179,-1.0588,-1.0137,-0.9812,-0.9384,-0.9068,-0.9028,-0.9028,-0.9001,-0.8949,-0.8831,-0.8784,-0.8834,-0.8709,-0.8573,-0.8523,-0.8492,-0.7993,-0.6927,-0.6842,-0.6917,-0.6939,-0.709,-0.7279,-0.7386,-0.7708,-0.7922,-0.8002,-0.8103,-0.8176,-0.8182,-0.8182,-0.8156,-0.8055,-0.8047,-0.7869,-0.7649,-0.7613,-0.7689,-0.7761,-0.7869,-0.8045,-0.811,-0.8171,-0.8209,-0.8331,-0.8386,-0.844,-0.8554,-0.8716,-0.8829,-0.8894,-0.8926,-0.8861,-0.8835,-0.8829,-0.8662,-0.8474,-0.8312,-0.8182,-1.9013,-1.9013,-1.9013,-1.8686,-1.8168,-1.7721,-1.7122,-1.6408,-1.6006,-1.5622,-1.5301,-1.5244,-1.5097,-1.4857,-1.491,-1.4713,-1.4359,-1.4182,-1.4,-1.3654,-1.3226,-1.3041,-1.29,-1.2886,-1.2876,-1.291,-1.3007,-1.3079,-1.3089,-1.3079,-1.3094,-1.3118,-1.3055,-1.3051,-1.3085,-1.2929,-1.2822,-1.2793,-1.2805,-1.2906,-1.3173,-1.3451,-1.3719,-1.4003,-1.4164,-1.4401,-1.462,-1.41,-1.3858,-1.3866,-1.3705,-1.3407,-1.3078,-1.2781,-1.2436,-1.1859,-1.1219,-1.0683,-1.0436,-0.9902,-0.9539,-0.9558,-0.9492,-0.9375,-0.9311,-0.9262,-0.9356,-0.9357,-0.9388,-0.9352,-0.9366,-0.9318,-0.8909,-0.8231,-0.7895,-0.7699,-0.7659,-0.7686,-0.7794,-0.7895,-0.8135,-0.8348,-0.8427,-0.8533,-0.8606,-0.8633,-0.8613,-0.8613,-0.8526,-0.8577,-0.8381,-0.8287,-0.8361,-0.8393,-0.836,-0.8479,-0.8592,-0.8528,-0.8448,-0.8409,-0.8432,-0.8459,-0.8504,-0.8745,-0.8926,-0.9055,-0.9119,-0.9204,-0.9172,-0.921,-0.921,-0.9049,-0.8888,-0.8727,-0.8598,-1.9013,-1.9013,-1.9013,-1.8722,-1.8289,-1.8193,-1.7566,-1.6669,-1.6467,-1.6148,-1.5749,-1.5704,-1.5531,-1.5418,-1.5727,-1.5492,-1.4894,-1.5,-1.499,-1.4577,-1.3983,-1.35,-1.3238,-1.3218,-1.3252,-1.3276,-1.3362,-1.3443,-1.3454,-1.3443,-1.342,-1.342,-1.33,-1.319,-1.3148,-1.3109,-1.3002,-1.2954,-1.3136,-1.3298,-1.3423,-1.4027,-1.443,-1.4478,-1.4782,-1.5002,-1.5099,-1.4944,-1.4924,-1.4883,-1.4385,-1.3957,-1.3511,-1.3072,-1.2674,-1.229,-1.1548,-1.1227,-1.099,-1.0562,-1.0215,-1.0255,-1.0037,-0.9792,-0.9729,-0.987,-0.9934,-0.9932,-1.003,-1.0111,-1.0094,-1.0064,-0.9928,-0.9836,-0.9215,-0.8737,-0.8477,-0.8348,-0.8344,-0.8414,-0.8553,-0.8659,-0.8778,-0.8929,-0.8982,-0.9001,-0.9008,-0.9041,-0.9144,-0.9194,-0.9158,-0.9166,-0.9214,-0.931,-0.935,-0.9415,-0.9531,-0.9557,-0.9328,-0.9138,-0.8873,-0.8815,-0.8816,-0.9053,-0.9247,-0.9338,-0.9434,-0.9594,-0.9652,-0.9684,-0.9652,-0.9492,-0.937,-0.921,-0.9049,-1.9013,-1.9013,-1.9013,-1.8915,-1.8722,-1.8386,-1.8036,-1.7687,-1.7303,-1.6979,-1.6753,-1.6765,-1.6622,-1.6583,-1.6482,-1.6346,-1.6096,-1.5925,-1.5816,-1.5705,-1.5394,-1.4472,-1.3734,-1.3586,-1.3644,-1.3644,-1.3729,-1.3844,-1.3844,-1.3821,-1.3763,-1.3692,-1.3549,-1.343,-1.3334,-1.3162,-1.3109,-1.3086,-1.3301,-1.3604,-1.3915,-1.4382,-1.4828,-1.5138,-1.5216,-1.5303,-1.5342,-1.5303,-1.5098,-1.4804,-1.4567,-1.421,-1.3761,-1.3368,-1.2972,-1.2504,-1.1971,-1.1562,-1.1448,-1.1186,-1.1012,-1.0994,-1.0845,-1.0705,-1.08,-1.0658,-1.069,-1.0783,-1.0953,-1.1018,-1.1147,-1.1122,-1.116,-1.1124,-1.0288,-0.9506,-0.9179,-0.9117,-0.9079,-0.8904,-0.8982,-0.9054,-0.9133,-0.9218,-0.9316,-0.9342,-0.9423,-0.9592,-0.9785,-1.0022,-1.0064,-1.0094,-1.0164,-1.0276,-1.0359,-1.0422,-1.0501,-1.0627,-1.0469,-1.0207,-0.9831,-0.9507,-0.9517,-0.9626,-0.9817,-0.9945,-1.0079,-1.0206,-1.0238,-1.0288,-1.0263,-1.0231,-0.9945,-0.9754,-0.953,-1.9052,-1.9078,-1.9078,-1.9105,-1.9121,-1.8818,-1.8564,-1.827,-1.798,-1.7617,-1.735,-1.7302,-1.7241,-1.7142,-1.7155,-1.6995,-1.6756,-1.661,-1.6572,-1.6532,-1.6369,-1.5513,-1.4456,-1.409,-1.3939,-1.3892,-1.3999,-1.408,-1.4057,-1.4044,-1.3949,-1.3844,-1.3692,-1.3515,-1.3324,-1.3214,-1.3089,-1.3111,-1.3463,-1.388,-1.4124,-1.4736,-1.5117,-1.5381,-1.541,-1.5381,-1.5332,-1.5254,-1.5108,-1.4872,-1.4656,-1.4359,-1.392,-1.3519,-1.3164,-1.2767,-1.2353,-1.2137,-1.2067,-1.1924,-1.1848,-1.1862,-1.1726,-1.1616,-1.1607,-1.1507,-1.1613,-1.1602,-1.1751,-1.1874,-1.1966,-1.1965,-1.2019,-1.1951,-1.139,-1.0675,-1.0024,-0.9826,-0.9648,-0.9455,-0.9401,-0.9472,-0.9524,-0.9603,-0.9681,-0.9814,-1.0019,-1.0246,-1.0466,-1.0745,-1.1025,-1.1123,-1.1305,-1.1487,-1.1645,-1.1721,-1.184,-1.1938,-1.1747,-1.145,-1.09,-1.0434,-1.0291,-1.0345,-1.0478,-1.0579,-1.0744,-1.087,-1.0965,-1.0996,-1.1028,-1.0902,-1.0611,-1.0453,-1.0199,-1.9078,-1.9208,-1.9208,-1.9275,-1.9394,-1.9382,-1.9034,-1.8579,-1.8481,-1.8163,-1.7773,-1.7604,-1.765,-1.7408,-1.779,-1.7606,-1.7105,-1.7301,-1.7319,-1.7213,-1.6984,-1.6221,-1.5143,-1.4592,-1.4281,-1.4078,-1.4129,-1.4152,-1.4116,-1.4033,-1.3986,-1.3915,-1.3726,-1.3501,-1.33,-1.3194,-1.3069,-1.3077,-1.3594,-1.3937,-1.4169,-1.477,-1.5235,-1.5284,-1.5313,-1.5216,-1.5108,-1.5029,-1.4941,-1.4911,-1.4775,-1.4419,-1.3971,-1.3549,-1.3216,-1.2989,-1.2712,-1.2612,-1.2718,-1.2584,-1.2664,-1.273,-1.2652,-1.2509,-1.2349,-1.2393,-1.2389,-1.2279,-1.2437,-1.2549,-1.2558,-1.2574,-1.2613,-1.2597,-1.2535,-1.2022,-1.118,-1.0554,-1.0193,-0.9877,-0.9851,-0.9929,-0.9999,-1.0076,-1.0162,-1.0306,-1.059,-1.095,-1.1314,-1.1712,-1.2003,-1.2263,-1.2473,-1.2753,-1.289,-1.3042,-1.3206,-1.3301,-1.3076,-1.2742,-1.2051,-1.1601,-1.1288,-1.1212,-1.132,-1.1397,-1.1459,-1.156,-1.1716,-1.1747,-1.1778,-1.1553,-1.1303,-1.1209,-1.1021,-1.8984,-1.9208,-1.9208,-1.9275,-1.9394,-1.942,-1.9321,-1.9172,-1.9066,-1.8893,-1.8792,-1.8678,-1.8602,-1.8562,-1.8527,-1.8495,-1.8201,-1.8127,-1.807,-1.7851,-1.7357,-1.6773,-1.5942,-1.5331,-1.471,-1.4307,-1.4176,-1.414,-1.4067,-1.3986,-1.3939,-1.3844,-1.3726,-1.3621,-1.3348,-1.3118,-1.3007,-1.2993,-1.3494,-1.3781,-1.3935,-1.4592,-1.5088,-1.5088,-1.5059,-1.4961,-1.4843,-1.4775,-1.4627,-1.4449,-1.441,-1.424,-1.3851,-1.348,-1.3216,-1.3019,-1.2875,-1.2783,-1.2842,-1.3072,-1.3292,-1.3293,-1.3299,-1.3243,-1.3414,-1.3153,-1.3092,-1.3045,-1.3105,-1.3117,-1.3125,-1.3111,-1.3141,-1.3155,-1.3108,-1.2753,-1.2012,-1.1368,-1.0825,-1.0365,-1.0195,-1.0239,-1.036,-1.0488,-1.0606,-1.0801,-1.1168,-1.1624,-1.2094,-1.2533,-1.2888,-1.3152,-1.3467,-1.3683,-1.3863,-1.4037,-1.423,-1.4302,-1.4156,-1.3958,-1.3269,-1.2716,-1.241,-1.2234,-1.2135,-1.2236,-1.2328,-1.2398,-1.2552,-1.2552,-1.249,-1.2274,-1.2081,-1.1996,-1.1716,-1.8958,-1.9196,-1.9249,-1.9368,-1.9486,-1.9565,-1.9512,-1.942,-1.9354,-1.9223,-1.9117,-1.9025,-1.9013,-1.8999,-1.8878,-1.8759,-1.8637,-1.8394,-1.8166,-1.7934,-1.756,-1.7062,-1.6365,-1.5658,-1.4922,-1.4221,-1.4046,-1.3939,-1.3834,-1.3739,-1.3668,-1.3586,-1.3501,-1.331,-1.3166,-1.2934,-1.2798,-1.2756,-1.3249,-1.3576,-1.3643,-1.4315,-1.4695,-1.4645,-1.4556,-1.4458,-1.427,-1.4181,-1.3932,-1.3731,-1.3731,-1.3791,-1.367,-1.3368,-1.3094,-1.2928,-1.2928,-1.2897,-1.3019,-1.3376,-1.3713,-1.3731,-1.3827,-1.3939,-1.4007,-1.3815,-1.3688,-1.3648,-1.3601,-1.361,-1.3549,-1.3536,-1.3558,-1.3489,-1.345,-1.3017,-1.2275,-1.1796,-1.1343,-1.0807,-1.059,-1.0641,-1.0744,-1.0845,-1.0972,-1.1158,-1.1506,-1.1944,-1.2595,-1.3056,-1.358,-1.3927,-1.4289,-1.4558,-1.4775,-1.4953,-1.5158,-1.5127,-1.5017,-1.4827,-1.444,-1.3955,-1.3502,-1.3339,-1.3147,-1.3186,-1.3277,-1.3354,-1.3324,-1.3255,-1.3164,-1.3003,-1.2797,-1.2582,-1.2212,-1.8931,-1.917,-1.9328,-1.9447,-1.9591,-1.9656,-1.9591,-1.942,-1.9394,-1.9237,-1.9052,-1.9013,-1.8999,-1.8946,-1.8851,-1.8718,-1.8464,-1.8275,-1.8057,-1.7804,-1.7562,-1.701,-1.6293,-1.5525,-1.4734,-1.3975,-1.3747,-1.3621,-1.3478,-1.3372,-1.331,-1.3252,-1.3079,-1.291,-1.2774,-1.2618,-1.2421,-1.2277,-1.2803,-1.3141,-1.3185,-1.3798,-1.4076,-1.4001,-1.3911,-1.3761,-1.358,-1.3428,-1.3216,-1.2881,-1.2858,-1.3011,-1.3094,-1.3072,-1.2858,-1.2744,-1.2797,-1.2867,-1.2989,-1.3437,-1.3851,-1.395,-1.4219,-1.4309,-1.4219,-1.4142,-1.4043,-1.3953,-1.3851,-1.3791,-1.3791,-1.3657,-1.3588,-1.3494,-1.3438,-1.2924,-1.2255,-1.1958,-1.1479,-1.1027,-1.0845,-1.0896,-1.1023,-1.115,-1.1301,-1.1513,-1.1843,-1.229,-1.2878,-1.3458,-1.3888,-1.4412,-1.4728,-1.5118,-1.5362,-1.5439,-1.5696,-1.5764,-1.569,-1.5568,-1.5429,-1.5228,-1.4764,-1.4313,-1.4142,-1.4151,-1.4121,-1.41,-1.407,-1.398,-1.3821,-1.3631,-1.3398,-1.3133,-1.2736,-1.8774,-1.9052,-1.917,-1.9328,-1.942,-1.9447,-1.9434,-1.9394,-1.9275,-1.9196,-1.9143,-1.904,-1.8919,-1.8839,-1.8825,-1.8583,-1.8247,-1.8057,-1.7865,-1.7551,-1.7224,-1.6697,-1.5947,-1.5159,-1.4304,-1.362,-1.3328,-1.3193,-1.3041,-1.3002,-1.2915,-1.2852,-1.2778,-1.2605,-1.2317,-1.2085,-1.1935,-1.1789,-1.218,-1.2387,-1.2519,-1.2869,-1.3213,-1.3169,-1.3108,-1.2956,-1.2758,-1.2666,-1.2513,-1.2197,-1.2166,-1.2135,-1.2143,-1.2266,-1.2336,-1.2428,-1.256,-1.2652,-1.2744,-1.3216,-1.3541,-1.3662,-1.389,-1.4079,-1.404,-1.401,-1.392,-1.3791,-1.367,-1.364,-1.3769,-1.3506,-1.3445,-1.3339,-1.2973,-1.2501,-1.2015,-1.1674,-1.1309,-1.0833,-1.0913,-1.1099,-1.1175,-1.1251,-1.1352,-1.1504,-1.1781,-1.2254,-1.2824,-1.3414,-1.3929,-1.4484,-1.505,-1.5468,-1.5884,-1.5902,-1.6024,-1.618,-1.6196,-1.6206,-1.6182,-1.6331,-1.6054,-1.54,-1.5001,-1.4913,-1.4893,-1.4843,-1.4686,-1.4567,-1.441,-1.4261,-1.3881,-1.3498,-1.3164,-1.8614,-1.8813,-1.8999,-1.9078,-1.9105,-1.9225,-1.921,-1.9078,-1.9011,-1.8958,-1.8893,-1.8813,-1.8759,-1.8706,-1.861,-1.834,-1.7975,-1.7799,-1.7534,-1.7145,-1.6765,-1.6324,-1.5622,-1.4824,-1.4022,-1.3349,-1.2954,-1.2651,-1.2438,-1.2576,-1.2496,-1.2366,-1.239,-1.2307,-1.1982,-1.1804,-1.1567,-1.1423,-1.1623,-1.1799,-1.1658,-1.2033,-1.2166,-1.2151,-1.2128,-1.1973,-1.1794,-1.174,-1.1615,-1.1428,-1.1404,-1.1303,-1.1272,-1.1341,-1.1553,-1.1872,-1.2151,-1.2375,-1.2498,-1.2942,-1.3277,-1.342,-1.3601,-1.3662,-1.367,-1.361,-1.3511,-1.339,-1.3329,-1.3238,-1.3255,-1.3011,-1.292,-1.2826,-1.2482,-1.1968,-1.1545,-1.1276,-1.0898,-1.0538,-1.0682,-1.0862,-1.115,-1.1251,-1.1352,-1.1531,-1.1737,-1.2139,-1.2645,-1.2968,-1.3365,-1.4031,-1.4532,-1.5023,-1.5444,-1.5605,-1.5754,-1.6032,-1.6343,-1.6392,-1.6508,-1.649,-1.6507,-1.6218,-1.5931,-1.5584,-1.5565,-1.5478,-1.5303,-1.5098,-1.4893,-1.4627,-1.424,-1.3851,-1.3459,-1.8356,-1.8479,-1.8721,-1.8759,-1.8706,-1.8869,-1.8854,-1.8679,-1.8664,-1.8598,-1.8518,-1.8479,-1.8479,-1.8425,-1.8236,-1.7947,-1.7518,-1.7357,-1.7022,-1.6542,-1.6179,-1.5796,-1.5206,-1.4487,-1.3624,-1.2889,-1.2422,-1.211,-1.1981,-1.2096,-1.2033,-1.1906,-1.1994,-1.186,-1.1523,-1.1208,-1.1092,-1.102,-1.11,-1.1152,-1.1073,-1.1093,-1.1142,-1.1038,-1.1045,-1.0982,-1.0818,-1.0787,-1.0699,-1.0579,-1.0516,-1.0485,-1.039,-1.0396,-1.0649,-1.1185,-1.1654,-1.1903,-1.212,-1.2459,-1.2728,-1.2842,-1.3086,-1.3078,-1.2986,-1.2834,-1.2787,-1.2704,-1.2642,-1.252,-1.2343,-1.2228,-1.2104,-1.1958,-1.1728,-1.1389,-1.0902,-1.055,-1.0265,-1.0168,-1.036,-1.0466,-1.0587,-1.0821,-1.0846,-1.0897,-1.1099,-1.1377,-1.1814,-1.1892,-1.2336,-1.3141,-1.3777,-1.4316,-1.4706,-1.4921,-1.5101,-1.5355,-1.5766,-1.6036,-1.6245,-1.6437,-1.6469,-1.6513,-1.64,-1.6075,-1.6114,-1.598,-1.5662,-1.54,-1.5264,-1.4961,-1.4449,-1.404,-1.3679,-1.7952,-1.8007,-1.8127,-1.8193,-1.8193,-1.822,-1.822,-1.8166,-1.8166,-1.8166,-1.8111,-1.8139,-1.8073,-1.7897,-1.7689,-1.7329,-1.6965,-1.6712,-1.6343,-1.5787,-1.5459,-1.5002,-1.4366,-1.366,-1.3029,-1.2369,-1.1841,-1.1581,-1.1512,-1.1608,-1.1571,-1.1415,-1.1172,-1.0937,-1.0682,-1.0429,-1.0021,-0.9923,-1.0003,-1.0074,-1.0133,-1.0148,-1.0142,-1.0148,-1.0117,-1.0059,-0.9932,-0.9901,-0.9837,-0.9716,-0.9684,-0.9652,-0.9652,-0.9652,-0.9754,-1.0174,-1.0688,-1.1216,-1.1341,-1.1716,-1.1988,-1.2081,-1.2135,-1.2112,-1.1942,-1.1741,-1.1609,-1.1516,-1.1485,-1.1392,-1.1212,-1.1062,-1.0993,-1.0767,-1.0492,-1.0271,-0.997,-0.9554,-0.9317,-0.9143,-0.9158,-0.9508,-0.9734,-1.0063,-1.0287,-1.0372,-1.0462,-1.0697,-1.0875,-1.0929,-1.1202,-1.1972,-1.2722,-1.3286,-1.3782,-1.4007,-1.4287,-1.4543,-1.512,-1.558,-1.5801,-1.606,-1.6578,-1.6599,-1.6485,-1.64,-1.6306,-1.6105,-1.5875,-1.5614,-1.5352,-1.499,-1.4567,-1.421,-1.3868,-1.7385,-1.7689,-1.7744,-1.7689,-1.7606,-1.7689,-1.7689,-1.7606,-1.7629,-1.7617,-1.759,-1.7579,-1.7479,-1.7245,-1.6955,-1.656,-1.6161,-1.596,-1.5584,-1.5021,-1.4697,-1.4293,-1.3708,-1.3182,-1.2601,-1.1882,-1.148,-1.113,-1.1039,-1.098,-1.0967,-1.0644,-1.0571,-1.035,-0.9959,-0.9762,-0.9543,-0.9377,-0.9281,-0.9289,-0.927,-0.9204,-0.9139,-0.9139,-0.9172,-0.9139,-0.9113,-0.9049,-0.9017,-0.8926,-0.8926,-0.892,-0.8926,-0.8958,-0.9022,-0.9247,-0.9626,-1.0161,-1.0674,-1.1052,-1.1209,-1.1303,-1.1303,-1.1163,-1.0843,-1.0521,-1.0294,-1.0199,-1.0161,-1.0066,-0.9844,-0.9659,-0.9538,-0.9362,-0.9084,-0.8848,-0.8657,-0.8487,-0.8203,-0.8065,-0.7942,-0.8186,-0.8447,-0.8676,-0.8931,-0.9159,-0.9164,-0.9265,-0.958,-0.9816,-1.0196,-1.0751,-1.1471,-1.215,-1.264,-1.302,-1.3267,-1.3639,-1.4492,-1.4937,-1.5233,-1.5594,-1.6171,-1.6457,-1.6371,-1.6324,-1.6345,-1.6202,-1.5894,-1.5643,-1.5391,-1.4961,-1.4538,-1.4378,-1.4049,-1.6684,-1.7095,-1.7162,-1.7106,-1.6994,-1.7134,-1.7106,-1.6994,-1.7015,-1.7004,-1.6976,-1.6909,-1.674,-1.6457,-1.6122,-1.5777,-1.5332,-1.5079,-1.4667,-1.4282,-1.3914,-1.3524,-1.3039,-1.261,-1.2103,-1.133,-1.1162,-1.0726,-1.0315,-1.017,-1.0078,-0.9876,-0.9887,-0.968,-0.9366,-0.9087,-0.8879,-0.8564,-0.849,-0.8458,-0.8436,-0.8344,-0.8279,-0.8279,-0.8284,-0.8284,-0.8317,-0.8382,-0.8382,-0.8382,-0.8414,-0.8441,-0.8414,-0.8447,-0.8506,-0.8662,-0.8882,-0.921,-0.9779,-1.0199,-1.0478,-1.0478,-1.0256,-0.9862,-0.9532,-0.9186,-0.8865,-0.8694,-0.8699,-0.8565,-0.8345,-0.8054,-0.7929,-0.78,-0.7618,-0.7356,-0.7175,-0.7124,-0.7044,-0.6843,-0.6685,-0.6588,-0.6822,-0.7105,-0.7422,-0.7838,-0.794,-0.7957,-0.8284,-0.8699,-0.9133,-0.9622,-1.0176,-1.0825,-1.1277,-1.1745,-1.2105,-1.2768,-1.3614,-1.4245,-1.455,-1.5164,-1.5849,-1.6056,-1.6114,-1.6153,-1.6144,-1.6048,-1.5912,-1.5604,-1.5254,-1.4872,-1.4547,-1.4378,-1.4327,-1.596,-1.6046,-1.6257,-1.6371,-1.6381,-1.6381,-1.6371,-1.6381,-1.6381,-1.6371,-1.6314,-1.62,-1.5874,-1.5555,-1.5284,-1.4962,-1.4558,-1.4043,-1.3683,-1.339,-1.3025,-1.2666,-1.2266,-1.1919,-1.1531,-1.0927,-1.0667,-1.0205,-0.9673,-0.9364,-0.9394,-0.9468,-0.9148,-0.8903,-0.8592,-0.8301,-0.8047,-0.7787,-0.7689,-0.7657,-0.7657,-0.7624,-0.7591,-0.7624,-0.7694,-0.7764,-0.7764,-0.7894,-0.7987,-0.7954,-0.7987,-0.8052,-0.8019,-0.8052,-0.8112,-0.8242,-0.8274,-0.8533,-0.8856,-0.9306,-0.9492,-0.9262,-0.8877,-0.8452,-0.8215,-0.7804,-0.7447,-0.7214,-0.7209,-0.7013,-0.6724,-0.64,-0.6363,-0.6297,-0.6231,-0.604,-0.59,-0.594,-0.5836,-0.5639,-0.552,-0.5435,-0.5377,-0.5674,-0.6245,-0.6667,-0.7027,-0.7046,-0.7302,-0.7691,-0.8033,-0.8463,-0.8924,-0.9429,-0.9829,-1.0358,-1.1154,-1.1904,-1.2707,-1.333,-1.3822,-1.4568,-1.5408,-1.572,-1.5807,-1.5875,-1.5914,-1.5836,-1.5681,-1.5449,-1.5186,-1.4902,-1.4656,-1.4488,-1.4547,-1.543,-1.5342,-1.5459,-1.5594,-1.5758,-1.5768,-1.5768,-1.5768,-1.5729,-1.57,-1.5613,-1.5294,-1.503,-1.4756,-1.4312,-1.4013,-1.3713,-1.3208,-1.2842,-1.2574,-1.2274,-1.1903,-1.1591,-1.1247,-1.0933,-1.0485,-1.0136,-0.9722,-0.9236,-0.8861,-0.8533,-0.8436,-0.8306,-0.8112,-0.7819,-0.7559,-0.7302,-0.7209,-0.7138,-0.7138,-0.7138,-0.7138,-0.7106,-0.7138,-0.7171,-0.7209,-0.7209,-0.7269,-0.7368,-0.7466,-0.7531,-0.7591,-0.7689,-0.7689,-0.7754,-0.7852,-0.7889,-0.7922,-0.8057,-0.8506,-0.8727,-0.8258,-0.7772,-0.7284,-0.7051,-0.6597,-0.6243,-0.6013,-0.5877,-0.5741,-0.5477,-0.518,-0.5014,-0.4915,-0.4851,-0.4716,-0.4649,-0.468,-0.4701,-0.4511,-0.4454,-0.4398,-0.4341,-0.4304,-0.4924,-0.5519,-0.5856,-0.6229,-0.6543,-0.6955,-0.7373,-0.7866,-0.8374,-0.8896,-0.9335,-0.9855,-1.0352,-1.1121,-1.1887,-1.26,-1.3313,-1.3988,-1.4716,-1.5119,-1.5527,-1.5585,-1.5614,-1.5575,-1.5488,-1.5362,-1.5225,-1.5059,-1.4843,-1.4627,-1.4775,-1.4911,-1.4764,-1.4704,-1.4902,-1.5147,-1.5177,-1.5157,-1.5118,-1.5118,-1.503,-1.4815,-1.438,-1.4103,-1.3863,-1.3442,-1.3017,-1.275,-1.2328,-1.2019,-1.1778,-1.1529,-1.1209,-1.0933,-1.0649,-1.039,-1.004,-0.9626,-0.9177,-0.8861,-0.8506,-0.8182,-0.7857,-0.7536,-0.74,-0.7302,-0.6975,-0.6749,-0.6749,-0.6749,-0.6749,-0.6749,-0.6749,-0.6749,-0.6782,-0.6811,-0.6876,-0.6909,-0.6975,-0.7045,-0.7106,-0.7171,-0.7199,-0.7265,-0.7335,-0.7368,-0.7433,-0.7466,-0.747,-0.7568,-0.7694,-0.7824,-0.7358,-0.6765,-0.6338,-0.591,-0.5517,-0.5186,-0.499,-0.4858,-0.4655,-0.4453,-0.4189,-0.3954,-0.3887,-0.3656,-0.3491,-0.3422,-0.3422,-0.3456,-0.3403,-0.3413,-0.3476,-0.3819,-0.3853,-0.4445,-0.5006,-0.5333,-0.5709,-0.6054,-0.6487,-0.7019,-0.7503,-0.8023,-0.858,-0.9106,-0.9655,-1.0187,-1.0816,-1.1575,-1.2245,-1.2914,-1.3589,-1.424,-1.478,-1.5108,-1.5293,-1.5381,-1.543,-1.54,-1.5332,-1.5196,-1.5088,-1.5088,-1.4941,-1.5108,-1.4398,-1.4219,-1.41,-1.427,-1.4617,-1.4706,-1.4617,-1.4499,-1.4469,-1.43,-1.4001,-1.3631,-1.326,-1.2895,-1.2505,-1.2166,-1.1864,-1.1397,-1.1122,-1.1059,-1.0769,-1.0523,-1.0301,-1.0079,-0.9817,-0.9492,-0.9139,-0.8791,-0.8511,-0.8182,-0.7889,-0.7601,-0.7241,-0.6979,-0.6881,-0.6581,-0.6416,-0.6416,-0.6449,-0.6486,-0.6486,-0.6486,-0.6486,-0.6519,-0.6613,-0.6675,-0.6712,-0.6749,-0.6848,-0.6909,-0.6876,-0.6909,-0.6942,-0.6942,-0.6946,-0.6946,-0.6946,-0.6913,-0.6942,-0.6942,-0.6778,-0.6511,-0.6017,-0.5488,-0.496,-0.4561,-0.4359,-0.4261,-0.4092,-0.3894,-0.3627,-0.336,-0.3157,-0.2956,-0.2758,-0.2658,-0.2622,-0.2589,-0.2723,-0.2857,-0.2658,-0.2624,-0.3125,-0.3595,-0.4113,-0.4549,-0.4853,-0.5236,-0.5664,-0.6233,-0.6847,-0.7274,-0.7809,-0.8395,-0.8949,-0.948,-1.0048,-1.0635,-1.1239,-1.1875,-1.2571,-1.3256,-1.3853,-1.4429,-1.4834,-1.5108,-1.5225,-1.5342,-1.5342,-1.5332,-1.5196,-1.5117,-1.5147,-1.5215,-1.5352,-1.3911,-1.3731,-1.3692,-1.3631,-1.364,-1.3971,-1.3992,-1.3821,-1.361,-1.3407,-1.3164,-1.2767,-1.2451,-1.2073,-1.1701,-1.1365,-1.1083,-1.0618,-1.0364,-1.0333,-1.004,-0.9817,-0.9626,-0.9434,-0.9247,-0.899,-0.8662,-0.8371,-0.8149,-0.7819,-0.7596,-0.7302,-0.6975,-0.6745,-0.6581,-0.6416,-0.642,-0.642,-0.642,-0.642,-0.6387,-0.6387,-0.6387,-0.6387,-0.6449,-0.6482,-0.6482,-0.6552,-0.6618,-0.6679,-0.6646,-0.6613,-0.6646,-0.6646,-0.6552,-0.6585,-0.6552,-0.6515,-0.6379,-0.6243,-0.6017,-0.5752,-0.5455,-0.4994,-0.4531,-0.4159,-0.3894,-0.3696,-0.3527,-0.336,-0.3159,-0.2859,-0.2658,-0.2589,-0.2423,-0.2356,-0.2321,-0.2287,-0.2354,-0.249,-0.2423,-0.2824,-0.3291,-0.3859,-0.4371,-0.4799,-0.5202,-0.5339,-0.5679,-0.6286,-0.689,-0.7202,-0.7643,-0.8235,-0.8791,-0.9394,-0.9895,-1.0458,-1.0967,-1.1469,-1.2172,-1.2927,-1.3627,-1.4284,-1.4621,-1.4931,-1.5147,-1.5293,-1.5342,-1.5332,-1.5225,-1.5196,-1.5284,-1.5342,-1.543,-1.3368,-1.3086,-1.3086,-1.285,-1.2636,-1.3216,-1.3368,-1.3056,-1.2666,-1.2421,-1.2236,-1.1802,-1.1428,-1.1178,-1.0863,-1.0516,-1.0263,-0.9888,-0.96,-0.9568,-0.9306,-0.9081,-0.892,-0.8721,-0.8565,-0.8376,-0.8079,-0.7787,-0.7694,-0.7433,-0.7171,-0.6909,-0.6708,-0.6482,-0.6317,-0.6251,-0.6317,-0.6284,-0.6251,-0.6185,-0.6185,-0.6185,-0.6222,-0.6222,-0.6222,-0.6222,-0.6222,-0.6255,-0.6284,-0.6346,-0.6346,-0.6284,-0.6346,-0.6317,-0.6222,-0.6222,-0.6222,-0.6148,-0.598,-0.5785,-0.5554,-0.5322,-0.5057,-0.4691,-0.4231,-0.3861,-0.3627,-0.3426,-0.3192,-0.3092,-0.2958,-0.2624,-0.2557,-0.249,-0.2389,-0.2288,-0.2255,-0.2255,-0.2388,-0.2456,-0.269,-0.309,-0.3589,-0.4189,-0.4764,-0.5203,-0.5602,-0.5694,-0.5802,-0.6406,-0.6964,-0.7291,-0.7689,-0.8275,-0.885,-0.9394,-0.987,-1.0316,-1.0771,-1.1247,-1.194,-1.2715,-1.3429,-1.4064,-1.4436,-1.4784,-1.5088,-1.5264,-1.5293,-1.5313,-1.5254,-1.5313,-1.5391,-1.5391,-1.5371,-1.2674,-1.2274,-1.2274,-1.195,-1.167,-1.232,-1.2482,-1.2174,-1.1663,-1.1452,-1.1397,-1.0769,-1.0421,-1.0231,-0.9939,-0.962,-0.9332,-0.9081,-0.8926,-0.8765,-0.8571,-0.8371,-0.8177,-0.8014,-0.7852,-0.7624,-0.7396,-0.7204,-0.7171,-0.6909,-0.6646,-0.6449,-0.6284,-0.6086,-0.5954,-0.5921,-0.6017,-0.6017,-0.5954,-0.5888,-0.5888,-0.5892,-0.5892,-0.5892,-0.5892,-0.5921,-0.5921,-0.5921,-0.5921,-0.5954,-0.5921,-0.5888,-0.5888,-0.5855,-0.5859,-0.5859,-0.5826,-0.5723,-0.5587,-0.5392,-0.5193,-0.496,-0.4758,-0.4323,-0.3992,-0.3727,-0.3527,-0.336,-0.3159,-0.3092,-0.2958,-0.2857,-0.2757,-0.2624,-0.2491,-0.2423,-0.2356,-0.2423,-0.2589,-0.2721,-0.2954,-0.3387,-0.4059,-0.4661,-0.5123,-0.5521,-0.591,-0.6151,-0.6322,-0.6651,-0.7156,-0.7449,-0.789,-0.8419,-0.895,-0.9396,-0.9784,-1.018,-1.0682,-1.1189,-1.1852,-1.2503,-1.3167,-1.3781,-1.425,-1.4597,-1.4902,-1.5088,-1.5186,-1.5205,-1.5176,-1.5205,-1.5254,-1.5167,-1.5137,-1.1794,-1.1553,-1.1334,-1.1014,-1.0622,-1.0294,-1.0451,-1.0926,-1.0598,-1.037,-1.025,-0.9843,-0.953,-0.937,-0.9183,-0.8856,-0.856,-0.8339,-0.8182,-0.7987,-0.7824,-0.7657,-0.7461,-0.7297,-0.7134,-0.6937,-0.6773,-0.6618,-0.6552,-0.635,-0.6083,-0.5851,-0.5719,-0.5521,-0.5388,-0.5259,-0.5451,-0.5583,-0.5491,-0.5491,-0.5458,-0.5462,-0.5458,-0.5458,-0.5491,-0.5524,-0.5587,-0.562,-0.5653,-0.565,-0.5591,-0.5524,-0.5355,-0.5226,-0.513,-0.513,-0.513,-0.5093,-0.503,-0.4994,-0.4894,-0.4728,-0.4595,-0.4325,-0.3959,-0.3725,-0.3563,-0.3393,-0.3259,-0.319,-0.3123,-0.3056,-0.2958,-0.2891,-0.2792,-0.2825,-0.279,-0.2891,-0.3058,-0.3391,-0.3589,-0.4023,-0.4661,-0.5027,-0.5488,-0.5851,-0.6203,-0.6469,-0.6713,-0.7005,-0.7294,-0.7576,-0.7982,-0.8523,-0.8905,-0.9341,-0.9684,-1.0076,-1.0641,-1.1226,-1.1877,-1.251,-1.3032,-1.3573,-1.4141,-1.4478,-1.4736,-1.4902,-1.5029,-1.5068,-1.5059,-1.5088,-1.5098,-1.4961,-1.4843,-1.085,-1.0573,-1.0218,-0.9831,-0.9308,-0.8699,-0.8705,-0.9058,-0.9218,-0.9256,-0.9134,-0.8823,-0.8565,-0.8398,-0.8209,-0.7949,-0.7587,-0.7489,-0.7297,-0.7031,-0.6994,-0.6765,-0.6572,-0.6445,-0.6313,-0.6181,-0.6083,-0.5987,-0.5921,-0.5723,-0.5488,-0.5289,-0.509,-0.4858,-0.4658,-0.4459,-0.4456,-0.4655,-0.4788,-0.4827,-0.4861,-0.4861,-0.4861,-0.4894,-0.496,-0.5123,-0.5186,-0.5219,-0.5289,-0.5286,-0.5193,-0.5126,-0.499,-0.4894,-0.4827,-0.4864,-0.4861,-0.4861,-0.4827,-0.4794,-0.4691,-0.4592,-0.4528,-0.4261,-0.4095,-0.3861,-0.3694,-0.356,-0.3424,-0.3322,-0.3291,-0.3224,-0.319,-0.3157,-0.3224,-0.3326,-0.3393,-0.346,-0.3727,-0.4092,-0.4459,-0.4824,-0.5226,-0.5524,-0.5789,-0.6083,-0.6383,-0.6638,-0.6886,-0.7125,-0.7371,-0.7641,-0.8084,-0.8553,-0.8958,-0.941,-0.9899,-1.0397,-1.0902,-1.1477,-1.2035,-1.2495,-1.2997,-1.3561,-1.4115,-1.4389,-1.4567,-1.4745,-1.4872,-1.4843,-1.4793,-1.4704,-1.4695,-1.4666,-1.4567,-0.9862,-0.9352,-0.8962,-0.8474,-0.7897,-0.7451,-0.7158,-0.6859,-0.754,-0.7972,-0.7907,-0.7694,-0.7461,-0.726,-0.7129,-0.6868,-0.6638,-0.6507,-0.6338,-0.6009,-0.6005,-0.5877,-0.5679,-0.5514,-0.5484,-0.5355,-0.5292,-0.5256,-0.519,-0.5024,-0.4791,-0.4694,-0.4356,-0.4056,-0.3859,-0.3589,-0.352,-0.3522,-0.3656,-0.3725,-0.3925,-0.3961,-0.3928,-0.4028,-0.4261,-0.4525,-0.4592,-0.4661,-0.4764,-0.4764,-0.4794,-0.4797,-0.4764,-0.4731,-0.4731,-0.4694,-0.4661,-0.4697,-0.4664,-0.4597,-0.4561,-0.4495,-0.4428,-0.4264,-0.4131,-0.3961,-0.3828,-0.3727,-0.3591,-0.3591,-0.3558,-0.3525,-0.3525,-0.3558,-0.3661,-0.3727,-0.3797,-0.3997,-0.4395,-0.4728,-0.5027,-0.5392,-0.5587,-0.5851,-0.605,-0.6313,-0.6511,-0.6782,-0.7093,-0.7295,-0.7511,-0.7773,-0.8242,-0.8698,-0.9154,-0.9637,-1.0236,-1.0769,-1.1187,-1.1651,-1.2163,-1.2572,-1.2987,-1.3518,-1.404,-1.421,-1.4389,-1.4517,-1.4538,-1.4478,-1.4389,-1.4309,-1.427,-1.43,-1.427,-0.8705,-0.8285,-0.7544,-0.706,-0.6728,-0.6148,-0.5752,-0.5514,-0.5448,-0.5906,-0.6437,-0.6379,-0.6247,-0.6075,-0.6009,-0.5815,-0.555,-0.5517,-0.5315,-0.518,-0.5113,-0.5017,-0.4858,-0.4755,-0.4688,-0.4619,-0.4522,-0.4459,-0.4359,-0.4192,-0.399,-0.3787,-0.3453,-0.319,-0.3021,-0.2785,-0.2618,-0.252,-0.2418,-0.2686,-0.3056,-0.319,-0.3257,-0.3326,-0.3558,-0.3859,-0.3995,-0.4264,-0.4367,-0.4434,-0.4597,-0.4564,-0.4434,-0.4434,-0.4434,-0.44,-0.4464,-0.4467,-0.4467,-0.4434,-0.4431,-0.4398,-0.4334,-0.43,-0.42,-0.4064,-0.3961,-0.3894,-0.3859,-0.3859,-0.3859,-0.3859,-0.3894,-0.3961,-0.4061,-0.4131,-0.4197,-0.4597,-0.4997,-0.5296,-0.5561,-0.5756,-0.5951,-0.6145,-0.6309,-0.6474,-0.6609,-0.6839,-0.7265,-0.7547,-0.7715,-0.7991,-0.8418,-0.8896,-0.936,-0.9881,-1.0507,-1.0929,-1.1331,-1.1805,-1.2305,-1.273,-1.319,-1.3536,-1.392,-1.404,-1.413,-1.413,-1.416,-1.4151,-1.4121,-1.407,-1.3971,-1.3971,-1.3941,-0.7479,-0.7051,-0.6203,-0.5708,-0.5378,-0.4921,-0.4522,-0.4259,-0.3992,-0.4087,-0.4544,-0.4885,-0.5087,-0.4915,-0.4882,-0.4752,-0.4522,-0.4556,-0.442,-0.4284,-0.4217,-0.4123,-0.4059,-0.3992,-0.3925,-0.3823,-0.3754,-0.3656,-0.3489,-0.3288,-0.3086,-0.2919,-0.2619,-0.2353,-0.2183,-0.1981,-0.1814,-0.1715,-0.1412,-0.1613,-0.215,-0.2251,-0.2353,-0.2487,-0.2822,-0.319,-0.3527,-0.3828,-0.4064,-0.4197,-0.4364,-0.4431,-0.4367,-0.4336,-0.4336,-0.4303,-0.4334,-0.4303,-0.4303,-0.4303,-0.4303,-0.4303,-0.4303,-0.4303,-0.4303,-0.4167,-0.4167,-0.4097,-0.4228,-0.4261,-0.4295,-0.4295,-0.4361,-0.4431,-0.4464,-0.4531,-0.4694,-0.496,-0.5256,-0.5422,-0.5719,-0.602,-0.6214,-0.6379,-0.6576,-0.6745,-0.6876,-0.7068,-0.7461,-0.7884,-0.8024,-0.8249,-0.8746,-0.9239,-0.979,-1.0265,-1.0774,-1.1182,-1.1512,-1.2032,-1.2576,-1.2978,-1.3393,-1.3588,-1.3739,-1.386,-1.389,-1.392,-1.392,-1.395,-1.392,-1.386,-1.3769,-1.367,-1.367,-0.6207,-0.5712,-0.4882,-0.4384,-0.4054,-0.372,-0.3322,-0.2956,-0.282,-0.2519,-0.2415,-0.3316,-0.3682,-0.3782,-0.3782,-0.3687,-0.3589,-0.3556,-0.3456,-0.3389,-0.332,-0.3255,-0.3157,-0.3092,-0.3058,-0.3023,-0.2922,-0.282,-0.2686,-0.245,-0.2249,-0.2115,-0.1848,-0.1512,-0.1412,-0.1244,-0.1144,-0.1144,-0.1009,-0.0875,-0.1042,-0.1244,-0.1513,-0.1816,-0.2218,-0.2686,-0.3023,-0.3426,-0.3761,-0.4028,-0.4197,-0.43,-0.4334,-0.4303,-0.4303,-0.4303,-0.4303,-0.4303,-0.4303,-0.4303,-0.4303,-0.4303,-0.4303,-0.4303,-0.4303,-0.4334,-0.43,-0.4364,-0.4495,-0.4595,-0.4595,-0.4661,-0.4731,-0.4797,-0.4827,-0.4927,-0.5123,-0.5355,-0.5521,-0.5683,-0.598,-0.628,-0.6445,-0.6609,-0.6843,-0.7007,-0.7237,-0.7461,-0.7754,-0.8204,-0.8522,-0.8756,-0.9142,-0.9699,-1.0148,-1.0535,-1.0925,-1.1455,-1.1843,-1.2349,-1.2775,-1.3019,-1.3233,-1.3437,-1.358,-1.367,-1.3769,-1.3791,-1.3799,-1.3739,-1.3731,-1.367,-1.3558,-1.3498,-1.3459,-0.4818,-0.4189,-0.342,-0.3052,-0.2919,-0.2482,-0.2048,-0.168,-0.1546,-0.1243,-0.1041,-0.1074,-0.1543,-0.2313,-0.2616,-0.2584,-0.2418,-0.2487,-0.252,-0.2455,-0.2452,-0.242,-0.2388,-0.2354,-0.2288,-0.222,-0.2118,-0.195,-0.1882,-0.1647,-0.1479,-0.1378,-0.1176,-0.0975,-0.0975,-0.0876,-0.0846,-0.0847,-0.0883,-0.0816,-0.0881,-0.1047,-0.1143,-0.1479,-0.1916,-0.2253,-0.2658,-0.3194,-0.356,-0.3863,-0.4097,-0.4267,-0.4303,-0.4303,-0.4303,-0.4303,-0.4303,-0.4303,-0.4303,-0.4303,-0.4303,-0.4303,-0.4303,-0.4303,-0.4334,-0.4461,-0.4461,-0.4495,-0.4592,-0.4658,-0.4694,-0.4797,-0.4864,-0.4927,-0.4957,-0.5223,-0.5484,-0.5686,-0.5855,-0.6083,-0.6342,-0.6576,-0.6708,-0.6905,-0.7199,-0.74,-0.7694,-0.7917,-0.8209,-0.8598,-0.8985,-0.9274,-0.9562,-0.976,-1.0066,-1.0559,-1.102,-1.1569,-1.2058,-1.2436,-1.2744,-1.2897,-1.3103,-1.3285,-1.3398,-1.3511,-1.358,-1.3588,-1.3549,-1.3519,-1.3549,-1.3489,-1.3376,-1.3324,-1.3285]},{"header":{"parameterUnit":"m.s-1","parameterCategory":1,"la1":31.0,"la2":29.5877,"lo1":-88.7671,"lo2":-86.6584,"dy":0.0162,"dx":0.0185,"nx":115,"ny":88,"refTime":"2024-02-15T18:00:00:Z","depth":0,"parameterNumber":3,"parameterNumberName":"V-component_of_WINDS"},"data":[0.0,0.0,0.0,0.0,0.0,0.0,0.0,0.0,0.0,0.0,0.0,0.0,0.0,0.0,0.0,0.0,0.0,0.0,0.0,0.0,0.0,0.0,0.0,0.0,0.0,0.0,0.0,0.0,0.0,0.0,0.0,0.0,0.0,0.0,0.0,0.0,0.0,0.0,0.0,0.0,0.0,0.0,0.0,0.0,0.0,0.0,0.0,0.0,0.0,0.0,0.0,0.0,0.0,0.0,0.0,0.0,0.0,0.0,0.0,0.0,0.0,0.0,0.0,0.0,0.0,0.0,0.0,0.0,0.0,0.0,0.0,0.0,0.0,0.0,0.0,0.0,0.0,0.0,0.0,0.0,0.0,0.0,0.0,0.0,0.0,0.0,0.0,0.0,0.0,0.0,0.0,0.0,0.0,0.0,0.0,0.0,0.0,0.0,0.0,0.0,0.0,0.0,0.0,0.0,0.0,0.0,0.0,0.0,0.0,0.0,0.0,0.0,0.0,0.0,0.0,0.0,0.0,0.0,0.0,0.0,0.0,0.0,0.0,0.0,0.0,0.0,0.0,0.0,0.0,0.0,0.0,0.0,0.0,0.0,0.0,0.0,0.0,0.0,0.0,0.0,0.0,0.0,0.0,0.0,0.0,0.0,0.0,0.0,0.0,0.0,0.0,0.0,0.0,0.0,0.0,0.0,0.0,0.0,0.0,0.0,0.0,0.0,0.0,0.0,0.0,0.0,0.0,0.0,0.0,0.0,0.0,0.0,0.0,0.0,0.0,0.0,0.0,0.0,0.0,0.0,0.0,0.0,0.0,0.0,0.0,0.0,0.0,0.0,0.0,0.0,0.0,0.0,0.0,0.0,0.0,0.0,0.0,0.0,0.0,0.0,0.0,0.0,0.0,0.0,0.0,0.0,0.0,0.0,0.0,0.0,0.0,0.0,0.0,0.0,0.0,0.0,0.0,0.0,0.0,0.0,0.0,0.0,0.0,0.0,0.0,0.0,0.0,0.0,0.0,0.0,0.0,0.0,0.0,0.0,0.0,0.0,0.0,0.0,0.0,0.0,0.0,0.0,0.0,0.0,0.0,0.0,0.0,0.0,0.0,0.0,0.0,0.0,0.0,0.0,0.0,0.0,0.0,0.0,0.0,0.0,0.0,0.0,0.0,0.0,0.0,0.0,0.0,0.0,0.0,0.0,0.0,0.0,0.0,0.0,0.0,0.0,0.0,0.0,0.0,0.0,0.0,0.0,0.0,0.0,0.0,0.0,0.0,0.0,0.0,0.0,0.0,0.0,0.0,0.0,0.0,0.0,0.0,0.0,0.0,0.0,0.0,0.0,0.0,0.0,0.0,0.0,0.0,0.0,0.0,0.0,0.0,0.0,0.0,0.0,0.0,0.0,0.0,0.0,0.0,0.0,0.0,0.0,0.0,0.0,0.0,0.0,0.0,0.0,0.0,0.0,0.0,0.0,0.0,0.0,0.0,0.0,0.0,0.0,0.0,0.0,0.0,0.0,0.0,0.0,0.0,0.0,0.0,0.0,0.0,0.0,0.0,0.0,0.0,0.0,0.0,0.0,0.0,0.0,0.0,0.0,0.0,0.0,0.0,0.0,0.0,0.0,0.0,0.0,0.0,0.0,0.0,0.0,0.0,0.0,0.0,0.0,0.0,0.0,0.0,0.0,0.0,0.0,0.0,0.0,0.0,0.0,0.0,0.0,0.0,0.0,0.0,0.0,0.0,0.0,0.0,0.0,0.0,0.0,0.0,0.0,0.0,0.0,0.0,0.0,0.0,0.0,0.0,0.0,0.0,0.0,0.0,0.0,0.0,0.0,0.0,0.0,0.0,0.0,0.0,0.0,0.0,0.0,0.0,0.0,0.0,0.0,0.0,0.0,0.0,0.0,0.0,0.0,0.0,0.0,0.0,0.0,0.0,0.0,0.0,0.0,0.0,0.0,0.0,0.0,0.0,0.0,0.0,0.0,0.0,0.0,0.0,0.0,0.0,0.0,0.0,0.0,0.0,0.0,0.0,0.0,0.0,0.0,0.0,0.0,0.0,0.0,0.0,0.0,0.0,0.0,0.0,0.0,0.0,0.0,0.0,0.0,0.0,0.0,0.0,0.0,0.0,0.0,0.0,0.0,0.0,0.0,0.0,0.0,0.0,0.0,0.0,0.0,0.0,0.0,0.0,0.0,0.0,0.0,0.0,0.0,0.0,0.0,0.0,0.0,0.0,0.0,0.0,0.0,0.0,0.0,0.0,0.0,0.0,0.0,0.0,0.0,0.0,0.0,0.0,0.0,0.0,0.0,0.0,0.0,0.0,0.0,0.0,0.0,0.0,0.0,0.0,0.0,0.0,0.0,0.0,0.0,0.0,0.0,0.0,0.0,0.0,0.0,0.0,0.0,0.0,0.0,0.0,0.0,0.0,0.0,0.0,0.0,0.0,0.0,0.0,0.0,0.0,0.0,0.0,0.0,0.0,0.0,0.0,0.0,0.0,0.0,0.0,0.0,0.0,0.0,0.0,0.0,0.0,0.0,0.0,0.0,0.0,0.0,0.0,0.0,0.0,0.0,0.0,0.0,0.0,0.0,0.0,0.0,0.0,0.0,0.0,0.0,0.0,0.0,0.0,0.0,0.0,0.0,0.0,0.0,0.0,0.0,0.0,0.0,0.0,0.0,0.0,0.0,0.0,0.0,0.0,0.0,0.0,0.0,0.0,0.0,0.0,0.0,0.0,0.0,0.0,0.0,0.0,0.0,0.0,0.0,0.0,0.0,0.0,0.0,0.0,0.0,0.0,0.0,0.0,0.0,0.0,0.0,0.0,0.0,0.0,0.0,0.0,0.0,0.0,0.0,0.0,0.0,0.0,0.0,0.0,0.0,0.0,0.0,0.0,0.0,0.0,0.0,0.0,0.0,0.0,0.0,0.0,0.0,0.0,0.0,0.0,0.0,0.0,0.0,0.0,0.0,0.0,0.0,0.0,0.0,0.0,0.0,0.0,0.0,0.0,0.0,0.0,0.0,0.0,0.0,0.0,0.0,0.0,0.0,0.0,0.0,0.0,0.0,0.0,0.0,0.0,0.0,0.0,0.0,0.0,0.0,0.0,0.0,0.0,0.0,0.0,0.0,0.0,0.0,0.0,0.0,0.0,0.0,0.0,0.0,0.0,0.0,0.0,0.0,0.0,0.0,0.0,0.0,0.0,0.0,0.0,0.0,0.0,0.0,0.0,0.0,0.0,0.0,0.0,0.0,0.0,0.0,0.0,0.0,0.0,0.0,0.0,0.0,0.0,0.0,0.0,0.0,0.0,0.0,0.0,0.0,0.0,0.0,0.0,0.0,0.0,0.0,0.0,0.0,0.0,0.0,0.0,0.0,0.0,0.0,0.0,0.0,0.0,0.0,0.0,0.0,0.0,0.0,0.0,0.0,0.0,0.0,0.0,0.0,0.0,0.0,0.0,0.0,0.0,0.0,0.0,0.0,0.0,0.0,0.0,0.0,0.0,0.0,0.0,0.0,0.0,0.0,0.0,0.0,0.0,0.0,0.0,0.0,0.0,0.0,0.0,0.0,0.0,0.0,0.0,0.0,0.0,0.0,0.0,0.0,0.0,0.0,0.0,0.0,0.0,0.0,0.0,0.0,0.0,0.0,0.0,0.0,0.0,0.0,0.0,0.0,0.0,0.0,0.0,0.0,0.0,0.0,0.0,0.0,0.0,0.0,0.0,0.0,0.0,0.0,0.0,0.0,0.0,0.0,0.0,0.0,0.0,0.0,0.0,0.0,0.0,0.0,0.0,0.0,0.0,0.0,0.0,0.0,0.0,0.0,0.0,0.0,0.0,0.0,0.0,0.0,0.0,0.0,0.0,0.0,0.0,0.0,0.0,0.0,0.0,0.0,0.0,0.0,0.0,0.0,0.0,0.0,0.0,0.0,0.0,0.0,0.0,0.0,0.0,0.0,0.0,0.0,0.0,0.0,0.0,0.0,0.0,0.0,0.0,0.0,0.0,0.0,0.0,0.0,0.0,0.0,0.0,0.0,0.0,0.0,0.0,0.0,0.0,0.0,0.0,0.0,0.0,0.0,0.0,0.0,0.0,0.0,0.0,0.0,0.0,0.0,0.0,0.0,0.0,0.0,0.0,0.0,0.0,0.0,0.0,0.0,0.0,0.0,0.0,0.0,0.0,0.0,0.0,0.0,0.0,0.0,0.0,0.0,0.0,0.0,0.0,0.0,0.0,0.0,0.0,0.0,0.0,0.0,0.0,0.0,0.233,0.0,0.0,0.0,0.0,0.0,0.0,0.0,0.0,0.0,0.0,0.0,0.0,0.0,0.0,0.0,0.0,0.0,0.0,0.0,0.0,0.0,0.0,0.0,0.0,0.0,0.0,0.0,0.0,0.0,0.0,0.0,0.0,0.0,0.0,0.0,0.0,0.0,0.0,0.0,0.0,0.0,0.0,0.0,0.0,0.0,0.0,0.0,0.0,0.0,0.0,0.0,0.0,0.0,0.0,0.0,0.0,0.0,0.0,0.0,0.0,0.0,0.0,0.0,0.0,0.0,0.0,0.0,0.0,0.0,0.0,0.0,0.0,0.0,0.0,0.0,0.0,0.0,0.0,0.0,0.0,0.0,0.0,0.0,0.0,0.0,0.0,0.0,0.0,0.0,0.0,0.0,0.0,0.0,0.0,0.0,0.0,0.0,0.0,0.0,0.0,0.0,0.0,0.0,0.0,0.0,0.0,0.0,0.0,0.0,0.0,0.4515,0.4209,0.3729,0.3145,0.2485,0.0,0.0,0.0,0.0,0.0,0.0,0.0,0.0,0.0,0.0,0.0,0.0,0.0,0.0,0.0,0.0,0.0,0.0,0.0,0.0,0.0,0.0,0.0,0.0,0.0,0.0,0.0,0.0,0.0,0.0,0.0,0.0,0.0,0.0,0.0,0.0,0.0,0.0,0.0,0.0,0.0,0.0,0.0,0.0,0.0,0.0,0.0,0.0,0.0,0.0,0.0,0.0,0.0,0.0,0.0,0.0,0.0,0.0,0.0,0.0,0.0,0.0,0.0,0.0,0.0,0.0,0.0,0.0,0.0,0.0,0.0,0.0,0.0,0.0,0.0,0.0,0.0,0.0,0.0,0.0,0.0,0.0,0.0,0.0,0.0,0.0,0.0,0.0,0.0,0.0,0.0,0.0,0.0,0.0,0.0,0.0,0.0,0.0,0.0,0.0,0.0,0.0,0.0,0.0,0.0,0.0,0.0,0.0,0.0,0.0,0.0,0.0,0.4003,0.3371,0.2536,0.0,0.0,0.0,0.0,0.0,0.0,0.0,0.0,0.0,0.0,0.0,0.0,0.0,0.0,0.0,0.0,0.0,0.0,0.0,0.0,0.0,0.0,0.0,0.0,0.0,0.0,0.0,0.0,0.0,0.0,0.0,0.0,0.0,0.0,0.0,0.0,0.0,0.0,0.0,0.0,0.0,0.0,0.0,0.0,0.0,0.0,0.0,0.0,0.0,0.0,0.0,0.0,0.0,0.0,0.0,0.0,0.0,0.0,0.0,0.0,0.0,0.0,0.0,0.0,0.0,0.0,0.0,0.0,0.0,0.0,0.0,0.0,0.0,0.0,0.0,0.0,0.0,0.0,0.0,0.0,0.0,0.0,0.0,0.0,0.0,0.0,0.0,0.0,0.0,0.0,0.0,0.0,0.0,0.0,0.0,0.0,0.0,0.0,0.0,0.0,0.0,0.0,0.0,0.0,0.0,0.0,0.0,0.0,0.0,0.0,0.5249,0.4944,0.4461,0.0,0.2583,0.0,0.0,0.0,0.0,0.0,0.0,0.0,0.0,0.0,0.0,0.0,0.0,0.0,0.0,0.0,0.0,0.0,0.0,0.0,0.0,0.0,0.0,0.0,0.0,0.0,0.0,0.0,0.0,0.0,0.0,0.0,0.0,0.0,0.0,0.0,0.0,0.0,0.0,0.0,0.0,0.0,0.0,0.0,0.0,0.0,0.0,0.0,0.0,0.0,0.0,0.0,0.0,0.0,0.0,0.0,0.0,0.0,0.0,0.0,0.0,0.0,0.0,0.0,0.0,0.0,0.0,0.0,0.0,0.0,0.0,0.0,0.0,0.0,0.0,0.0,0.0,0.0,0.0,0.0,0.0,0.0,0.0,0.0,0.0,0.0,0.0,0.0,0.0,0.0,0.0,0.0,0.0,0.0,0.0,0.0,0.0,0.0,0.0,0.0,0.0,0.0,0.0,0.0,0.0,0.0,0.0,0.0,0.0,0.0,0.0,0.4981,0.467,0.4002,0.3371,0.0,0.0,0.0,0.0,0.0,0.0,0.0,0.0,0.0,0.0,0.0,0.0,0.0,0.0,0.0,0.0,0.0,0.0,0.0,0.0,0.0,0.0,0.0,0.0,0.0,0.0,0.0,0.0,0.0,0.0,0.0,0.0,0.0,0.0,0.0,0.0,0.0,0.0,0.0,0.0,0.0,0.0,0.0,0.0,0.0,0.0,0.0,0.0,0.0,0.0,0.0,0.0,0.0,0.0,0.0,0.0,0.0,0.0,0.0,0.0,0.0,0.0,0.0,0.0,0.0,0.0,0.0,0.0,0.0,0.0,0.0,0.0,0.0,0.0,0.0,0.0,0.0,0.0,0.0,0.0,0.0,0.0,0.0,0.0,0.0,0.0,0.0,0.0,0.0,0.0,0.0,0.0,0.0,0.0,0.0,0.0,0.0,0.0,0.0,0.0,0.0,0.0,0.0,0.0,0.0,0.0,0.0,0.0,0.0,0.0,0.4803,0.471,0.4382,0.3737,0.3273,0.3068,0.0,0.0,0.0,0.0,0.0,0.0,0.0,0.0,0.0,0.0,0.0,0.0,0.0,0.0,0.0,0.0,0.0,0.0,0.0,0.0,0.0,0.0,0.0,0.0,0.0,0.0,0.0,0.0,0.0,0.0,0.0,0.0,0.0,0.0,0.0,0.0,0.0,0.0,0.0,0.0,0.0,0.0,0.0,0.0,0.0,0.0,0.0,0.0,0.0,0.0,0.0,0.0,0.0,0.0,0.0,0.0,0.0,0.0,0.0,0.0,0.0,0.0,0.0,0.0,0.0,0.0,0.0,0.0,0.0,0.0,0.0,0.0,0.0,0.0,0.0,0.0,0.0,0.0,0.0,0.0,0.0,0.0,0.0,0.0,0.0,0.0,0.0,0.0,0.0,0.0,0.0,0.0,0.0,0.0,0.0,0.0,0.0,0.0,0.0,0.0,0.0,0.0,0.0,0.0,0.0,0.0,0.0,0.0,0.4776,0.4726,0.4618,0.439,0.3999,0.3677,0.0,0.0,0.0,0.0,0.0,0.0,0.0,0.0,0.0,0.0,0.0,0.0,0.0,0.0,0.0,0.0,0.0,0.0,0.0,0.0,0.0,0.0,0.0,0.0,0.0,0.0,0.0,0.0,0.0,0.0,0.0,0.0,0.0,0.0,0.0,0.0,0.0,0.0,0.0,0.0,0.0,0.0,0.0,0.0,0.0,0.0,0.0,0.0,0.0,0.0,0.0,0.0,0.0,0.0,0.0,0.0,0.0,0.0,0.0,0.0,0.0,0.0,0.0,0.0,0.0,0.0,0.0,0.0,0.0,0.0,0.0,0.0,0.0,0.0,0.0,0.0,0.0,0.0,0.0,0.0,0.0,0.0,0.0,0.0,0.0,0.0,0.0,0.0,0.0,0.0,0.0,0.0,0.0,0.0,0.0,0.0,0.0,0.0,0.0,0.0,0.0,0.0,0.0,0.0,0.0,0.0,0.0,0.0,0.0,0.4334,0.4288,0.4214,0.4144,0.395,0.382,0.0,0.0,0.0,0.0,0.0,0.0,0.0,0.0,0.0,0.0,0.0,0.0,0.0,0.0,0.0,0.0,0.0,0.0,0.0,0.0,0.0,0.0,0.0,0.0,0.0,0.0,0.0,0.0,0.0,0.0,0.0,0.0,0.0,0.0,0.0,0.0,0.0,0.0,0.0,0.0,0.0,0.0,0.0,0.0,0.0,0.0,0.0,0.0,0.0,0.0,0.0,0.0,0.0,0.0,0.0,0.0,0.0,0.0,0.0,0.0,0.0,0.0,0.0,0.0,0.0,0.0,0.0,0.0,0.0,0.0,0.0,0.0,0.0,0.0,0.0,0.0,0.0,0.0,0.0,0.0,0.0,0.0,0.0,0.0,0.0,0.0,0.0,0.0,0.0,0.0,0.0,0.0,0.0,0.0,0.0,0.0,0.0,0.0,0.0,0.0,0.0,0.0,0.0,0.0,0.0,0.0,0.0,0.0,0.0,0.4255,0.0,0.4217,0.4189,0.417,0.4137,0.0,0.0,0.0,0.0,0.0,0.0,0.0,0.0,0.0,0.0,0.0,0.0,0.0,0.0,0.0,0.0,0.0,0.0,0.0,0.0,0.0,0.0,0.0,0.0,0.0,0.0,0.0,0.0,0.0,0.0,0.0,0.0,0.0,0.0,0.0,0.0,0.0,0.0,0.0,0.0,0.0,0.0,0.0,0.0,0.0,0.0,0.0,0.0,0.0,0.0,0.0,0.0,0.0,0.0,0.0,0.0,0.0,0.0,0.0,0.0,0.0,0.0,0.0,0.0,0.0,0.0,0.0,0.0,0.0,0.0,0.0,0.0,0.0,0.0,0.0,0.0,0.0,0.0,0.0,0.0,0.0,0.0,0.0,0.0,0.0,0.0,0.0,0.0,0.0,0.0,0.0,0.0,0.0,0.0,0.0,0.0,0.0,0.0,0.0,0.0,0.0,0.0,0.0,0.0,0.0,0.0,0.0,0.0,0.4466,0.4585,0.4653,0.4637,0.4607,0.4651,0.4666,0.0,0.0,0.0,0.0,0.0,0.0,0.0,0.0,0.0,0.0,0.0,0.0,0.0,0.0,0.0,0.0,0.0,0.0,0.0,0.0,0.0,0.0,0.0,0.0,0.0,0.0,0.0,0.0,0.0,0.0,0.0,0.0,0.0,0.0,0.0,0.0,0.0,0.0,0.0,0.0,0.0,0.0,0.0,0.0,0.0,0.0,0.0,0.0,0.0,0.0,0.0,0.0,0.0,0.0,0.0,0.0,0.0,0.0,0.0,0.0,0.0,0.0,0.0,0.0,0.0,0.0,0.0,0.0,0.0,0.0,0.0,0.0,0.0,0.0,0.0,0.0,0.0,0.0,0.0,0.0,0.0,0.0,0.0,0.0,0.0,0.0,0.0,0.0,0.0,0.0,0.0,0.0,0.0,0.0,0.0,0.0,0.0,0.0,0.0,0.0,0.0,0.0,0.0,0.0,0.0,0.0,0.0,0.0,0.0,0.4752,0.4761,0.4728,0.4615,0.4751,0.4863,0.0,0.0,0.0,0.0,0.0,0.0,0.0,0.0,0.0,0.0,0.0,0.0,0.0,0.0,0.0,0.0,0.0,0.0,0.0,0.0,0.0,0.0,0.0,0.0,0.0,0.0,0.0,0.0,0.0,0.0,0.0,0.0,0.0,0.0,0.0,0.0,0.0,0.0,0.0,0.0,0.0,0.0,0.0,0.0,0.0,0.0,0.0,0.0,0.0,0.0,0.0,0.0,0.0,0.0,0.0,0.0,0.0,0.0,0.0,0.0,0.0,0.0,0.0,0.0,0.0,0.0,0.0,0.0,0.0,0.0,0.0,0.0,0.0,0.0,0.0,0.0,0.0,0.0,0.0,0.0,0.0,0.0,0.0,0.0,0.0,0.0,0.0,0.0,0.0,0.0,0.0,0.0,0.0,0.0,0.0,0.0,0.0,0.0,0.0,0.0,0.0,0.0,0.0,0.0,0.0,0.0,0.0,0.0,0.0,0.5246,0.5078,0.4934,0.4858,0.509,0.5217,0.5271,0.0,0.0,0.0,0.0,0.0,0.0,0.0,0.0,0.0,0.0,0.0,0.0,0.0,0.0,0.0,0.0,0.0,0.0,0.0,0.0,0.0,0.0,0.0,0.0,0.0,0.0,0.0,0.0,0.0,0.0,0.0,0.0,0.0,0.0,0.0,0.0,0.0,0.0,0.0,0.0,0.0,0.0,0.0,0.0,0.0,0.0,0.0,0.0,0.0,0.0,0.0,0.0,0.0,0.0,0.0,0.0,0.0,0.0,0.0,0.0,0.0,0.0,0.0,0.0,0.0,0.0,0.0,0.0,0.0,0.0,0.0,0.0,0.0,0.0,0.0,0.0,0.0,0.0,0.0,0.0,0.0,0.0,0.0,0.0,0.0,0.0,0.0,0.0,0.0,0.0,0.0,0.0,0.0,0.0,0.0,0.0,0.0,0.0,0.0,0.0,0.0,0.0,0.0,0.0,0.0,0.0,0.0,0.0,0.6052,0.5617,0.5388,0.5356,0.5585,0.5734,0.0,0.0,0.0,0.0,0.0,0.0,0.0,0.0,0.0,0.0,0.0,0.0,0.0,0.0,0.0,0.0,0.0,0.0,0.0,0.0,0.0,0.0,0.0,0.0,0.0,0.0,0.0,0.0,0.0,0.0,0.0,0.0,0.0,0.0,0.0,0.0,0.0,0.0,0.0,0.0,0.0,0.0,0.0,0.0,0.0,0.0,0.0,0.0,0.0,0.0,0.0,0.0,0.0,0.0,0.0,0.0,0.0,0.0,0.0,0.0,0.0,0.0,0.0,0.0,0.0,0.0,0.0,0.0,0.0,0.0,0.0,0.0,0.0,0.0,0.0,0.0,0.0,0.0,0.0,0.0,0.0,0.0,0.0,0.0,0.0,0.0,0.0,0.0,0.0,0.0,0.0,0.0,0.0,0.0,0.0,0.0,0.0,0.0,0.0,0.0,0.0,0.0,0.0,0.0,0.0,0.0,0.0,0.0,0.0,0.6649,0.6595,0.6321,0.5835,0.6044,0.6153,0.0,0.0,0.0,0.0,0.0,0.0,0.0,0.0,0.0,0.0,0.0,0.0,0.0,0.0,0.0,0.0,0.0,0.0,0.0,0.0,0.0,0.0,0.0,0.0,0.0,0.0,0.0,0.0,0.0,0.0,0.0,0.0,0.0,0.0,0.0,0.0,0.0,0.0,0.0,0.0,0.0,0.0,0.0,0.0,0.0,0.0,0.0,0.0,0.0,0.0,0.0,0.0,0.0,0.0,0.0,0.0,0.0,0.0,0.0,0.0,0.0,0.0,0.0,0.0,0.0,0.0,0.0,0.0,0.0,0.0,0.0,0.0,0.0,0.0,0.0,0.0,0.0,0.0,0.0,0.0,0.0,0.0,0.0,0.0,0.0,0.0,0.0,0.0,0.0,0.0,0.0,0.0,0.0,0.0,0.0,0.0,0.0,0.0,0.0,0.0,0.0,0.0,0.0,0.0,0.0,0.0,0.0,0.0,0.7107,0.7264,0.7373,0.7305,0.7063,0.6771,0.6688,0.0,0.0,0.0,0.0,0.0,0.0,0.0,0.0,0.0,0.0,0.0,0.0,0.0,0.0,0.0,0.0,0.0,0.0,0.0,0.0,0.0,0.0,0.0,0.0,0.0,0.0,0.0,0.0,0.0,0.0,0.0,0.0,0.0,0.0,0.0,0.0,0.0,0.0,0.0,0.0,0.0,0.0,0.0,0.0,0.0,0.0,0.0,0.0,0.0,0.0,0.0,0.0,0.0,0.0,0.0,0.0,0.0,0.0,0.0,0.0,0.0,0.0,0.0,0.0,0.0,0.0,0.0,0.0,0.0,0.0,0.0,0.0,0.0,0.0,0.0,0.0,0.0,0.0,0.0,0.0,0.0,0.0,0.0,0.0,0.0,0.0,0.0,0.0,0.0,0.0,0.0,0.0,0.0,0.0,0.0,0.0,0.0,0.0,0.0,0.0,0.0,0.0,0.0,0.0,0.0,0.0,0.0,0.0,0.7792,0.7937,0.8035,0.8279,0.8577,0.7689,0.7305,0.0,0.0,0.0,0.0,0.0,0.0,0.0,0.0,0.0,0.0,0.0,0.0,0.0,0.0,0.0,0.0,0.0,0.0,0.0,0.0,0.0,0.0,0.0,0.0,0.0,0.0,0.0,0.0,0.0,0.0,0.0,0.0,0.0,0.0,0.0,0.0,0.0,0.0,0.0,0.0,0.0,0.0,0.0,0.0,0.0,0.0,0.0,0.0,0.0,0.0,0.0,0.0,0.0,0.0,0.0,0.0,0.0,0.0,0.0,0.0,0.0,0.0,0.0,0.0,0.0,0.0,0.0,0.0,0.0,0.0,0.0,0.0,0.0,0.0,0.0,0.0,0.0,0.0,0.0,0.0,0.0,0.0,0.0,0.0,0.0,0.0,0.0,0.0,0.0,0.0,0.0,0.0,0.0,0.0,0.0,0.0,0.0,0.0,0.0,0.0,0.0,0.0,0.0,0.0,0.0,0.0,0.0,0.0,0.8581,0.8835,0.8838,0.9018,0.9354,0.8247,0.7805,0.0,0.0,0.0,0.0,0.0,0.0,0.0,0.0,0.0,0.0,0.0,0.0,0.0,0.0,0.0,0.0,0.0,0.0,0.0,0.0,0.0,0.0,0.0,0.0,0.0,0.0,0.0,0.0,0.0,0.0,0.0,0.0,0.0,0.0,0.0,0.0,0.0,0.0,0.0,0.0,0.0,0.0,0.0,0.0,0.0,0.0,0.0,0.0,1.8137,0.0,0.0,0.0,0.0,0.0,0.0,0.0,0.0,0.0,0.0,0.0,0.0,0.0,0.0,0.0,0.0,0.0,0.0,0.0,0.0,0.0,0.0,0.0,0.0,0.0,0.0,0.0,0.0,0.0,0.0,0.0,0.0,0.0,0.0,0.0,0.0,0.0,0.0,0.0,0.0,0.0,0.0,0.0,0.0,0.0,0.0,0.0,0.0,0.0,0.0,0.0,0.0,0.0,0.0,0.0,0.0,0.0,0.0,0.0,0.9413,0.9611,0.965,0.9814,1.009,0.9178,0.8656,0.0,0.0,0.0,0.0,0.0,0.0,0.0,0.0,0.0,0.0,0.0,0.0,0.0,0.0,0.0,0.0,0.0,0.0,0.0,0.0,0.0,0.0,0.0,0.0,0.0,0.0,0.0,0.0,0.0,0.0,0.0,0.0,0.0,0.0,0.0,0.0,0.0,0.0,0.0,0.0,0.0,0.0,0.0,0.0,0.0,0.0,0.0,0.0,0.0,0.0,0.0,0.0,0.0,0.0,0.0,0.0,0.0,0.0,0.0,0.0,0.0,0.0,0.0,0.0,0.0,0.0,0.0,0.0,0.0,0.0,0.0,0.0,0.0,0.0,0.0,0.0,0.0,0.0,0.0,0.0,0.0,0.0,0.0,0.0,0.0,0.0,0.0,0.0,0.0,0.0,0.0,0.0,0.0,0.0,0.0,0.0,0.0,0.0,0.0,0.0,0.0,0.0,0.0,0.0,0.0,0.0,0.0,1.0008,1.0233,1.0381,1.0432,1.057,1.0792,1.0133,0.9602,0.9274,0.0,0.0,0.0,0.0,0.0,0.0,0.0,0.0,0.0,0.0,0.0,0.0,0.0,0.0,0.0,0.0,0.0,0.0,0.0,0.0,0.0,0.0,0.0,0.0,0.0,0.0,0.0,0.0,0.0,0.0,0.0,0.0,0.0,0.0,0.0,0.0,0.0,0.0,1.4871,1.5739,0.0,0.0,0.0,0.0,0.0,0.0,0.0,0.0,1.8338,0.0,0.0,0.0,0.0,0.0,0.0,0.0,0.0,0.0,0.0,0.0,0.0,0.0,0.0,0.0,0.0,0.0,0.0,0.0,0.0,0.0,0.0,0.0,0.0,0.0,0.0,0.0,0.0,0.0,0.0,0.0,0.0,0.0,0.0,0.0,0.0,0.0,0.0,0.0,0.0,0.0,0.0,0.0,0.0,0.0,0.0,0.0,0.0,0.0,0.0,0.0,0.0,0.0,0.0,0.0,0.0,1.0572,1.0816,1.1006,1.119,1.1159,1.1062,1.0897,1.0644,1.0361,1.0006,0.0,0.0,0.0,0.0,0.0,0.0,0.0,0.0,0.0,0.0,0.0,0.0,0.0,0.0,0.0,0.0,0.0,0.0,0.0,0.0,0.0,0.0,0.0,0.0,0.0,0.0,0.0,0.0,0.0,0.0,0.0,0.0,0.0,0.0,0.0,0.0,0.0,0.0,0.0,1.6961,1.7412,0.0,0.0,0.0,0.0,0.0,0.0,0.0,0.0,1.826,0.0,0.0,0.0,0.0,0.0,0.0,0.0,0.0,0.0,0.0,0.0,0.0,0.0,0.0,0.0,0.0,0.0,0.0,0.0,0.0,0.0,0.0,0.0,0.0,0.0,0.0,0.0,0.0,0.0,0.0,0.0,0.0,0.0,0.0,0.0,0.0,0.0,0.0,0.0,0.0,0.0,0.0,0.0,0.0,0.0,0.0,0.0,0.0,0.0,0.0,0.0,0.0,0.0,0.0,0.0,1.1315,1.1564,1.1743,1.1865,1.1764,1.1608,1.1363,1.1101,1.0831,0.0,0.0,0.0,0.0,0.0,0.0,0.0,0.0,0.0,0.0,0.0,0.0,0.0,0.0,0.0,0.0,0.0,0.0,0.0,0.0,0.0,0.0,0.0,0.0,0.0,0.0,0.0,0.0,0.0,0.0,0.0,0.0,0.0,0.0,0.0,0.0,0.0,0.0,0.0,0.0,1.7688,1.8149,1.8641,0.0,0.0,0.0,0.0,0.0,0.0,1.8403,1.8274,0.0,0.0,0.0,0.0,0.0,0.0,0.0,0.0,0.0,0.0,0.0,0.0,0.0,0.0,0.0,0.0,0.0,0.0,0.0,0.0,0.0,0.0,0.0,0.0,0.0,0.0,0.0,0.0,0.0,0.0,0.0,0.0,0.0,0.0,0.0,0.0,0.0,0.0,0.0,0.0,0.0,0.0,0.0,0.0,0.0,0.0,0.0,0.0,0.0,0.0,0.0,0.0,0.0,0.0,0.0,1.194,1.22,1.2342,1.2423,1.2307,1.2118,1.1897,1.1546,1.1253,0.0,0.0,0.0,0.0,0.0,0.0,0.0,0.0,0.0,0.0,0.0,0.0,0.0,0.0,0.0,0.0,0.0,0.0,0.0,0.0,0.0,0.0,0.0,0.0,0.0,0.0,0.0,0.0,0.0,0.0,0.0,0.0,0.0,0.0,0.0,0.0,0.0,0.0,0.0,0.0,0.0,1.8725,1.8834,1.8843,0.0,0.0,0.0,0.0,1.8677,1.8649,0.0,0.0,0.0,0.0,0.0,0.0,0.0,0.0,0.0,0.0,0.0,0.0,0.0,0.0,0.0,0.0,0.0,0.0,0.0,0.0,0.0,0.0,0.0,0.0,0.0,0.0,0.0,0.0,0.0,0.0,0.0,0.0,0.0,0.0,0.0,0.0,0.0,0.0,0.0,0.0,0.0,0.0,0.0,0.0,0.0,0.0,0.0,0.0,0.0,0.0,0.0,0.0,0.0,0.0,0.0,0.0,1.241,1.2617,1.2763,1.2827,1.2709,1.25,1.2246,1.2018,1.1751,0.0,0.0,0.0,0.0,0.0,0.0,0.0,0.0,0.0,0.0,0.0,0.0,0.0,0.0,0.0,0.0,0.0,0.0,0.0,0.0,0.0,0.0,0.0,0.0,0.0,0.0,0.0,0.0,0.0,0.0,0.0,0.0,0.0,0.0,0.0,0.0,0.0,0.0,0.0,0.0,0.0,1.8974,1.9067,1.9006,1.8989,0.0,0.0,1.8949,1.8967,1.9442,0.0,0.0,0.0,0.0,0.0,0.0,0.0,0.0,0.0,0.0,0.0,0.0,0.0,0.0,0.0,0.0,0.0,0.0,0.0,0.0,0.0,0.0,0.0,0.0,0.0,0.0,0.0,0.0,0.0,0.0,0.0,0.0,0.0,0.0,0.0,0.0,0.0,0.0,0.0,0.0,0.0,0.0,0.0,0.0,0.0,0.0,0.0,0.0,0.0,0.0,0.0,0.0,0.0,0.0,0.0,1.2362,1.2681,1.3248,1.3331,1.2929,1.3209,1.3043,1.2379,1.2205,1.1974,0.0,0.0,0.0,0.0,0.0,0.0,0.0,0.0,0.0,0.0,0.0,0.0,0.0,0.0,0.0,0.0,0.0,0.0,0.0,0.0,0.0,0.0,0.0,0.0,0.0,0.0,0.0,0.0,0.0,0.0,0.0,0.0,0.0,0.0,0.0,0.0,0.0,0.0,0.0,0.0,0.0,0.0,2.0074,2.0451,0.0,0.0,0.0,2.0649,2.0649,0.0,0.0,0.0,0.0,0.0,0.0,0.0,0.0,0.0,0.0,0.0,0.0,0.0,0.0,0.0,0.0,0.0,0.0,0.0,0.0,0.0,0.0,0.0,0.0,0.0,0.0,0.0,0.0,0.0,0.0,0.0,0.0,0.0,0.0,0.0,0.0,0.0,0.0,0.0,0.0,0.0,0.0,0.0,0.0,0.0,0.0,0.0,0.0,0.0,0.0,0.0,0.0,0.0,0.0,0.0,0.0,0.0,1.3375,1.4041,1.4091,1.35,1.3766,1.3531,1.2721,1.2386,0.0,0.0,0.0,0.0,0.0,0.0,0.0,0.0,0.0,0.0,0.0,0.0,0.0,0.0,0.0,0.0,0.0,0.0,0.0,0.0,0.0,0.0,0.0,0.0,0.0,0.0,0.0,1.3707,0.0,0.0,0.0,0.0,0.0,0.0,0.0,0.0,0.0,0.0,0.0,0.0,0.0,0.0,2.09,2.1182,2.1765,2.2185,0.0,0.0,2.201,2.1995,2.2019,2.2039,0.0,0.0,0.0,0.0,0.0,0.0,0.0,0.0,0.0,0.0,0.0,0.0,0.0,0.0,0.0,0.0,0.0,0.0,0.0,0.0,0.0,0.0,0.0,0.0,0.0,0.0,0.0,0.0,0.0,0.0,0.0,0.0,0.0,0.0,0.0,0.0,0.0,0.0,0.0,0.0,0.0,0.0,0.0,0.0,0.0,0.0,0.0,0.0,0.0,0.0,0.0,0.0,0.0,0.0,0.0,1.4934,1.5062,1.5104,1.5021,1.4363,1.3832,1.3516,1.2723,1.219,0.0,0.0,0.0,0.0,0.0,0.0,0.0,0.0,0.0,0.0,0.0,0.0,0.0,0.0,0.0,0.0,0.0,0.0,0.0,0.0,0.0,0.0,0.0,0.0,0.0,0.0,0.0,0.0,0.0,0.0,0.0,0.0,0.0,0.0,0.0,0.0,0.0,0.0,0.0,0.0,0.0,2.1399,2.2267,2.243,2.2456,0.0,0.0,2.2274,2.2289,2.2783,2.3185,2.3183,0.0,0.0,0.0,0.0,0.0,0.0,0.0,0.0,0.0,0.0,0.0,0.0,0.0,0.0,0.0,0.0,0.0,0.0,0.0,0.0,0.0,0.0,0.0,0.0,0.0,0.0,0.0,0.0,0.0,0.0,0.0,0.0,0.0,0.0,0.0,0.0,0.0,0.0,0.0,0.0,0.0,0.0,0.0,0.0,0.0,0.0,0.0,0.0,0.0,0.0,0.0,0.0,0.0,1.4674,1.4984,1.5528,1.5556,1.5054,1.507,1.4587,1.3499,1.3113,1.2659,0.0,0.0,0.0,0.0,0.0,0.0,0.0,0.0,0.0,0.0,0.0,0.0,0.0,0.0,0.0,0.0,0.0,0.0,0.0,0.0,0.0,0.0,0.0,0.0,0.0,0.0,0.0,0.0,1.5745,1.6326,1.7578,0.0,0.0,0.0,0.0,0.0,0.0,0.0,0.0,0.0,0.0,2.2961,2.3378,2.3845,0.0,0.0,2.4042,2.3967,2.3961,2.4138,2.4294,2.4279,2.4486,0.0,0.0,0.0,0.0,0.0,0.0,0.0,0.0,0.0,0.0,0.0,0.0,0.0,0.0,0.0,0.0,0.0,0.0,0.0,0.0,0.0,0.0,0.0,0.0,0.0,0.0,0.0,0.0,0.0,0.0,0.0,0.0,0.0,0.0,0.0,0.0,0.0,0.0,0.0,0.0,0.0,0.0,0.0,0.0,0.0,0.0,0.0,0.0,0.0,0.0,0.0,0.0,1.5177,1.5445,1.6098,1.6154,1.5531,1.5683,1.5133,1.378,1.3455,1.3041,0.0,0.0,0.0,0.0,0.0,0.0,0.0,0.0,0.0,0.0,0.0,0.0,0.0,0.0,0.0,0.0,0.0,0.0,0.0,0.0,0.0,0.0,0.0,0.0,0.0,0.0,0.0,0.0,1.6817,1.7369,1.809,0.0,0.0,0.0,0.0,0.0,0.0,0.0,0.0,0.0,0.0,2.4077,2.4389,2.4904,2.5243,2.5238,2.5132,2.5056,2.5075,2.5221,2.5332,2.5319,0.0,0.0,0.0,0.0,0.0,0.0,0.0,0.0,0.0,0.0,0.0,0.0,0.0,0.0,0.0,0.0,0.0,0.0,0.0,0.0,0.0,0.0,0.0,0.0,0.0,0.0,0.0,0.0,0.0,0.0,1.118,0.0,0.0,0.0,0.0,0.0,0.0,0.0,0.0,0.0,0.0,0.0,0.0,0.0,0.0,0.0,0.0,0.0,0.0,0.0,0.0,0.0,0.0,1.6438,1.6661,1.685,1.6949,1.6901,1.6134,1.5328,1.4487,1.3731,1.3306,1.3277,0.0,0.0,0.0,0.0,0.0,0.0,0.0,0.0,0.0,0.0,0.0,0.0,0.0,0.0,0.0,0.0,0.0,0.0,0.0,0.0,0.0,0.0,0.0,0.0,0.0,0.0,1.7182,1.8199,1.8842,0.0,0.0,0.0,0.0,0.0,0.0,0.0,0.0,0.0,0.0,2.4052,2.4416,2.5247,2.5388,2.5418,2.5327,2.5276,2.5228,2.5254,2.5881,2.6346,0.0,0.0,0.0,0.0,0.0,0.0,0.0,0.0,0.0,0.0,0.0,0.0,0.0,0.0,0.0,0.0,0.0,0.0,0.0,0.0,0.0,0.0,0.0,0.0,0.0,0.0,0.0,1.2056,1.2049,0.0,0.0,0.0,0.0,0.0,0.0,0.0,0.0,0.0,0.0,0.0,1.5401,1.5679,0.0,0.0,0.0,0.0,0.0,0.0,0.0,0.0,0.0,0.0,0.0,0.0,1.6532,1.6769,1.6905,1.6959,1.685,1.6543,1.5978,1.5175,1.4858,1.4494,1.4038,0.0,0.0,0.0,0.0,0.0,0.0,0.0,0.0,0.0,0.0,0.0,0.0,0.0,0.0,0.0,0.0,0.0,0.0,0.0,0.0,0.0,0.0,0.0,0.0,0.0,1.7116,0.0,0.0,0.0,0.0,0.0,0.0,0.0,0.0,0.0,0.0,0.0,2.2612,2.3852,2.4557,2.5056,2.5367,2.5856,2.6169,0.0,0.0,0.0,0.0,0.0,0.0,0.0,0.0,0.0,0.0,0.0,0.0,0.0,0.0,2.863,2.7278,2.7091,2.7053,2.6802,0.0,0.0,0.0,0.0,0.0,0.0,0.0,0.0,0.0,0.0,0.0,0.0,0.0,0.0,1.3246,0.0,1.2956,0.0,0.0,0.0,0.0,0.0,0.0,0.0,0.0,1.5446,1.5979,1.6652,1.6861,1.7069,0.0,1.6897,1.6439,0.0,0.0,0.0,0.0,0.0,0.0,0.0,0.0,1.6543,1.6756,1.6892,1.6921,1.684,1.6753,1.6323,1.5599,1.5518,1.5289,1.4861,1.5065,1.5383,0.0,0.0,0.0,0.0,0.0,0.0,0.0,0.0,0.0,0.0,0.0,0.0,0.0,0.0,0.0,0.0,0.0,0.0,0.0,0.0,0.0,0.0,0.0,1.7827,0.0,0.0,0.0,0.0,0.0,0.0,0.0,0.0,0.0,2.2004,2.2608,2.3362,2.4302,2.4961,2.5341,2.5365,0.0,0.0,0.0,0.0,0.0,0.0,0.0,2.801,2.801,2.8256,2.8463,2.8429,2.881,2.9284,2.9804,0.0,0.0,2.8127,2.7967,2.7944,2.7668,2.7682,2.7744,2.7792,2.7849,2.7892,0.0,0.0,0.0,0.0,0.0,0.0,0.0,0.0,1.49,1.4603,0.0,1.3934,0.0,0.0,0.0,0.0,0.0,1.5906,0.0,0.0,1.6663,1.6973,1.7388,1.7474,1.7578,1.779,1.7823,1.7874,1.7847,1.6383,0.0,0.0,0.0,0.0,0.0,0.0,1.6612,1.6756,1.6882,1.6953,1.6908,1.6792,1.6406,1.5802,1.5754,1.5754,1.5758,1.6343,1.6709,1.668,1.6565,0.0,0.0,0.0,0.0,0.0,0.0,0.0,0.0,0.0,0.0,0.0,0.0,0.0,0.0,0.0,0.0,0.0,0.0,0.0,0.0,1.8322,0.0,0.0,0.0,0.0,0.0,0.0,0.0,0.0,0.0,0.0,2.3555,2.3739,2.4129,2.5055,0.0,0.0,0.0,0.0,2.645,2.6537,2.7186,2.7705,2.7705,2.8344,2.8817,2.8843,0.0,0.0,2.9988,2.9921,2.9861,2.9904,2.9895,2.962,2.8799,2.8761,2.8629,2.7935,2.7911,2.7888,2.7909,2.8126,2.811,1.8687,0.0,0.0,0.0,0.0,1.7577,1.7205,1.6632,1.6581,1.6479,1.626,1.6126,0.0,0.0,0.0,0.0,0.0,0.0,1.693,1.7676,1.7786,1.8262,1.9016,1.9189,1.931,1.94,1.9044,1.8913,1.8917,1.8069,1.7562,1.7456,0.0,0.0,0.0,0.0,1.8014,1.7585,1.7676,1.7507,1.6972,1.702,1.6932,1.6656,1.6627,1.6615,1.6642,1.6821,1.6889,1.6834,1.6662,0.0,0.0,0.0,0.0,0.0,0.0,0.0,0.0,0.0,0.0,0.0,0.0,0.0,0.0,0.0,0.0,0.0,0.0,0.0,1.8451,1.851,1.8818,0.0,0.0,0.0,0.0,0.0,0.0,0.0,0.0,0.0,2.4264,2.4008,2.4062,0.0,0.0,2.5087,2.5136,2.6308,2.721,2.7268,2.8469,0.0,2.9386,2.954,2.9661,2.9661,2.9823,2.9926,2.9857,2.9806,2.9742,2.9771,2.9789,2.9748,2.9601,2.963,2.9634,2.9496,2.9532,2.9602,2.9656,2.9712,2.9711,2.0408,2.0085,1.9765,1.9385,1.9041,1.9026,1.8619,1.7972,1.7956,1.7741,1.7436,1.7307,1.7386,1.7582,1.7704,0.0,0.0,0.0,1.8179,1.8806,1.8847,1.9268,1.9907,2.0061,2.02,2.0325,2.0005,1.9935,2.0066,1.9704,1.9483,1.9406,0.0,0.0,1.8796,1.8972,1.8863,1.8513,1.8272,1.7961,1.7517,1.7345,1.7207,1.7109,1.7084,1.7079,1.7074,1.7048,1.7023,1.6998,1.7053,1.7087,0.0,0.0,0.0,0.0,0.0,0.0,0.0,0.0,0.0,0.0,0.0,1.6841,0.0,0.0,0.0,0.0,1.8436,1.8866,1.9098,1.942,0.0,0.0,0.0,0.0,0.0,0.0,0.0,2.3463,2.3677,2.399,2.454,2.4309,2.4261,2.4821,2.4886,2.5028,2.5435,0.0,2.7558,2.7973,2.9156,3.0026,3.0022,2.998,2.9956,2.9959,2.9901,2.9844,2.9764,2.9737,2.9691,2.9682,2.9727,2.9816,2.9876,3.001,3.0106,3.0192,3.0253,3.0311,3.0392,3.0439,3.0442,2.1564,2.1606,2.0825,2.0414,2.0304,2.0202,1.9749,1.9116,1.9047,1.8647,1.8008,1.7928,1.8192,1.8738,1.922,0.0,1.9465,1.9493,1.9588,1.9744,1.983,2.0008,2.0289,2.0337,2.0475,2.071,2.0743,2.0875,2.1103,2.1119,2.1198,2.1276,1.9923,1.9248,1.9289,1.9446,1.9498,1.9506,1.8834,1.8454,1.8339,1.7666,1.7318,1.7334,1.7248,1.7199,1.7199,1.7149,1.7095,1.7099,1.7618,1.7905,1.7901,0.0,0.0,0.0,0.0,0.0,0.0,0.0,0.0,0.0,0.0,0.0,0.0,0.0,0.0,0.0,1.9288,0.0,2.0008,2.0755,0.0,0.0,0.0,2.1808,2.2712,2.294,2.3364,2.422,0.0,0.0,2.4503,2.4555,2.4623,2.4676,2.4692,2.5012,2.5861,2.6709,2.7611,2.8392,2.9331,2.991,2.994,2.994,2.9916,2.9885,2.9834,2.9773,2.9701,2.9683,2.9655,2.9617,2.971,2.9825,2.9895,2.9991,3.0132,3.0187,3.0241,3.0311,3.0367,3.039,3.0402,2.2245,2.2352,2.2186,2.1479,2.0475,2.0526,2.0416,2.0144,2.0058,1.9946,1.9759,1.9607,1.9563,1.9675,1.9684,1.9759,1.9863,1.9762,1.9887,2.015,2.0183,2.0287,2.046,2.0611,2.0727,2.0778,2.0974,2.1135,2.1246,2.1403,2.1527,2.157,2.133,2.1152,2.102,2.1152,2.0928,2.0411,2.0274,1.9688,1.8622,1.7855,1.7455,1.7451,1.7383,1.7322,1.7269,1.7211,1.7124,1.7039,1.7631,1.7941,1.7917,1.8399,0.0,0.0,0.0,0.0,0.0,0.0,0.0,0.0,0.0,1.9172,1.959,0.0,2.0006,0.0,2.0785,2.1047,2.1113,2.1351,0.0,0.0,2.2435,2.2857,2.3673,2.3925,2.4154,2.4419,2.4471,2.4513,2.4503,2.4505,2.4534,2.4541,2.459,2.472,2.5042,2.6368,2.7412,2.7854,2.9075,2.9972,3.003,3.0014,2.9932,2.9823,2.9771,2.9709,2.9636,2.9645,2.9617,2.9607,2.971,2.9835,2.9876,2.9991,3.0117,3.0185,3.0266,3.0331,3.0392,3.0402,3.04,2.2886,2.302,2.2748,2.2188,2.1485,2.1555,2.15,2.133,2.1049,2.0889,2.0824,2.0804,2.0736,2.0729,2.0952,2.109,2.116,2.1072,2.1144,2.1324,2.1393,2.1463,2.1572,2.1444,2.142,2.1502,2.1423,2.1419,2.1526,2.1663,2.1768,2.1825,2.1976,2.1961,2.1877,2.1871,2.1682,2.1283,2.0952,2.009,1.868,1.8153,1.7753,1.7472,1.7359,1.7285,1.7261,1.7162,1.7223,1.7435,1.8083,1.8597,1.8945,1.9362,1.9615,0.0,0.0,0.0,0.0,0.0,0.0,0.0,0.0,0.0,0.0,0.0,2.094,2.129,2.1778,2.2099,2.2164,2.2538,2.2905,2.3316,2.3502,2.3759,2.4211,2.4356,2.4472,2.4532,2.4557,2.452,2.4503,2.4505,2.4498,2.45,2.4532,2.4711,2.5217,2.6381,2.7374,2.7925,2.9098,2.9972,3.0038,3.0022,2.9967,2.9834,2.9755,2.9673,2.9569,2.955,2.955,2.9569,2.9664,2.9789,2.9887,2.9951,3.0046,3.0135,3.0192,3.0246,3.0343,3.0361,3.0348,2.3504,2.3635,2.3056,2.2867,2.2932,2.2951,2.2764,2.2431,2.196,2.163,2.1435,2.1463,2.1532,2.1657,2.2235,2.2582,2.2626,2.2642,2.2642,2.266,2.2802,2.283,2.2794,2.2347,2.2213,2.2264,2.1853,2.1694,2.1827,2.1884,2.1972,2.2044,2.2168,2.2214,2.2214,2.2089,2.2044,2.2013,2.1242,2.016,1.882,1.8537,1.8107,1.7539,1.7297,1.7174,1.7178,1.7048,1.7293,1.7952,1.8633,1.9399,2.0256,2.0401,2.0567,0.0,2.0312,0.0,0.0,0.0,0.0,0.0,0.0,0.0,0.0,2.1455,2.1712,2.1935,2.2658,2.3125,2.318,2.3824,2.4248,2.4248,2.4375,2.4428,2.4424,2.4503,2.4564,2.4596,2.4615,2.4607,2.4547,2.4512,2.4505,2.4507,2.4505,2.4744,2.5514,2.6322,2.7238,2.831,2.9301,2.9953,3.0014,3.0022,2.9975,2.9834,2.9728,2.9655,2.9512,2.9492,2.9492,2.9512,2.9598,2.9745,2.9851,2.9901,2.9948,3.0049,3.0072,3.0116,3.0246,3.0299,3.0299,2.3931,2.4071,2.403,2.4034,2.4155,2.422,2.3678,2.2791,2.2642,2.2193,2.1543,2.1066,2.118,2.1682,2.1911,2.2343,2.2833,2.2848,2.29,2.3002,2.3038,2.2824,2.2419,2.2359,2.2151,2.1771,2.1744,2.1812,2.1884,2.2049,2.2137,2.2152,2.224,2.2282,2.2282,0.0,0.0,0.0,2.1376,2.0744,2.0271,1.9045,1.8299,1.8055,1.7438,0.0,1.7039,1.6972,1.7225,1.7912,1.8676,0.0,0.0,0.0,0.0,0.0,0.0,0.0,0.0,0.0,0.0,0.0,2.3181,2.3206,2.3312,2.36,2.3814,2.386,2.4005,2.4115,2.4142,2.4359,2.4522,2.4522,2.4596,2.4645,2.466,2.4692,2.4734,2.4684,2.4684,2.4687,2.4639,2.4564,2.4503,2.4513,2.4503,2.4595,2.4804,2.5651,2.6553,2.7539,2.9011,3.0,3.0087,3.0061,3.0018,2.9851,2.9747,2.9655,2.9522,2.9453,2.9443,2.9482,2.9608,2.9701,2.9745,2.9815,2.991,2.994,2.9929,3.0003,3.0178,3.0225,3.0225,2.3982,0.0,2.4208,2.4354,0.0,2.4564,2.4379,2.3967,2.3525,2.2781,2.1839,2.1525,2.1573,2.1939,2.2688,2.3217,2.3535,2.3957,2.4172,2.4225,2.3947,2.3911,2.4053,2.3096,2.2701,2.2811,2.2267,2.2036,2.2049,2.2197,2.224,2.224,2.2282,2.2313,2.2313,2.2313,2.2237,2.2106,2.1692,2.1211,2.0645,1.9835,1.9214,1.8749,1.7997,0.0,0.0,0.0,0.0,0.0,0.0,0.0,0.0,2.1538,0.0,2.2326,2.2537,2.2781,2.3128,2.3342,2.3573,2.3821,2.406,2.4192,2.4135,2.4357,2.4517,2.4542,2.4555,2.4561,2.4543,2.4637,2.4695,2.4714,2.4723,2.4734,2.4761,2.4776,2.4795,2.4757,2.4757,2.4726,2.4698,2.465,2.4572,2.4512,2.4564,2.458,2.469,2.5389,2.6448,2.779,2.8738,2.9569,2.9958,3.0022,2.9948,2.9825,2.9729,2.9608,2.9531,2.9443,2.9412,2.9453,2.956,2.9664,2.9701,2.9745,2.9815,2.9859,2.9849,2.9874,2.998,3.0061,3.0106,2.3839,2.3982,2.4103,2.4291,2.4477,2.4564,2.4795,2.5082,0.0,0.0,0.0,2.2081,2.2049,2.2258,2.3398,2.3991,2.417,2.4809,2.5121,2.5088,2.4671,2.4797,2.528,2.3703,2.3234,2.3695,2.2742,2.2295,2.2439,2.2513,2.2592,2.2742,2.2742,2.2728,2.2697,2.2697,2.2541,2.2228,2.208,2.1613,2.0836,2.0601,2.017,1.9497,1.8697,1.8559,1.9139,1.8552,1.8859,2.0236,2.0388,2.086,2.1803,2.2068,2.2364,2.276,2.2955,2.3218,2.3544,2.3674,2.3919,2.4247,2.4468,2.4569,2.4474,2.4574,2.4655,2.4714,2.4734,2.473,2.473,2.4776,2.4843,2.4836,2.4827,2.483,2.4842,2.4842,2.4846,2.4836,2.4795,2.4791,2.4722,2.4709,2.4666,2.4572,2.4623,2.4682,2.476,2.5397,2.6467,2.7748,2.8286,2.8809,2.9323,2.9417,2.9504,2.9487,2.941,2.9401,2.9483,2.9443,2.9402,2.9384,2.9501,2.9588,2.9645,2.9673,2.97,2.9736,2.9764,2.9773,2.979,2.9885,2.9948,2.3696,2.3839,2.3982,2.4151,2.4359,2.4528,2.489,2.5246,2.3961,2.3323,2.3153,2.2005,2.1859,2.2443,2.272,2.3177,2.3765,2.3947,2.4013,2.403,2.4016,2.3803,2.3419,2.3103,2.2841,2.256,2.2367,2.2674,2.3315,2.3394,2.3767,2.4345,2.4447,2.4368,2.4292,2.4277,2.3896,2.3123,2.236,2.1847,2.1544,2.0847,2.0384,2.0137,1.9386,1.9006,1.9103,1.9022,1.9414,2.041,2.0529,2.1043,2.2071,2.2341,2.2652,2.3079,2.3277,2.3488,2.3816,2.3958,2.4153,2.4447,2.4596,2.4684,2.466,2.4712,2.4783,2.4791,2.4834,2.483,2.4794,2.4898,2.4965,2.4983,2.4965,2.4973,2.496,2.4959,2.495,2.487,2.4834,2.4809,2.4783,2.4729,2.4682,2.4674,2.4674,2.469,2.4815,2.5426,2.6076,2.6566,2.7217,2.7679,2.7987,2.7873,2.8182,2.8615,2.8622,2.8793,2.9409,2.9441,2.939,2.9402,2.9441,2.9453,2.9512,2.9522,2.9579,2.9617,2.9626,2.9636,2.9701,2.9736,2.977,2.3616,2.3717,2.3903,2.4073,2.4224,2.4675,2.4885,2.4828,2.397,2.3601,2.3472,2.2163,2.1767,2.2142,2.2584,2.2946,2.3276,2.3753,2.3951,2.3934,2.3601,2.3579,2.372,2.2998,2.2779,2.2966,2.2592,2.2616,2.2979,2.3013,2.3403,2.4135,2.4579,2.4754,2.4613,2.4596,2.4181,2.3323,2.2878,2.236,2.1753,2.135,2.1111,2.1006,2.0262,2.0082,2.05,2.0154,2.0381,2.1292,2.1524,2.1898,2.2497,2.2786,2.3068,2.3393,2.3617,2.3827,2.4039,2.4266,2.441,2.4541,2.4679,2.4764,2.4742,2.4842,2.4903,2.491,2.4959,2.4985,2.4965,2.5005,2.505,2.5056,2.505,2.505,2.5018,2.5005,2.4972,2.4905,2.4849,2.4817,2.4806,2.4734,2.4687,2.469,2.469,2.4679,2.47,2.5016,2.5495,2.6012,2.6484,2.6927,2.7267,2.7403,2.7703,2.8372,2.8389,2.8643,2.9324,2.9431,2.9399,2.939,2.9382,2.9412,2.9443,2.9472,2.9521,2.9531,2.954,2.9569,2.9626,2.9683,2.9737,2.3595,2.3616,2.3882,2.4073,2.4235,2.4642,2.4684,2.4432,2.3798,2.3589,2.3456,2.2314,2.1796,2.189,2.2455,2.2687,2.2787,2.338,2.3661,2.3611,2.3169,2.3323,2.3866,2.2846,2.2711,2.3266,2.2785,2.2627,2.2778,2.2795,2.3171,2.3907,2.4538,2.4853,2.4914,2.4914,2.4581,2.3919,2.3626,2.2968,2.1888,2.1783,2.1723,2.163,2.1106,2.1103,2.1685,2.1278,2.137,2.2077,2.2422,2.2694,2.2919,2.3206,2.3457,2.366,2.3907,2.4123,2.4247,2.4454,2.4572,2.4572,2.4703,2.478,2.4805,2.491,2.4991,2.4998,2.505,2.5082,2.5082,2.5114,2.5126,2.5089,2.5089,2.5076,2.5031,2.4999,2.4992,2.4931,2.4856,2.4805,2.4795,2.4749,2.4692,2.4687,2.4698,2.4695,2.4692,2.4681,2.5016,2.546,2.577,2.6001,2.6623,2.6682,2.6978,2.779,2.7959,2.8306,2.8942,2.9283,2.939,2.939,2.939,2.9411,2.9411,2.9441,2.9471,2.9471,2.9501,2.9522,2.9617,2.9673,2.9719,2.3595,2.3616,2.3882,2.4219,2.4507,2.417,2.4193,2.4301,2.3259,2.2878,2.3029,2.2321,2.1984,2.1984,2.2084,2.2149,2.2149,2.2276,2.2421,2.2452,2.2429,2.253,2.268,2.2514,2.2562,2.2716,2.263,2.2914,2.3502,2.3605,2.4049,2.4787,2.4956,2.5257,2.5748,2.5817,2.5754,2.5658,2.4868,2.3648,2.2099,2.1928,2.1884,2.1884,2.1729,2.1774,2.1969,2.1972,2.2144,2.2508,2.2747,2.2982,2.3223,2.3457,2.366,2.3847,2.4064,2.4237,2.4376,2.4462,2.4512,2.4512,2.4645,2.4742,2.4787,2.4915,2.4998,2.5005,2.5082,2.5082,2.5089,2.5157,2.5162,2.5126,2.5101,2.5088,2.5082,2.5031,2.4999,2.4984,2.4882,2.4813,2.4798,2.4746,2.47,2.4692,2.4692,2.4692,2.4681,2.47,2.47,2.4847,2.4896,2.4987,2.5163,2.5051,2.5656,2.6271,2.6862,2.766,2.8484,2.9137,2.9402,2.9402,2.939,2.938,2.938,2.9399,2.9399,2.9429,2.948,2.954,2.9655,2.9701,2.9708,2.3595,2.3616,2.3903,2.4213,2.445,2.403,2.3761,2.3592,2.2915,2.2518,2.2333,2.2166,2.2135,2.2161,2.2178,2.2178,2.2192,2.2223,2.2254,2.2268,2.2349,2.2436,2.246,2.2528,2.2592,2.2663,2.2659,2.2827,2.3168,2.3595,2.3974,2.4301,2.4749,2.5117,2.535,2.5335,2.5287,2.5178,2.4842,2.41,2.303,2.2394,2.2135,2.2152,2.2123,2.2135,2.2231,2.2326,2.2494,2.2725,2.2965,2.3253,2.3458,2.3675,2.3847,2.4016,2.4171,2.4331,2.4429,2.4488,2.4503,2.4503,2.4588,2.466,2.4742,2.4813,2.4917,2.4985,2.5057,2.5113,2.5144,2.5174,2.5166,2.5168,2.5125,2.5095,2.5082,2.505,2.4999,2.4984,2.4889,2.4813,2.4805,2.4753,2.4707,2.4681,2.4681,2.4681,2.4681,2.4681,2.4681,2.4689,2.4723,2.4723,2.4723,2.4723,2.5324,2.6322,2.6899,2.7482,2.8746,2.9213,2.9463,2.9463,2.9431,2.9401,2.9382,2.9399,2.9388,2.9427,2.946,2.954,2.9664,2.9691,2.9717,2.3674,2.3754,2.3961,2.4229,2.4425,2.3783,2.3335,2.3018,2.2491,2.2078,2.1831,2.2007,2.2137,2.2223,2.2265,2.2313,2.2313,2.2313,2.2313,2.231,2.2377,2.2463,2.2515,2.2579,2.2646,2.2699,2.2699,2.2699,2.2767,2.3216,2.3509,2.3595,2.4109,2.4442,2.4574,2.4591,2.4665,2.4775,2.4589,2.4196,2.3602,2.2852,2.2408,2.2349,2.2335,2.2394,2.2429,2.2565,2.2725,2.2876,2.3175,2.3441,2.3623,2.3831,2.3996,2.4114,2.421,2.4312,2.4429,2.4454,2.4479,2.4461,2.453,2.4596,2.4668,2.4719,2.482,2.4917,2.5012,2.5076,2.5162,2.5174,2.5174,2.5205,2.5137,2.5095,2.5082,2.5031,2.4999,2.4984,2.487,2.4805,2.4783,2.4738,2.47,2.4681,2.4681,2.4681,2.4681,2.4681,2.4681,2.4681,2.4681,2.47,2.4681,2.47,2.544,2.6341,2.6908,2.7612,2.9027,2.9279,2.954,2.9521,2.9471,2.9423,2.9423,2.9421,2.9419,2.946,2.951,2.9579,2.9673,2.9718,2.9789,2.3861,2.4003,2.4124,2.4276,2.441,2.328,2.2852,2.2845,2.1859,2.1498,2.1694,2.1783,2.1884,2.203,2.2192,2.2296,2.2313,2.2296,2.2313,2.231,2.2419,2.2487,2.2515,2.2636,2.2703,2.2716,2.2712,2.2712,2.2716,2.275,2.275,2.2802,2.2892,2.3185,2.3739,2.3843,2.4218,2.4738,2.4239,2.3839,2.3736,2.3068,2.2644,2.2515,2.2487,2.2528,2.2579,2.2742,2.2881,2.307,2.336,2.358,2.3725,2.3938,2.4155,2.4265,2.4238,2.4284,2.4358,2.4385,2.4412,2.4421,2.4462,2.452,2.4599,2.466,2.4712,2.4794,2.487,2.4953,2.5057,2.5101,2.5125,2.518,2.5131,2.5088,2.5082,2.5031,2.4999,2.4977,2.4882,2.4783,2.4723,2.47,2.4692,2.4692,2.4692,2.4692,2.4692,2.47,2.47,2.4681,2.4681,2.4681,2.4681,2.4887,2.5252,2.6153,2.7121,2.76,2.8314,2.8989,2.9345,2.9578,2.9501,2.9471,2.9472,2.9491,2.9491,2.953,2.9588,2.9673,2.9719,2.9816,2.9887,2.4003,2.4124,2.4202,2.4025,2.3659,2.2935,2.246,2.2118,2.147,2.1278,2.1465,2.1603,2.1738,2.1884,2.2003,2.2123,2.2242,2.2282,2.2313,2.231,2.2377,2.246,2.2497,2.2592,2.2659,2.2699,2.2712,2.2712,2.2712,2.2712,2.2672,2.2649,2.2649,2.276,2.2939,2.3017,2.3405,2.4055,2.3894,2.3802,2.3784,2.3543,2.3154,2.2653,2.2619,2.2632,2.2676,2.279,2.2914,2.3045,2.3778,2.4248,2.4394,2.507,2.5556,2.5658,2.5246,2.4991,2.5004,2.4607,2.4339,2.4339,2.4348,2.4401,2.4472,2.453,2.4594,2.465,2.4738,2.4801,2.4886,2.498,2.5057,2.5107,2.5089,2.5044,2.5025,2.5024,2.4972,2.4924,2.482,2.4723,2.4703,2.4663,2.4629,2.4629,2.4629,2.4663,2.4687,2.4687,2.4695,2.4692,2.4681,2.4681,2.4681,2.5233,2.5823,2.6641,2.7486,2.8303,2.9045,2.9289,2.9626,2.9655,2.9578,2.9521,2.954,2.9531,2.9531,2.9578,2.9664,2.9692,2.9764,2.9825,2.9868,2.4151,2.4229,2.4229,2.3871,2.326,2.275,2.2194,2.1631,2.121,2.1103,2.1246,2.1403,2.1542,2.1678,2.1768,2.1901,2.2097,2.2211,2.2285,2.2285,2.2366,2.2419,2.2474,2.2542,2.2579,2.2619,2.2632,2.2649,2.2632,2.2632,2.2605,2.2569,2.2569,2.2555,2.2515,2.2555,2.2856,2.3251,2.3388,2.3416,2.3447,2.3667,2.3578,2.3198,2.3302,2.3302,2.3078,2.3163,2.338,2.3746,2.4468,2.496,2.5165,2.5845,2.6347,2.6435,2.579,2.5383,2.5362,2.4708,2.4257,2.4266,2.4275,2.4294,2.4358,2.4437,2.4498,2.4541,2.4615,2.4676,2.4746,2.4834,2.4945,2.5005,2.4999,2.4979,2.496,2.4945,2.4884,2.4846,2.4772,2.4714,2.4674,2.4615,2.4572,2.4572,2.4564,2.458,2.4623,2.4658,2.4682,2.4695,2.4676,2.4692,2.4831,2.5327,2.6097,2.6923,2.7617,2.8594,2.927,2.9514,2.9664,2.9673,2.9673,2.9617,2.9598,2.9588,2.9598,2.9636,2.9664,2.9691,2.9745,2.9816,2.9851,2.4281,2.4297,2.4281,2.3897,2.326,2.2678,2.2105,2.1559,2.1026,2.0909,2.1087,2.1183,2.1278,2.1418,2.1557,2.1679,2.1812,2.2051,2.2183,2.2211,2.2338,2.2408,2.2405,2.2474,2.2501,2.2501,2.2501,2.2501,2.2484,2.2501,2.2501,2.2484,2.247,2.2474,2.2487,2.2487,2.2501,2.26,2.2689,2.2695,2.2726,2.3419,2.3791,2.3843,2.4442,2.4497,2.386,2.3891,2.4268,2.4976,2.5339,2.5653,2.6037,2.6297,2.6365,2.6479,2.5797,2.5403,2.5364,2.4677,2.419,2.4191,2.4192,2.4229,2.4266,2.4339,2.4413,2.4542,2.4584,2.4632,2.4785,2.4909,2.49,2.4867,2.4898,2.4884,2.4877,2.4842,2.4783,2.4715,2.4679,2.4666,2.4607,2.453,2.4478,2.4478,2.4478,2.4486,2.4513,2.4557,2.4607,2.4666,2.4693,2.4693,2.5014,2.5458,2.6266,2.7046,2.7684,2.8435,2.8988,2.9326,2.9495,2.9551,2.9636,2.9607,2.956,2.956,2.9607,2.9636,2.9673,2.9682,2.9718,2.9773,2.9825,2.4281,2.4281,2.4281,2.3902,2.326,2.2643,2.2053,2.1406,2.0858,2.0712,2.0876,2.0925,2.1055,2.1246,2.1356,2.1465,2.154,2.1797,2.2022,2.2185,2.224,2.231,2.2377,2.2419,2.2432,2.2419,2.2377,2.2366,2.2349,2.2349,2.2335,2.2307,2.2335,2.2338,2.231,2.2394,2.2419,2.2432,2.2501,2.2764,2.3226,2.3531,2.3904,2.4372,2.4677,2.49,2.5206,2.4919,2.485,2.5112,2.5778,2.657,2.7268,2.7526,2.7682,2.7755,2.6624,2.5983,2.5899,2.485,2.4092,2.4066,2.4066,2.4075,2.4095,2.418,2.4467,2.4947,2.5115,2.5347,2.594,2.6135,2.5741,2.4874,2.4776,2.4836,2.481,2.4726,2.4671,2.4639,2.4541,2.4472,2.4446,2.4393,2.4347,2.4366,2.4366,2.4375,2.4429,2.4493,2.449,2.4539,2.4611,2.4955,2.5485,2.5942,2.6521,2.7053,2.7585,2.8164,2.8698,2.9007,2.9195,2.9467,2.9542,2.9569,2.955,2.954,2.956,2.9588,2.9569,2.9598,2.9673,2.9719,2.9755,2.4281,2.4281,2.4281,2.3917,2.3306,2.2887,2.2214,2.1432,2.1002,2.0778,2.0725,2.0695,2.0826,2.107,2.1343,2.1408,2.1389,2.1787,2.2135,2.2282,2.2176,2.2194,2.2231,2.2262,2.2245,2.2248,2.2192,2.2149,2.2166,2.2149,2.2118,2.2104,2.2163,2.2211,2.2214,2.2282,2.2321,2.2383,2.2691,2.3105,2.3582,2.4142,2.4686,2.5132,2.5422,2.5782,2.6241,2.597,2.579,2.5874,2.6467,2.7186,2.7886,2.8045,2.8264,2.8193,2.7423,2.6692,2.6579,2.5299,2.4372,2.4343,2.4096,2.3953,2.402,2.4207,2.4777,2.5193,2.5619,2.6048,2.654,2.6682,2.6244,2.5522,2.5526,2.5381,2.5149,2.4752,2.4534,2.4481,2.4402,2.433,2.4303,2.4266,2.4219,2.421,2.4238,2.4238,2.433,2.4561,2.469,2.4949,2.5356,2.5736,2.6116,2.6488,2.6842,2.7149,2.7419,2.7942,2.8465,2.8559,2.8708,2.9289,2.954,2.9501,2.9481,2.9414,2.9424,2.9433,2.9433,2.9482,2.9531,2.9579,2.9617,2.4281,2.4281,2.4281,2.3963,2.3409,2.3286,2.2636,2.1675,2.1461,2.1188,2.0805,2.0839,2.0846,2.1076,2.1696,2.1769,2.152,2.2134,2.2541,2.2555,2.2377,2.2193,2.2032,2.1998,2.2001,2.1986,2.1911,2.1884,2.1901,2.1884,2.1899,2.1899,2.1972,2.2061,2.2154,2.22,2.224,2.2381,2.3042,2.3444,2.3665,2.4984,2.5833,2.5918,2.6464,2.6788,2.6756,2.6753,2.6854,2.6989,2.7125,2.7391,2.7701,2.7954,2.8136,2.8264,2.7709,2.7356,2.7031,2.5898,2.5048,2.4989,2.4382,2.3934,2.4233,2.4661,2.5139,2.5539,2.6129,2.66,2.6732,2.6827,2.6731,2.6661,2.6573,2.6302,2.5709,2.4949,2.4579,2.4349,2.4238,2.4201,2.4199,2.4123,2.4103,2.4075,2.4094,2.4102,2.4376,2.4754,2.5246,2.5617,2.5931,2.6291,2.6587,2.6772,2.7103,2.7177,2.738,2.7712,2.8249,2.8389,2.8614,2.9154,2.9441,2.9392,2.9361,2.931,2.927,2.9259,2.927,2.9322,2.9382,2.9433,2.9482,2.4281,2.4281,2.4281,2.421,2.3963,2.3533,2.3137,2.274,2.2247,2.1979,2.1882,2.1897,2.1908,2.2157,2.2427,2.255,2.2514,2.2849,2.3067,2.312,2.3093,2.2553,2.198,2.1796,2.1783,2.1783,2.1706,2.1679,2.1679,2.1694,2.1708,2.1753,2.1842,2.1915,2.1974,2.2123,2.22,2.2327,2.3038,2.3742,2.4284,2.5164,2.5944,2.6487,2.669,2.6775,2.6775,2.6775,2.6891,2.7054,2.7182,2.7371,2.76,2.7792,2.7979,2.8084,2.7614,2.7238,2.7052,2.6272,2.5709,2.559,2.4867,2.4693,2.529,2.5033,2.557,2.6356,2.7025,2.7357,2.7852,2.7967,2.7973,2.7882,2.7243,2.6387,2.5653,2.5219,2.4859,2.4299,2.4103,2.4056,2.4026,2.4014,2.3955,2.3945,2.3998,2.412,2.4526,2.5041,2.555,2.5958,2.6308,2.6683,2.6986,2.715,2.7267,2.7239,2.7362,2.7482,2.8054,2.8516,2.8862,2.9299,2.9235,2.9192,2.9167,2.9123,2.9112,2.9052,2.9082,2.9093,2.9192,2.9257,2.933,2.4276,2.4255,2.4255,2.4234,2.4147,2.3764,2.3442,2.3176,2.2808,2.2498,2.2408,2.2346,2.2418,2.2543,2.2973,2.3019,2.2904,2.3394,2.3613,2.3665,2.3706,2.3108,2.2261,2.18,2.1619,2.1649,2.1556,2.1527,2.1542,2.1574,2.1635,2.1679,2.1753,2.184,2.1957,2.2046,2.2166,2.2425,2.326,2.4101,2.4525,2.5524,2.6184,2.664,2.6691,2.6708,2.6758,2.6825,2.6908,2.7039,2.7135,2.7293,2.7542,2.7719,2.7911,2.8095,2.7745,2.7584,2.7424,2.6782,2.6302,2.6103,2.5435,2.527,2.5618,2.562,2.6236,2.6923,2.7433,2.789,2.8275,2.8445,2.8401,2.8239,2.7669,2.6758,2.5776,2.535,2.4811,2.4236,2.3943,2.3894,2.3873,2.3842,2.381,2.384,2.4115,2.4359,2.4732,2.5314,2.5895,2.6363,2.6795,2.7227,2.7351,2.7446,2.7394,2.7373,2.7179,2.7306,2.7761,2.8377,2.8761,2.9012,2.8984,2.8968,2.8929,2.8881,2.8846,2.8834,2.8822,2.887,2.8957,2.9014,2.9104,2.4255,2.4202,2.4202,2.4124,2.4003,2.3988,2.3716,2.3305,2.3234,2.2987,2.2697,2.2532,2.2744,2.2635,2.3449,2.3417,2.3011,2.3812,2.4112,2.4188,2.4087,2.3547,2.2556,2.1891,2.1628,2.1575,2.1448,2.1433,2.148,2.1557,2.1588,2.1634,2.1754,2.1871,2.1972,2.2013,2.2132,2.2535,2.3725,2.4384,2.4791,2.5842,2.6656,2.6741,2.6792,2.6825,2.6908,2.6975,2.7024,2.704,2.707,2.7261,2.7494,2.7704,2.7864,2.8014,2.8055,2.8079,2.7988,2.7297,2.6851,2.669,2.6012,2.5647,2.5963,2.6352,2.6721,2.7179,2.7772,2.8021,2.8124,2.816,2.8164,2.8128,2.8071,2.7486,2.6339,2.5479,2.4761,2.392,2.3783,2.375,2.37,2.3667,2.3652,2.3632,2.3997,2.4522,2.5043,2.5699,2.6339,2.6908,2.737,2.7822,2.7802,2.7731,2.761,2.7499,2.7109,2.7095,2.7388,2.792,2.8384,2.8646,2.8645,2.8657,2.8632,2.8612,2.8549,2.8536,2.8523,2.8594,2.8694,2.8731,2.8803,2.4354,2.4202,2.4202,2.4124,2.4003,2.3982,2.3912,2.3781,2.3916,2.3805,2.3784,2.38,2.381,2.3866,2.409,2.4213,2.4044,2.4441,2.4701,2.474,2.4277,2.3734,2.298,2.2358,2.1859,2.1564,2.1417,2.1464,2.1559,2.1588,2.1619,2.1679,2.1754,2.1797,2.1943,2.2104,2.2192,2.2561,2.385,2.4607,2.4946,2.6123,2.6942,2.6942,2.6958,2.699,2.7055,2.707,2.7151,2.7246,2.7244,2.7355,2.7554,2.7716,2.7864,2.8,2.8088,2.813,2.8017,2.7717,2.7481,2.7329,2.6673,2.6417,2.7052,2.6745,2.6992,2.7427,2.7787,2.789,2.7908,2.7957,2.7943,2.7893,2.7872,2.7348,2.6056,2.5683,2.5046,2.4053,2.3658,2.3618,2.3544,2.3487,2.3477,2.3496,2.395,2.4577,2.5284,2.5983,2.6571,2.7115,2.7309,2.7595,2.7504,2.7328,2.7118,2.697,2.6694,2.6599,2.6906,2.7193,2.7549,2.7969,2.8331,2.8309,2.8268,2.8259,2.8191,2.8191,2.8219,2.8313,2.8375,2.8432,2.8549,2.4374,2.4187,2.4145,2.4024,2.3903,2.3839,2.3882,2.3982,2.4061,2.4166,2.425,2.4297,2.4281,2.4317,2.4436,2.4503,2.462,2.4802,2.4946,2.4969,2.4732,2.4367,2.3756,2.3104,2.2492,2.1691,2.1526,2.1619,2.1663,2.1723,2.1768,2.1796,2.1871,2.1988,2.2075,2.2234,2.2335,2.2719,2.3964,2.481,2.5062,2.6297,2.7136,2.7185,2.7233,2.7263,2.734,2.7386,2.7491,2.7615,2.7615,2.7585,2.7644,2.7792,2.7922,2.8042,2.8042,2.8056,2.8,2.781,2.758,2.7615,2.7063,2.7137,2.7344,2.7113,2.7156,2.7525,2.7657,2.7674,2.7704,2.7754,2.7721,2.7733,2.773,2.7137,2.5954,2.5661,2.518,2.3922,2.3441,2.3418,2.3372,2.3324,2.3265,2.3263,2.3854,2.4489,2.5125,2.5833,2.6509,2.6968,2.7087,2.7165,2.707,2.6838,2.6453,2.6201,2.588,2.5877,2.6051,2.6314,2.6571,2.7198,2.7876,2.7879,2.7836,2.7842,2.7856,2.7868,2.7911,2.7965,2.8081,2.8178,2.834,2.4395,2.4208,2.4082,2.3961,2.3818,2.3739,2.3818,2.3982,2.4003,2.413,2.4276,2.4281,2.4317,2.4359,2.4457,2.4559,2.4726,2.4866,2.5025,2.5134,2.5256,2.4924,2.4442,2.3849,2.3127,2.199,2.1787,2.1797,2.1886,2.1928,2.1988,2.2001,2.2149,2.2248,2.2349,2.2415,2.2525,2.2848,2.4206,2.5043,2.5328,2.6506,2.733,2.7478,2.7524,2.76,2.7689,2.7763,2.7864,2.8021,2.8053,2.7982,2.7922,2.7954,2.8053,2.8126,2.8081,2.8071,2.8014,2.778,2.7554,2.7526,2.7388,2.7341,2.7388,2.7384,2.7413,2.7459,2.7554,2.7585,2.7585,2.7694,2.7707,2.7666,2.7628,2.6944,2.5985,2.5499,2.4688,2.3714,2.3324,2.3301,2.3241,2.318,2.3107,2.3155,2.3754,2.4382,2.5004,2.5648,2.6327,2.6822,2.6985,2.6858,2.6742,2.6674,2.6252,2.5914,2.5478,2.553,2.5614,2.5916,2.6362,2.6919,2.7384,2.7402,2.7417,2.745,2.7465,2.7511,2.7569,2.7642,2.7777,2.7925,2.8109,2.4467,2.4276,2.4208,2.4082,2.3982,2.3961,2.3946,2.4003,2.4124,2.4187,2.4229,2.4261,2.438,2.4441,2.4477,2.4661,2.4886,2.5025,2.5162,2.5359,2.5535,2.5346,2.4971,2.4497,2.3806,2.3123,2.257,2.2286,2.2194,2.224,2.2426,2.2372,2.2527,2.2624,2.2804,2.2729,2.305,2.3454,2.4699,2.5468,2.5881,2.6905,2.7779,2.7844,2.7872,2.7943,2.8077,2.8119,2.8187,2.8304,2.8317,2.8331,2.8349,2.8295,2.8286,2.8246,2.8209,2.8168,2.8126,2.7864,2.7686,2.7627,2.7557,2.7483,2.7481,2.7496,2.7542,2.7585,2.7644,2.7659,2.7617,2.7768,2.7798,2.7654,2.7353,2.6733,2.5839,2.5179,2.453,2.3567,2.3336,2.3205,2.3168,2.3132,2.3082,2.3137,2.3501,2.4116,2.4767,2.5429,2.6128,2.6539,2.6873,2.6657,2.6435,2.6401,2.6213,2.5956,2.5669,2.5686,2.5771,2.5884,2.6263,2.6674,2.6923,2.6972,2.7006,2.7055,2.7119,2.7182,2.7244,2.7322,2.7539,2.7751,2.7911,2.4589,2.4462,2.4317,2.4255,2.4234,2.4114,2.4151,2.4255,2.4333,2.4374,2.44,2.4462,2.4503,2.4544,2.4641,2.4842,2.5084,2.5185,2.5394,2.5659,2.5815,2.5935,2.568,2.5292,2.4785,2.4333,2.3858,2.3179,2.2672,2.3042,2.3196,2.3442,2.3738,2.4089,2.423,2.4404,2.4388,2.4779,2.5654,2.6346,2.6494,2.7673,2.8147,2.8281,2.8313,2.8378,2.8474,2.8518,2.8569,2.8644,2.8675,2.8694,2.8706,2.87,2.8594,2.8484,2.8367,2.8291,2.8237,2.7993,2.7836,2.7745,2.7657,2.7627,2.7644,2.7674,2.7701,2.776,2.7789,2.7832,2.7868,2.7982,2.8025,2.7982,2.7709,2.704,2.616,2.5552,2.4694,2.3807,2.3507,2.336,2.318,2.3132,2.3082,2.319,2.3349,2.3889,2.4552,2.5045,2.5675,2.6251,2.6557,2.6485,2.6219,2.6101,2.5897,2.5657,2.5715,2.573,2.5726,2.576,2.5911,2.6208,2.6383,2.659,2.6624,2.6674,2.6775,2.6891,2.7006,2.7151,2.7355,2.7554,2.7748,2.4806,2.469,2.4508,2.4503,2.4544,2.4369,2.4405,2.4564,2.46,2.4625,2.4686,2.469,2.469,2.4731,2.4871,2.5103,2.5429,2.5492,2.5717,2.6028,2.6209,2.6419,2.6538,2.627,2.5759,2.5502,2.5189,2.4625,2.3641,2.3999,2.4401,2.4615,2.5288,2.5653,2.5656,2.5625,2.5973,2.6279,2.688,2.7344,2.7755,2.8252,2.8652,2.8755,2.8773,2.8797,2.8838,2.885,2.8904,2.8968,2.8991,2.9003,2.9037,2.9055,2.8964,2.8761,2.8574,2.8471,2.838,2.8232,2.8091,2.8017,2.7904,2.7886,2.7929,2.8,2.7978,2.8037,2.8065,2.812,2.8219,2.8291,2.8344,2.8342,2.8227,2.7838,2.6898,2.6113,2.5407,2.4624,2.397,2.3647,2.3571,2.3271,2.3259,2.3236,2.34,2.3786,2.4356,2.4449,2.5014,2.579,2.6187,2.623,2.6059,2.5778,2.5446,2.4996,2.5293,2.5539,2.5499,2.5492,2.5727,2.6046,2.6118,2.6296,2.6295,2.6399,2.6589,2.6742,2.6842,2.699,2.7246,2.7481,2.7662,2.5052,2.5013,2.495,2.4926,2.4926,2.4906,2.4906,2.4946,2.4946,2.4946,2.4985,2.4966,2.4989,2.5091,2.5262,2.5511,2.5754,2.5919,2.6154,2.647,2.6641,2.6856,2.709,2.6666,2.6567,2.645,2.6134,2.5265,2.4759,2.5253,2.5613,2.579,2.6002,2.6081,2.6523,2.6645,2.6363,2.6629,2.7391,2.8154,2.8714,2.8957,2.9042,2.906,2.9071,2.9112,2.9155,2.9166,2.9188,2.9249,2.9259,2.927,2.927,2.927,2.9257,2.9134,2.897,2.8749,2.87,2.8549,2.8414,2.8375,2.8331,2.8362,2.8391,2.8433,2.8466,2.8504,2.8516,2.8554,2.8646,2.8725,2.873,2.8607,2.8439,2.8124,2.7486,2.7074,2.6309,2.5729,2.5162,2.453,2.4168,2.3779,2.3448,2.3432,2.3499,2.3886,2.4213,2.4403,2.458,2.5385,2.5869,2.5936,2.5853,2.5598,2.5061,2.4506,2.4979,2.5362,2.5225,2.527,2.5773,2.5992,2.6064,2.6118,2.6222,2.6346,2.6486,2.664,2.6792,2.6974,2.7182,2.7371,2.7589,2.5473,2.5262,2.5224,2.5262,2.532,2.5262,2.5262,2.532,2.5352,2.5336,2.5355,2.5339,2.5432,2.5567,2.5738,2.5994,2.6243,2.6366,2.659,2.689,2.7068,2.7239,2.7495,2.7405,2.7333,2.7163,2.7293,2.7206,2.6652,2.6507,2.6808,2.7022,2.7449,2.7867,2.7739,2.7954,2.8112,2.8332,2.8672,2.9018,2.9291,2.9414,2.9434,2.9434,2.9424,2.9434,2.9463,2.9482,2.9492,2.954,2.954,2.9522,2.954,2.9531,2.9511,2.9441,2.9299,2.9097,2.8934,2.8791,2.8731,2.8694,2.8694,2.8707,2.8808,2.8906,2.8968,2.9001,2.8994,2.9027,2.9103,2.9185,2.9246,2.9138,2.8919,2.8604,2.8316,2.7979,2.7473,2.6903,2.6389,2.5864,2.5245,2.4671,2.4289,2.4016,2.3951,2.4059,2.4398,2.4682,2.4845,2.5099,2.5465,2.5689,2.5561,2.5348,2.4755,2.4417,2.5101,2.5294,2.498,2.5078,2.5754,2.6082,2.6136,2.6188,2.6221,2.631,2.6452,2.6623,2.6792,2.699,2.7198,2.7327,2.7498,2.5937,2.5645,2.5624,2.5661,2.5735,2.5642,2.5661,2.5735,2.5768,2.5752,2.577,2.5791,2.5901,2.6082,2.6244,2.6453,2.6758,2.6857,2.7084,2.7289,2.7457,2.7651,2.7883,2.7994,2.7919,2.7609,2.8246,2.831,2.815,2.8037,2.807,2.8183,2.8613,2.9034,2.926,2.9266,2.9269,2.9383,2.9486,2.9617,2.9664,2.971,2.9728,2.9728,2.9747,2.9747,2.9738,2.9719,2.9719,2.9719,2.971,2.9682,2.971,2.9701,2.9664,2.9598,2.9513,2.9433,2.9228,2.9104,2.8984,2.8984,2.9064,2.9158,2.9227,2.9358,2.9456,2.9467,2.9486,2.9505,2.9588,2.9668,2.9722,2.9756,2.9723,2.9366,2.9049,2.884,2.8518,2.7964,2.758,2.7443,2.6741,2.5838,2.526,2.4766,2.4528,2.4399,2.4579,2.4911,2.4839,2.4905,2.4874,2.5046,2.4889,2.4693,2.4213,2.4268,2.4944,2.5242,2.4887,2.5363,2.6182,2.633,2.6295,2.6294,2.6345,2.6381,2.6418,2.6623,2.6825,2.7039,2.7215,2.7327,2.7376,2.6366,2.6314,2.6207,2.6136,2.6152,2.6152,2.6136,2.6152,2.6152,2.6136,2.6171,2.6242,2.6418,2.6607,2.6741,2.6923,2.7165,2.7413,2.7595,2.776,2.7933,2.8119,2.8295,2.8422,2.854,2.8651,2.8915,2.902,2.9119,2.9035,2.9128,2.9248,2.9349,2.9465,2.9598,2.9681,2.9771,2.9841,2.9866,2.9874,2.9874,2.9883,2.9891,2.9883,2.9885,2.9887,2.9887,2.9853,2.9808,2.9816,2.9808,2.979,2.9799,2.979,2.9754,2.9718,2.9709,2.9636,2.9541,2.9402,2.9322,2.9375,2.9494,2.9598,2.9624,2.9775,2.9867,2.9904,2.9885,2.9931,3.0018,3.0109,3.0096,3.011,3.0124,3.0023,2.9832,2.9864,2.9506,2.9008,2.8732,2.8629,2.8322,2.7427,2.6521,2.6015,2.5555,2.5408,2.495,2.5057,2.4724,2.458,2.4354,2.4247,2.4024,2.3822,2.3784,2.3942,2.441,2.4743,2.4808,2.5553,2.6354,2.6555,2.6503,2.6486,2.6485,2.6486,2.6555,2.6691,2.6842,2.7023,2.7135,2.7247,2.7215,2.6725,2.6775,2.6708,2.6607,2.6487,2.6504,2.6504,2.6504,2.6504,2.6521,2.6573,2.6758,2.6907,2.7036,2.7274,2.7428,2.758,2.7847,2.8017,2.816,2.8313,2.8471,2.86,2.8737,2.8858,2.9003,2.9127,2.9267,2.9404,2.956,2.9636,2.9664,2.97,2.9754,2.9832,2.9899,2.9983,3.0026,3.0022,3.0022,3.0022,3.0022,3.003,3.0022,3.0014,3.0026,3.0026,2.9991,2.9967,2.9943,2.9926,2.9891,2.9866,2.9866,2.9849,2.9823,2.9834,2.9825,2.9809,2.9664,2.9579,2.9653,2.9784,2.9907,2.9943,3.0066,3.0181,3.0228,3.0235,3.0241,3.029,3.0342,3.037,3.0386,3.0416,3.0418,3.0428,3.0404,3.0321,2.9738,2.9806,2.9873,2.9487,2.9018,2.8107,2.7279,2.6829,2.6324,2.5764,2.5292,2.499,2.4572,2.4321,2.4114,2.3927,2.3718,2.3526,2.3713,2.3972,2.4399,2.4841,2.5497,2.621,2.6453,2.6691,2.6657,2.664,2.664,2.6691,2.6742,2.6842,2.6958,2.7055,2.7151,2.707,2.704,2.7121,2.7153,2.7023,2.6841,2.6825,2.6858,2.6858,2.6858,2.6907,2.7004,2.726,2.7382,2.7504,2.7713,2.7915,2.8059,2.8268,2.8401,2.8523,2.8625,2.8731,2.8858,2.8964,2.9037,2.916,2.9299,2.9443,2.956,2.9664,2.9755,2.9842,2.9945,2.9959,2.9983,3.0061,3.0132,3.0132,3.0132,3.0132,3.0132,3.0132,3.0132,3.0125,3.0098,3.0083,3.0076,3.0061,3.0065,3.003,3.0014,2.9988,2.9972,2.9975,2.9967,2.9951,2.9943,2.9962,2.9937,2.9885,2.9851,2.9929,3.0049,3.0142,3.0228,3.0322,3.0381,3.0433,3.0455,3.0467,3.0477,3.0534,3.0546,3.0554,3.0603,3.0642,3.063,3.063,3.0626,3.0455,3.0552,3.0506,3.0287,2.9771,2.8879,2.8033,2.7436,2.6861,2.6224,2.5778,2.5416,2.493,2.4419,2.4229,2.4036,2.3821,2.3641,2.3596,2.393,2.4492,2.5007,2.5624,2.6227,2.6733,2.6908,2.6826,2.6775,2.6725,2.6742,2.6758,2.6859,2.6942,2.6942,2.7024,2.6908,2.7294,2.7388,2.745,2.734,2.7133,2.7085,2.7133,2.7197,2.7213,2.7324,2.7478,2.7642,2.78,2.7971,2.8169,2.8317,2.8466,2.8657,2.8785,2.881,2.8899,2.901,2.9089,2.9167,2.9235,2.9322,2.9434,2.956,2.9683,2.9755,2.9834,2.9929,3.0018,3.008,3.0102,3.015,3.0185,3.0185,3.0178,3.019,3.019,3.019,3.019,3.0183,3.0142,3.0109,3.0121,3.0132,3.011,3.0076,3.0083,3.0076,3.0068,3.0068,3.0087,3.0087,3.0087,3.0095,3.0068,3.0068,3.0106,3.0145,3.0247,3.0348,3.0458,3.052,3.053,3.0564,3.0567,3.0613,3.0645,3.0676,3.0678,3.0698,3.0755,3.0764,3.0748,3.0751,3.0739,3.0727,3.0764,3.0767,3.0701,3.0374,2.95,2.8724,2.806,2.7415,2.6791,2.6343,2.6008,2.5059,2.4488,2.4294,2.4095,2.3912,2.3743,2.3678,2.383,2.4348,2.4941,2.5533,2.6191,2.6924,2.7038,2.6908,2.6842,2.6775,2.6775,2.6758,2.6859,2.6925,2.6909,2.6893,2.6792,2.7524,2.7615,2.7612,2.7642,2.7659,2.7494,2.7461,2.7569,2.7674,2.7795,2.7911,2.8095,2.8214,2.8357,2.8513,2.8669,2.8779,2.8975,2.9067,2.9078,2.916,2.9235,2.9299,2.9361,2.9441,2.9521,2.9598,2.9682,2.9764,2.9832,2.991,2.9983,3.0061,3.0113,3.015,3.0185,3.0204,3.0204,3.0204,3.0204,3.0211,3.0211,3.0211,3.0211,3.0178,3.0171,3.0171,3.0176,3.0161,3.0128,3.0135,3.0142,3.0135,3.0135,3.0176,3.0169,3.0176,3.0164,3.0173,3.0181,3.0247,3.0299,3.0354,3.0453,3.0545,3.0558,3.0613,3.0657,3.0657,3.0676,3.0697,3.0746,3.0764,3.0751,3.0784,3.0789,3.0772,3.0774,3.0769,3.0778,3.0784,3.073,3.0664,3.0597,2.9917,2.9673,2.9129,2.829,2.7605,2.7093,2.6643,2.5324,2.452,2.4348,2.4153,2.3925,2.3743,2.3629,2.372,2.4045,2.4681,2.5439,2.6177,2.6935,2.6998,2.7006,2.6909,2.6826,2.6775,2.6758,2.6842,2.6859,2.6809,2.6775,2.6725,2.7792,2.7904,2.7904,2.8035,2.8132,2.7864,2.7792,2.7918,2.8119,2.8228,2.8309,2.8492,2.8644,2.8743,2.8863,2.8991,2.9082,2.9232,2.9328,2.9339,2.9402,2.9472,2.9522,2.9561,2.9626,2.9701,2.9763,2.9841,2.9885,2.9951,3.0014,3.0076,3.0101,3.0171,3.0206,3.0219,3.0206,3.0213,3.0219,3.0233,3.0233,3.0233,3.0245,3.0245,3.0245,3.0245,3.0245,3.0239,3.0213,3.018,3.018,3.0213,3.018,3.0206,3.0245,3.0245,3.0245,3.0221,3.0235,3.0292,3.0336,3.0377,3.0422,3.0481,3.0588,3.0617,3.0645,3.0668,3.0694,3.0704,3.0717,3.0767,3.0773,3.0778,3.0786,3.0794,3.0796,3.0796,3.0767,3.0781,3.0742,3.0685,3.0611,3.0534,3.0292,3.0279,3.0227,2.9295,2.8358,2.7747,2.7048,2.5745,2.4669,2.4376,2.4152,2.3925,2.3754,2.3585,2.3703,2.3848,2.4686,2.5502,2.6214,2.6874,2.7009,2.7087,2.6942,2.6842,2.6826,2.6792,2.6825,2.6792,2.6725,2.6725,2.6759,2.8136,2.8313,2.8313,2.8409,2.8525,2.8251,2.8201,2.8335,2.8507,2.8614,2.8657,2.8899,2.9026,2.9093,2.9174,2.928,2.9373,2.9472,2.954,2.9589,2.9645,2.9682,2.9736,2.978,2.9823,2.9883,2.994,3.0007,3.0014,3.0076,3.0135,3.0178,3.0213,3.0253,3.0279,3.0286,3.0247,3.0247,3.0279,3.0292,3.0292,3.0312,3.0312,3.0312,3.0312,3.0286,3.0286,3.0286,3.0286,3.0279,3.0286,3.0292,3.0292,3.0299,3.0318,3.0318,3.0324,3.0324,3.0329,3.0385,3.0419,3.0458,3.0471,3.0516,3.058,3.0633,3.0657,3.0676,3.0697,3.0704,3.0717,3.0727,3.0736,3.0767,3.0798,3.0784,3.0789,3.0784,3.0751,3.0719,3.0678,3.0614,3.0572,3.0505,3.0411,3.0342,3.0228,2.9901,2.8966,2.811,2.73,2.6086,2.5118,2.445,2.4178,2.4008,2.3768,2.3623,2.3507,2.3724,2.4641,2.5563,2.6193,2.6757,2.7085,2.7166,2.7023,2.6942,2.6909,2.6876,2.6892,2.6876,2.6825,2.6875,2.6892,2.8474,2.8594,2.8682,2.8785,2.889,2.8968,2.8911,2.8839,2.892,2.8982,2.9045,2.9206,2.933,2.9382,2.9461,2.9541,2.9608,2.9691,2.9755,2.9808,2.9851,2.9874,2.9924,2.9964,3.0003,3.0049,3.0087,3.0161,3.0176,3.0199,3.0234,3.028,3.0305,3.0342,3.0365,3.0408,3.0334,3.031,3.0367,3.0367,3.0373,3.0392,3.0373,3.0373,3.0367,3.0361,3.0329,3.0323,3.0317,3.0298,3.0349,3.0361,3.0371,3.0414,3.045,3.045,3.045,3.0436,3.0466,3.0453,3.0469,3.0495,3.0515,3.0535,3.0585,3.0614,3.0673,3.0672,3.0687,3.0674,3.0681,3.0688,3.0717,3.0724,3.0752,3.0749,3.0733,3.0724,3.0707,3.0653,3.0611,3.0557,3.0505,3.0447,3.0348,3.028,3.015,2.9954,2.952,2.8628,2.7829,2.6639,2.5805,2.5199,2.4465,2.4176,2.3893,2.3667,2.3761,2.4074,2.5041,2.5864,2.6282,2.671,2.7165,2.723,2.7069,2.7023,2.6975,2.6975,2.6958,2.6942,2.6959,2.699,2.7055,2.8827,2.895,2.9056,2.9169,2.9299,2.9486,2.9504,2.9398,2.9348,2.9357,2.9415,2.9551,2.9626,2.9654,2.9727,2.9798,2.9872,2.9897,2.9964,3.0007,2.9996,3.0049,3.0111,3.0159,3.0187,3.0214,3.0234,3.0273,3.0286,3.0324,3.0348,3.0383,3.0417,3.0455,3.0486,3.0516,3.0496,3.0467,3.0446,3.0479,3.0474,3.0474,3.0474,3.0469,3.0458,3.0411,3.0381,3.0375,3.0383,3.0364,3.0419,3.0431,3.0433,3.0469,3.0479,3.0493,3.0474,3.0474,3.0479,3.0485,3.0481,3.0496,3.0525,3.0564,3.0586,3.0617,3.0637,3.0653,3.0649,3.0641,3.0664,3.0671,3.0674,3.0678,3.0671,3.068,3.0672,3.0665,3.0633,3.0567,3.0516,3.046,3.0414,3.0361,3.0311,3.0234,3.0192,3.0097,2.968,2.8981,2.8375,2.7554,2.6755,2.6033,2.5297,2.4756,2.4733,2.4719,2.4778,2.5184,2.5808,2.6196,2.6648,2.6979,2.7332,2.7277,2.7182,2.7086,2.7039,2.7055,2.7105,2.7153,2.7136,2.7152,2.7182,2.9158,2.9326,2.9427,2.9551,2.9731,2.9886,2.9958,3.0007,2.9823,2.9751,2.9769,2.9885,2.9924,2.9953,2.9984,3.0045,3.0097,3.0126,3.0142,3.0209,3.019,3.0235,3.0273,3.0303,3.0328,3.0371,3.0402,3.0389,3.04,3.0428,3.0465,3.05,3.0511,3.0552,3.0597,3.0611,3.0599,3.0618,3.0603,3.0614,3.0589,3.0604,3.0608,3.0595,3.0564,3.0506,3.0496,3.0505,3.0509,3.0509,3.0485,3.0504,3.0509,3.0514,3.0514,3.05,3.0505,3.0519,3.0525,3.0535,3.052,3.053,3.054,3.0583,3.0601,3.0604,3.0621,3.0633,3.063,3.063,3.0634,3.0638,3.0638,3.0634,3.0641,3.0633,3.0645,3.0619,3.0545,3.0495,3.0447,3.0385,3.0329,3.028,3.0241,3.0187,3.0145,3.0125,2.9832,2.926,2.8782,2.8267,2.7604,2.6869,2.6304,2.586,2.5902,2.5918,2.5804,2.5941,2.6309,2.6657,2.7,2.7262,2.7481,2.7371,2.7277,2.7231,2.7198,2.723,2.7277,2.7341,2.734,2.7324,2.734,2.9504,2.9625,2.9842,2.9981,3.0037,3.0221,3.0299,3.0303,3.0315,3.0209,3.0121,3.0173,3.02,3.0196,3.0209,3.0267,3.0316,3.0322,3.0339,3.0342,3.0353,3.0389,3.0455,3.0451,3.0462,3.0452,3.0487,3.0516,3.053,3.0554,3.0561,3.0567,3.0607,3.0674,3.0672,3.0675,3.0689,3.0737,3.0725,3.0703,3.0688,3.0674,3.0667,3.068,3.0634,3.0597,3.06,3.0583,3.0588,3.0579,3.0535,3.054,3.0579,3.0579,3.0579,3.0583,3.0554,3.0574,3.0574,3.0579,3.0559,3.0564,3.0593,3.0598,3.0612,3.061,3.0604,3.0613,3.0597,3.0597,3.0597,3.0597,3.0613,3.0604,3.0591,3.0601,3.0592,3.0535,3.0472,3.0421,3.0374,3.0318,3.026,3.0202,3.0168,3.0133,3.0123,3.0072,2.9972,2.958,2.9173,2.8693,2.8306,2.7688,2.7184,2.6874,2.6845,2.6549,2.6295,2.6514,2.6845,2.7144,2.7422,2.7449,2.7542,2.7481,2.7434,2.7434,2.7419,2.7402,2.7417,2.7465,2.7494,2.7494,2.7509,2.9859,2.9943,3.015,3.0247,3.0308,3.0425,3.0487,3.0544,3.058,3.0528,3.0404,3.0411,3.0398,3.0386,3.0392,3.0432,3.0487,3.0482,3.0482,3.0482,3.0491,3.0543,3.0572,3.058,3.0589,3.0582,3.0571,3.0603,3.0622,3.0644,3.0646,3.0662,3.0709,3.075,3.0743,3.0737,3.0767,3.0792,3.0788,3.0778,3.0745,3.0738,3.075,3.0739,3.071,3.0674,3.0657,3.0621,3.061,3.0592,3.0569,3.0559,3.0588,3.0612,3.0612,3.0617,3.0593,3.0617,3.0617,3.0617,3.0617,3.0617,3.0617,3.0617,3.0617,3.0616,3.0616,3.0606,3.0568,3.0564,3.0559,3.0559,3.055,3.0559,3.0554,3.0545,3.05,3.0458,3.0389,3.0359,3.0305,3.0266,3.0207,3.0173,3.013,3.0113,3.0083,3.0019,2.9924,2.9815,2.9433,2.9128,2.8717,2.8542,2.8233,2.7919,2.7705,2.7332,2.6876,2.7183,2.7516,2.7674,2.7845,2.7707,2.7632,2.7572,2.7557,2.7542,2.7542,2.7526,2.7542,2.7572,2.7617,2.7644,2.7644,3.0169,3.0266,3.0392,3.0467,3.0533,3.0575,3.0641,3.0698,3.0691,3.0717,3.0686,3.0582,3.054,3.0528,3.0528,3.0579,3.0611,3.0614,3.0626,3.0633,3.0621,3.0648,3.0678,3.0704,3.0707,3.0691,3.0701,3.0691,3.0703,3.0703,3.0718,3.0728,3.0765,3.0783,3.0788,3.0795,3.0819,3.0819,3.0823,3.0827,3.0803,3.0795,3.0803,3.0786,3.076,3.0703,3.0691,3.0668,3.0629,3.0595,3.0592,3.0598,3.0593,3.0617,3.0617,3.0617,3.0617,3.0617,3.0617,3.0617,3.0617,3.0617,3.0617,3.0617,3.0617,3.0593,3.0598,3.0569,3.053,3.0515,3.0515,3.0505,3.0514,3.0504,3.0479,3.0463,3.0411,3.0371,3.0342,3.0292,3.0235,3.0194,3.0159,3.0123,3.0091,3.0053,2.9999,2.9924,2.9849,2.9708,2.9476,2.9326,2.9106,2.8987,2.8957,2.8652,2.8275,2.8086,2.7733,2.7982,2.8112,2.8,2.79,2.778,2.7689,2.7644,2.7617,2.7585,2.7602,2.7632,2.7615,2.7644,2.7721,2.7751,2.7748,3.0422,3.0534,3.061,3.0649,3.0662,3.0681,3.0733,3.0774,3.0781,3.0776,3.0764,3.0762,3.0723,3.0675,3.067,3.0692,3.0725,3.0739,3.0737,3.0762,3.0723,3.0745,3.0767,3.0769,3.0794,3.0779,3.0767,3.0778,3.0763,3.0776,3.0785,3.0789,3.0778,3.0805,3.0824,3.0866,3.1004,3.1043,3.112,3.1181,3.1042,3.0959,3.0799,3.0785,3.078,3.0777,3.0764,3.0713,3.0653,3.0636,3.0606,3.0602,3.0617,3.0617,3.0617,3.0617,3.0617,3.0617,3.0617,3.0617,3.0617,3.0617,3.0617,3.0617,3.0593,3.0535,3.0535,3.053,3.0496,3.0486,3.05,3.0504,3.0493,3.0463,3.0439,3.0394,3.0328,3.0311,3.0299,3.0234,3.0161,3.013,3.0101,3.0057,2.9988,2.9959,2.9885,2.9806,2.9727,2.9617,2.9502,2.9412,2.932,2.9275,2.913,2.8913,2.8615,2.8545,2.8406,2.8264,2.8126,2.8056,2.794,2.7853,2.7777,2.7701,2.7689,2.7707,2.7704,2.7719,2.7704,2.7733,2.781,2.7856,2.7853]}]]